[[{"header":{"parameterUnit":"m.s-1","parameterCategory":1,"la1":31.0,"la2":29.5877,"lo1":-88.7671,"lo2":-86.6584,"dx":0.0162,"dy":0.0185,"nx":115,"ny":88,"refTime":"2023-01-22T06:00:00:Z","depth":0,"parameterNumber":2,"parameterNumberName":"U-component_of_WINDS"},"data":[0.0,0.0,0.0,0.0,0.0,0.0,0.0,0.0,0.0,0.0,0.0,0.0,0.0,0.0,0.0,0.0,0.0,0.0,0.0,0.0,0.0,0.0,0.0,0.0,0.0,0.0,0.0,0.0,0.0,0.0,0.0,0.0,0.0,0.0,0.0,0.0,0.0,0.0,0.0,0.0,0.0,0.0,0.0,0.0,0.0,0.0,0.0,0.0,0.0,0.0,0.0,0.0,0.0,0.0,0.0,0.0,0.0,0.0,0.0,0.0,0.0,0.0,0.0,0.0,0.0,0.0,0.0,0.0,0.0,0.0,0.0,0.0,0.0,0.0,0.0,0.0,0.0,0.0,0.0,0.0,0.0,0.0,0.0,0.0,0.0,0.0,0.0,0.0,0.0,0.0,0.0,0.0,0.0,0.0,0.0,0.0,0.0,0.0,0.0,0.0,0.0,0.0,0.0,0.0,0.0,0.0,0.0,0.0,0.0,0.0,0.0,0.0,0.0,0.0,0.0,0.0,0.0,0.0,0.0,0.0,0.0,0.0,0.0,0.0,0.0,0.0,0.0,0.0,0.0,0.0,0.0,0.0,0.0,0.0,0.0,0.0,0.0,0.0,0.0,0.0,0.0,0.0,0.0,0.0,0.0,0.0,0.0,0.0,0.0,0.0,0.0,0.0,0.0,0.0,0.0,0.0,0.0,0.0,0.0,0.0,0.0,0.0,0.0,0.0,0.0,0.0,0.0,0.0,0.0,0.0,0.0,0.0,0.0,0.0,0.0,0.0,0.0,0.0,0.0,0.0,0.0,0.0,0.0,0.0,0.0,0.0,0.0,0.0,0.0,0.0,0.0,0.0,0.0,0.0,0.0,0.0,0.0,0.0,0.0,0.0,0.0,0.0,0.0,0.0,0.0,0.0,0.0,0.0,0.0,0.0,0.0,0.0,0.0,0.0,0.0,0.0,0.0,0.0,0.0,0.0,0.0,0.0,0.0,0.0,0.0,0.0,0.0,0.0,0.0,0.0,0.0,0.0,0.0,0.0,0.0,0.0,0.0,0.0,0.0,0.0,0.0,0.0,0.0,0.0,0.0,0.0,0.0,0.0,0.0,0.0,0.0,0.0,0.0,0.0,0.0,0.0,0.0,0.0,0.0,0.0,0.0,0.0,0.0,0.0,0.0,0.0,0.0,0.0,0.0,0.0,0.0,0.0,0.0,0.0,0.0,0.0,0.0,0.0,0.0,0.0,0.0,0.0,0.0,0.0,0.0,0.0,0.0,0.0,0.0,0.0,0.0,0.0,0.0,0.0,0.0,0.0,0.0,0.0,0.0,0.0,0.0,0.0,0.0,0.0,0.0,0.0,0.0,0.0,0.0,0.0,0.0,0.0,0.0,0.0,0.0,0.0,0.0,0.0,0.0,0.0,0.0,0.0,0.0,0.0,0.0,0.0,0.0,0.0,0.0,0.0,0.0,0.0,0.0,0.0,0.0,0.0,0.0,0.0,0.0,0.0,0.0,0.0,0.0,0.0,0.0,0.0,0.0,0.0,0.0,0.0,0.0,0.0,0.0,0.0,0.0,0.0,0.0,0.0,0.0,0.0,0.0,0.0,0.0,0.0,0.0,0.0,0.0,0.0,0.0,0.0,0.0,0.0,0.0,0.0,0.0,0.0,0.0,0.0,0.0,0.0,0.0,0.0,0.0,0.0,0.0,0.0,0.0,0.0,0.0,0.0,0.0,0.0,0.0,0.0,0.0,0.0,0.0,0.0,0.0,0.0,0.0,0.0,0.0,0.0,0.0,0.0,0.0,0.0,0.0,0.0,0.0,0.0,0.0,0.0,0.0,0.0,0.0,0.0,0.0,0.0,0.0,0.0,0.0,0.0,0.0,0.0,0.0,0.0,0.0,0.0,0.0,0.0,0.0,0.0,0.0,0.0,0.0,0.0,0.0,0.0,0.0,0.0,0.0,0.0,0.0,0.0,0.0,0.0,0.0,0.0,0.0,0.0,0.0,0.0,0.0,0.0,0.0,0.0,0.0,0.0,0.0,0.0,0.0,0.0,0.0,0.0,0.0,0.0,0.0,0.0,0.0,0.0,0.0,0.0,0.0,0.0,0.0,0.0,0.0,0.0,0.0,0.0,0.0,0.0,0.0,0.0,0.0,0.0,0.0,0.0,0.0,0.0,0.0,0.0,0.0,0.0,0.0,0.0,0.0,0.0,0.0,0.0,0.0,0.0,0.0,0.0,0.0,0.0,0.0,0.0,0.0,0.0,0.0,0.0,0.0,0.0,0.0,0.0,0.0,0.0,0.0,0.0,0.0,0.0,0.0,0.0,0.0,0.0,0.0,0.0,0.0,0.0,0.0,0.0,0.0,0.0,0.0,0.0,0.0,0.0,0.0,0.0,0.0,0.0,0.0,0.0,0.0,0.0,0.0,0.0,0.0,0.0,0.0,0.0,0.0,0.0,0.0,0.0,0.0,0.0,0.0,0.0,0.0,0.0,0.0,0.0,0.0,0.0,0.0,0.0,0.0,0.0,0.0,0.0,0.0,0.0,0.0,0.0,0.0,0.0,0.0,0.0,0.0,0.0,0.0,0.0,0.0,0.0,0.0,0.0,0.0,0.0,0.0,0.0,0.0,0.0,0.0,0.0,0.0,0.0,0.0,0.0,0.0,0.0,0.0,0.0,0.0,0.0,0.0,0.0,0.0,0.0,0.0,0.0,0.0,0.0,0.0,0.0,0.0,0.0,0.0,0.0,0.0,0.0,0.0,0.0,0.0,0.0,0.0,0.0,0.0,0.0,0.0,0.0,0.0,0.0,0.0,0.0,0.0,0.0,0.0,0.0,0.0,0.0,0.0,0.0,0.0,0.0,0.0,0.0,0.0,0.0,0.0,0.0,0.0,0.0,0.0,0.0,0.0,0.0,0.0,0.0,0.0,0.0,0.0,0.0,0.0,0.0,0.0,0.0,0.0,0.0,0.0,0.0,0.0,0.0,0.0,0.0,0.0,0.0,0.0,0.0,0.0,0.0,0.0,0.0,0.0,0.0,0.0,0.0,0.0,0.0,0.0,0.0,0.0,0.0,0.0,0.0,0.0,0.0,0.0,0.0,0.0,0.0,0.0,0.0,0.0,0.0,0.0,0.0,0.0,0.0,0.0,0.0,0.0,0.0,0.0,0.0,0.0,0.0,0.0,0.0,0.0,0.0,0.0,0.0,0.0,0.0,0.0,0.0,0.0,0.0,0.0,0.0,0.0,0.0,0.0,0.0,0.0,0.0,0.0,0.0,0.0,0.0,0.0,0.0,0.0,0.0,0.0,0.0,0.0,0.0,0.0,0.0,0.0,0.0,0.0,0.0,0.0,0.0,0.0,0.0,0.0,0.0,0.0,0.0,0.0,0.0,0.0,0.0,0.0,0.0,0.0,0.0,0.0,0.0,0.0,0.0,0.0,0.0,0.0,0.0,0.0,0.0,0.0,0.0,0.0,0.0,0.0,0.0,0.0,0.0,0.0,0.0,0.0,0.0,0.0,0.0,0.0,0.0,0.0,0.0,0.0,0.0,0.0,0.0,0.0,0.0,0.0,0.0,0.0,0.0,0.0,0.0,0.0,0.0,0.0,0.0,0.0,0.0,0.0,0.0,0.0,0.0,0.0,0.0,0.0,0.0,0.0,0.0,0.0,0.0,0.0,0.0,0.0,0.0,0.0,0.0,0.0,0.0,0.0,0.0,0.0,0.0,0.0,0.0,0.0,0.0,0.0,0.0,0.0,0.0,0.0,0.0,0.0,0.0,0.0,0.0,0.0,0.0,0.0,0.0,0.0,0.0,0.0,0.0,0.0,0.0,0.0,0.0,0.0,0.0,0.0,0.0,0.0,0.0,0.0,0.0,0.0,0.0,0.0,0.0,0.0,0.0,0.0,0.0,0.0,0.0,0.0,0.0,0.0,0.0,0.0,0.0,0.0,0.0,0.0,0.0,0.0,0.0,0.0,0.0,0.0,0.0,0.0,0.0,0.0,0.0,0.0,0.0,0.0,0.0,0.0,0.0,0.0,0.0,0.0,0.0,0.0,0.0,0.0,0.0,0.0,0.0,0.0,0.0,0.0,0.0,0.0,0.0,0.0,0.0,0.0,0.0,0.0,0.0,0.0,0.0,0.0,0.0,0.0,0.0,0.0,0.0,0.0,0.0,0.0,0.0,0.0,0.0,0.0,0.0,0.0,0.0,0.0,0.0,0.0,0.0,0.0,0.0,0.0,0.0,0.0,0.0,0.0,0.0,-0.8607,0.0,0.0,0.0,0.0,0.0,0.0,0.0,0.0,0.0,0.0,0.0,0.0,0.0,0.0,0.0,0.0,0.0,0.0,0.0,0.0,0.0,0.0,0.0,0.0,0.0,0.0,0.0,0.0,0.0,0.0,0.0,0.0,0.0,0.0,0.0,0.0,0.0,0.0,0.0,0.0,0.0,0.0,0.0,0.0,0.0,0.0,0.0,0.0,0.0,0.0,0.0,0.0,0.0,0.0,0.0,0.0,0.0,0.0,0.0,0.0,0.0,0.0,0.0,0.0,0.0,0.0,0.0,0.0,0.0,0.0,0.0,0.0,0.0,0.0,0.0,0.0,0.0,0.0,0.0,0.0,0.0,0.0,0.0,0.0,0.0,0.0,0.0,0.0,0.0,0.0,0.0,0.0,0.0,0.0,0.0,0.0,0.0,0.0,0.0,0.0,0.0,0.0,0.0,0.0,0.0,0.0,0.0,0.0,0.0,0.0,-0.7713,-0.8607,-0.8607,-0.8607,-0.8607,0.0,0.0,0.0,0.0,0.0,0.0,0.0,0.0,0.0,0.0,0.0,0.0,0.0,0.0,0.0,0.0,0.0,0.0,0.0,0.0,0.0,0.0,0.0,0.0,0.0,0.0,0.0,0.0,0.0,0.0,0.0,0.0,0.0,0.0,0.0,0.0,0.0,0.0,0.0,0.0,0.0,0.0,0.0,0.0,0.0,0.0,0.0,0.0,0.0,0.0,0.0,0.0,0.0,0.0,0.0,0.0,0.0,0.0,0.0,0.0,0.0,0.0,0.0,0.0,0.0,0.0,0.0,0.0,0.0,0.0,0.0,0.0,0.0,0.0,0.0,0.0,0.0,0.0,0.0,0.0,0.0,0.0,0.0,0.0,0.0,0.0,0.0,0.0,0.0,0.0,0.0,0.0,0.0,0.0,0.0,0.0,0.0,0.0,0.0,0.0,0.0,0.0,0.0,0.0,0.0,0.0,0.0,0.0,0.0,0.0,0.0,0.0,-0.8607,-0.8607,-0.8607,0.0,0.0,0.0,0.0,0.0,0.0,0.0,0.0,0.0,0.0,0.0,0.0,0.0,0.0,0.0,0.0,0.0,0.0,0.0,0.0,0.0,0.0,0.0,0.0,0.0,0.0,0.0,0.0,0.0,0.0,0.0,0.0,0.0,0.0,0.0,0.0,0.0,0.0,0.0,0.0,0.0,0.0,0.0,0.0,0.0,0.0,0.0,0.0,0.0,0.0,0.0,0.0,0.0,0.0,0.0,0.0,0.0,0.0,0.0,0.0,0.0,0.0,0.0,0.0,0.0,0.0,0.0,0.0,0.0,0.0,0.0,0.0,0.0,0.0,0.0,0.0,0.0,0.0,0.0,0.0,0.0,0.0,0.0,0.0,0.0,0.0,0.0,0.0,0.0,0.0,0.0,0.0,0.0,0.0,0.0,0.0,0.0,0.0,0.0,0.0,0.0,0.0,0.0,0.0,0.0,0.0,0.0,0.0,0.0,0.0,-0.7352,-0.7889,-0.8429,0.0,-0.8607,0.0,0.0,0.0,0.0,0.0,0.0,0.0,0.0,0.0,0.0,0.0,0.0,0.0,0.0,0.0,0.0,0.0,0.0,0.0,0.0,0.0,0.0,0.0,0.0,0.0,0.0,0.0,0.0,0.0,0.0,0.0,0.0,0.0,0.0,0.0,0.0,0.0,0.0,0.0,0.0,0.0,0.0,0.0,0.0,0.0,0.0,0.0,0.0,0.0,0.0,0.0,0.0,0.0,0.0,0.0,0.0,0.0,0.0,0.0,0.0,0.0,0.0,0.0,0.0,0.0,0.0,0.0,0.0,0.0,0.0,0.0,0.0,0.0,0.0,0.0,0.0,0.0,0.0,0.0,0.0,0.0,0.0,0.0,0.0,0.0,0.0,0.0,0.0,0.0,0.0,0.0,0.0,0.0,0.0,0.0,0.0,0.0,0.0,0.0,0.0,0.0,0.0,0.0,0.0,0.0,0.0,0.0,0.0,0.0,0.0,-0.7352,-0.7889,-0.8429,-0.8607,0.0,0.0,0.0,0.0,0.0,0.0,0.0,0.0,0.0,0.0,0.0,0.0,0.0,0.0,0.0,0.0,0.0,0.0,0.0,0.0,0.0,0.0,0.0,0.0,0.0,0.0,0.0,0.0,0.0,0.0,0.0,0.0,0.0,0.0,0.0,0.0,0.0,0.0,0.0,0.0,0.0,0.0,0.0,0.0,0.0,0.0,0.0,0.0,0.0,0.0,0.0,0.0,0.0,0.0,0.0,0.0,0.0,0.0,0.0,0.0,0.0,0.0,0.0,0.0,0.0,0.0,0.0,0.0,0.0,0.0,0.0,0.0,0.0,0.0,0.0,0.0,0.0,0.0,0.0,0.0,0.0,0.0,0.0,0.0,0.0,0.0,0.0,0.0,0.0,0.0,0.0,0.0,0.0,0.0,0.0,0.0,0.0,0.0,0.0,0.0,0.0,0.0,0.0,0.0,0.0,0.0,0.0,0.0,0.0,0.0,-0.6815,-0.7531,-0.8067,-0.8429,-0.8607,-0.8607,0.0,0.0,0.0,0.0,0.0,0.0,0.0,0.0,0.0,0.0,0.0,0.0,0.0,0.0,0.0,0.0,0.0,0.0,0.0,0.0,0.0,0.0,0.0,0.0,0.0,0.0,0.0,0.0,0.0,0.0,0.0,0.0,0.0,0.0,0.0,0.0,0.0,0.0,0.0,0.0,0.0,0.0,0.0,0.0,0.0,0.0,0.0,0.0,0.0,0.0,0.0,0.0,0.0,0.0,0.0,0.0,0.0,0.0,0.0,0.0,0.0,0.0,0.0,0.0,0.0,0.0,0.0,0.0,0.0,0.0,0.0,0.0,0.0,0.0,0.0,0.0,0.0,0.0,0.0,0.0,0.0,0.0,0.0,0.0,0.0,0.0,0.0,0.0,0.0,0.0,0.0,0.0,0.0,0.0,0.0,0.0,0.0,0.0,0.0,0.0,0.0,0.0,0.0,0.0,0.0,0.0,0.0,0.0,-0.5741,-0.6637,-0.7713,-0.8429,-0.8607,-0.8607,0.0,0.0,0.0,0.0,0.0,0.0,0.0,0.0,0.0,0.0,0.0,0.0,0.0,0.0,0.0,0.0,0.0,0.0,0.0,0.0,0.0,0.0,0.0,0.0,0.0,0.0,0.0,0.0,0.0,0.0,0.0,0.0,0.0,0.0,0.0,0.0,0.0,0.0,0.0,0.0,0.0,0.0,0.0,0.0,0.0,0.0,0.0,0.0,0.0,0.0,0.0,0.0,0.0,0.0,0.0,0.0,0.0,0.0,0.0,0.0,0.0,0.0,0.0,0.0,0.0,0.0,0.0,0.0,0.0,0.0,0.0,0.0,0.0,0.0,0.0,0.0,0.0,0.0,0.0,0.0,0.0,0.0,0.0,0.0,0.0,0.0,0.0,0.0,0.0,0.0,0.0,0.0,0.0,0.0,0.0,0.0,0.0,0.0,0.0,0.0,0.0,0.0,0.0,0.0,0.0,0.0,0.0,0.0,0.0,-0.5741,-0.6637,-0.7713,-0.8607,-0.8607,-0.8607,0.0,0.0,0.0,0.0,0.0,0.0,0.0,0.0,0.0,0.0,0.0,0.0,0.0,0.0,0.0,0.0,0.0,0.0,0.0,0.0,0.0,0.0,0.0,0.0,0.0,0.0,0.0,0.0,0.0,0.0,0.0,0.0,0.0,0.0,0.0,0.0,0.0,0.0,0.0,0.0,0.0,0.0,0.0,0.0,0.0,0.0,0.0,0.0,0.0,0.0,0.0,0.0,0.0,0.0,0.0,0.0,0.0,0.0,0.0,0.0,0.0,0.0,0.0,0.0,0.0,0.0,0.0,0.0,0.0,0.0,0.0,0.0,0.0,0.0,0.0,0.0,0.0,0.0,0.0,0.0,0.0,0.0,0.0,0.0,0.0,0.0,0.0,0.0,0.0,0.0,0.0,0.0,0.0,0.0,0.0,0.0,0.0,0.0,0.0,0.0,0.0,0.0,0.0,0.0,0.0,0.0,0.0,0.0,0.0,-0.5918,0.0,-0.7531,-0.825,-0.8607,-0.8607,0.0,0.0,0.0,0.0,0.0,0.0,0.0,0.0,0.0,0.0,0.0,0.0,0.0,0.0,0.0,0.0,0.0,0.0,0.0,0.0,0.0,0.0,0.0,0.0,0.0,0.0,0.0,0.0,0.0,0.0,0.0,0.0,0.0,0.0,0.0,0.0,0.0,0.0,0.0,0.0,0.0,0.0,0.0,0.0,0.0,0.0,0.0,0.0,0.0,0.0,0.0,0.0,0.0,0.0,0.0,0.0,0.0,0.0,0.0,0.0,0.0,0.0,0.0,0.0,0.0,0.0,0.0,0.0,0.0,0.0,0.0,0.0,0.0,0.0,0.0,0.0,0.0,0.0,0.0,0.0,0.0,0.0,0.0,0.0,0.0,0.0,0.0,0.0,0.0,0.0,0.0,0.0,0.0,0.0,0.0,0.0,0.0,0.0,0.0,0.0,0.0,0.0,0.0,0.0,0.0,0.0,0.0,0.0,-0.5918,-0.6454,-0.6994,-0.7352,-0.7889,-0.8429,-0.8607,0.0,0.0,0.0,0.0,0.0,0.0,0.0,0.0,0.0,0.0,0.0,0.0,0.0,0.0,0.0,0.0,0.0,0.0,0.0,0.0,0.0,0.0,0.0,0.0,0.0,0.0,0.0,0.0,0.0,0.0,0.0,0.0,0.0,0.0,0.0,0.0,0.0,0.0,0.0,0.0,0.0,0.0,0.0,0.0,0.0,0.0,0.0,0.0,0.0,0.0,0.0,0.0,0.0,0.0,0.0,0.0,0.0,0.0,0.0,0.0,0.0,0.0,0.0,0.0,0.0,0.0,0.0,0.0,0.0,0.0,0.0,0.0,0.0,0.0,0.0,0.0,0.0,0.0,0.0,0.0,0.0,0.0,0.0,0.0,0.0,0.0,0.0,0.0,0.0,0.0,0.0,0.0,0.0,0.0,0.0,0.0,0.0,0.0,0.0,0.0,0.0,0.0,0.0,0.0,0.0,0.0,0.0,0.0,0.0,-0.6454,-0.6994,-0.7352,-0.7889,-0.8429,-0.8607,0.0,0.0,0.0,0.0,0.0,0.0,0.0,0.0,0.0,0.0,0.0,0.0,0.0,0.0,0.0,0.0,0.0,0.0,0.0,0.0,0.0,0.0,0.0,0.0,0.0,0.0,0.0,0.0,0.0,0.0,0.0,0.0,0.0,0.0,0.0,0.0,0.0,0.0,0.0,0.0,0.0,0.0,0.0,0.0,0.0,0.0,0.0,0.0,0.0,0.0,0.0,0.0,0.0,0.0,0.0,0.0,0.0,0.0,0.0,0.0,0.0,0.0,0.0,0.0,0.0,0.0,0.0,0.0,0.0,0.0,0.0,0.0,0.0,0.0,0.0,0.0,0.0,0.0,0.0,0.0,0.0,0.0,0.0,0.0,0.0,0.0,0.0,0.0,0.0,0.0,0.0,0.0,0.0,0.0,0.0,0.0,0.0,0.0,0.0,0.0,0.0,0.0,0.0,0.0,0.0,0.0,0.0,0.0,0.0,-0.635,-0.6841,-0.7352,-0.771,-0.825,-0.8607,-0.8607,0.0,0.0,0.0,0.0,0.0,0.0,0.0,0.0,0.0,0.0,0.0,0.0,0.0,0.0,0.0,0.0,0.0,0.0,0.0,0.0,0.0,0.0,0.0,0.0,0.0,0.0,0.0,0.0,0.0,0.0,0.0,0.0,0.0,0.0,0.0,0.0,0.0,0.0,0.0,0.0,0.0,0.0,0.0,0.0,0.0,0.0,0.0,0.0,0.0,0.0,0.0,0.0,0.0,0.0,0.0,0.0,0.0,0.0,0.0,0.0,0.0,0.0,0.0,0.0,0.0,0.0,0.0,0.0,0.0,0.0,0.0,0.0,0.0,0.0,0.0,0.0,0.0,0.0,0.0,0.0,0.0,0.0,0.0,0.0,0.0,0.0,0.0,0.0,0.0,0.0,0.0,0.0,0.0,0.0,0.0,0.0,0.0,0.0,0.0,0.0,0.0,0.0,0.0,0.0,0.0,0.0,0.0,0.0,-0.5921,-0.6715,-0.7187,-0.718,-0.8075,-0.8611,0.0,0.0,0.0,0.0,0.0,0.0,0.0,0.0,0.0,0.0,0.0,0.0,0.0,0.0,0.0,0.0,0.0,0.0,0.0,0.0,0.0,0.0,0.0,0.0,0.0,0.0,0.0,0.0,0.0,0.0,0.0,0.0,0.0,0.0,0.0,0.0,0.0,0.0,0.0,0.0,0.0,0.0,0.0,0.0,0.0,0.0,0.0,0.0,0.0,0.0,0.0,0.0,0.0,0.0,0.0,0.0,0.0,0.0,0.0,0.0,0.0,0.0,0.0,0.0,0.0,0.0,0.0,0.0,0.0,0.0,0.0,0.0,0.0,0.0,0.0,0.0,0.0,0.0,0.0,0.0,0.0,0.0,0.0,0.0,0.0,0.0,0.0,0.0,0.0,0.0,0.0,0.0,0.0,0.0,0.0,0.0,0.0,0.0,0.0,0.0,0.0,0.0,0.0,0.0,0.0,0.0,0.0,0.0,0.0,-0.5921,-0.6442,-0.6948,-0.7258,-0.7743,-0.8277,0.0,0.0,0.0,0.0,0.0,0.0,0.0,0.0,0.0,0.0,0.0,0.0,0.0,0.0,0.0,0.0,0.0,0.0,0.0,0.0,0.0,0.0,0.0,0.0,0.0,0.0,0.0,0.0,0.0,0.0,0.0,0.0,0.0,0.0,0.0,0.0,0.0,0.0,0.0,0.0,0.0,0.0,0.0,0.0,0.0,0.0,0.0,0.0,0.0,0.0,0.0,0.0,0.0,0.0,0.0,0.0,0.0,0.0,0.0,0.0,0.0,0.0,0.0,0.0,0.0,0.0,0.0,0.0,0.0,0.0,0.0,0.0,0.0,0.0,0.0,0.0,0.0,0.0,0.0,0.0,0.0,0.0,0.0,0.0,0.0,0.0,0.0,0.0,0.0,0.0,0.0,0.0,0.0,0.0,0.0,0.0,0.0,0.0,0.0,0.0,0.0,0.0,0.0,0.0,0.0,0.0,0.0,0.0,-0.5997,-0.5997,-0.6156,-0.6499,-0.7013,-0.767,-0.8194,0.0,0.0,0.0,0.0,0.0,0.0,0.0,0.0,0.0,0.0,0.0,0.0,0.0,0.0,0.0,0.0,0.0,0.0,0.0,0.0,0.0,0.0,0.0,0.0,0.0,0.0,0.0,0.0,0.0,0.0,0.0,0.0,0.0,0.0,0.0,0.0,0.0,0.0,0.0,0.0,0.0,0.0,0.0,0.0,0.0,0.0,0.0,0.0,0.0,0.0,0.0,0.0,0.0,0.0,0.0,0.0,0.0,0.0,0.0,0.0,0.0,0.0,0.0,0.0,0.0,0.0,0.0,0.0,0.0,0.0,0.0,0.0,0.0,0.0,0.0,0.0,0.0,0.0,0.0,0.0,0.0,0.0,0.0,0.0,0.0,0.0,0.0,0.0,0.0,0.0,0.0,0.0,0.0,0.0,0.0,0.0,0.0,0.0,0.0,0.0,0.0,0.0,0.0,0.0,0.0,0.0,0.0,0.0,-0.6098,-0.6096,-0.6055,-0.6221,-0.6591,-0.7446,-0.7955,0.0,0.0,0.0,0.0,0.0,0.0,0.0,0.0,0.0,0.0,0.0,0.0,0.0,0.0,0.0,0.0,0.0,0.0,0.0,0.0,0.0,0.0,0.0,0.0,0.0,0.0,0.0,0.0,0.0,0.0,0.0,0.0,0.0,0.0,0.0,0.0,0.0,0.0,0.0,0.0,0.0,0.0,0.0,0.0,0.0,0.0,0.0,0.0,0.0,0.0,0.0,0.0,0.0,0.0,0.0,0.0,0.0,0.0,0.0,0.0,0.0,0.0,0.0,0.0,0.0,0.0,0.0,0.0,0.0,0.0,0.0,0.0,0.0,0.0,0.0,0.0,0.0,0.0,0.0,0.0,0.0,0.0,0.0,0.0,0.0,0.0,0.0,0.0,0.0,0.0,0.0,0.0,0.0,0.0,0.0,0.0,0.0,0.0,0.0,0.0,0.0,0.0,0.0,0.0,0.0,0.0,0.0,0.0,-0.6098,-0.6098,-0.6134,-0.615,-0.6342,-0.6749,-0.724,0.0,0.0,0.0,0.0,0.0,0.0,0.0,0.0,0.0,0.0,0.0,0.0,0.0,0.0,0.0,0.0,0.0,0.0,0.0,0.0,0.0,0.0,0.0,0.0,0.0,0.0,0.0,0.0,0.0,0.0,0.0,0.0,0.0,0.0,0.0,0.0,0.0,0.0,0.0,0.0,0.0,0.0,0.0,0.0,0.0,0.0,0.0,0.0,-3.8926,0.0,0.0,0.0,0.0,0.0,0.0,0.0,0.0,0.0,0.0,0.0,0.0,0.0,0.0,0.0,0.0,0.0,0.0,0.0,0.0,0.0,0.0,0.0,0.0,0.0,0.0,0.0,0.0,0.0,0.0,0.0,0.0,0.0,0.0,0.0,0.0,0.0,0.0,0.0,0.0,0.0,0.0,0.0,0.0,0.0,0.0,0.0,0.0,0.0,0.0,0.0,0.0,0.0,0.0,0.0,0.0,0.0,0.0,0.0,-0.6139,-0.6142,-0.6199,-0.6232,-0.6226,-0.6331,-0.6865,0.0,0.0,0.0,0.0,0.0,0.0,0.0,0.0,0.0,0.0,0.0,0.0,0.0,0.0,0.0,0.0,0.0,0.0,0.0,0.0,0.0,0.0,0.0,0.0,0.0,0.0,0.0,0.0,0.0,0.0,0.0,0.0,0.0,0.0,0.0,0.0,0.0,0.0,0.0,0.0,0.0,0.0,0.0,0.0,0.0,0.0,0.0,0.0,0.0,0.0,0.0,0.0,0.0,0.0,0.0,0.0,0.0,0.0,0.0,0.0,0.0,0.0,0.0,0.0,0.0,0.0,0.0,0.0,0.0,0.0,0.0,0.0,0.0,0.0,0.0,0.0,0.0,0.0,0.0,0.0,0.0,0.0,0.0,0.0,0.0,0.0,0.0,0.0,0.0,0.0,0.0,0.0,0.0,0.0,0.0,0.0,0.0,0.0,0.0,0.0,0.0,0.0,0.0,0.0,0.0,0.0,0.0,-0.6161,-0.6194,-0.6204,-0.6262,-0.6294,-0.6294,-0.6303,-0.6502,-0.6895,0.0,0.0,0.0,0.0,0.0,0.0,0.0,0.0,0.0,0.0,0.0,0.0,0.0,0.0,0.0,0.0,0.0,0.0,0.0,0.0,0.0,0.0,0.0,0.0,0.0,0.0,0.0,0.0,0.0,0.0,0.0,0.0,0.0,0.0,0.0,0.0,0.0,0.0,-3.7179,-3.7565,0.0,0.0,0.0,0.0,0.0,0.0,0.0,0.0,-3.9561,0.0,0.0,0.0,0.0,0.0,0.0,0.0,0.0,0.0,0.0,0.0,0.0,0.0,0.0,0.0,0.0,0.0,0.0,0.0,0.0,0.0,0.0,0.0,0.0,0.0,0.0,0.0,0.0,0.0,0.0,0.0,0.0,0.0,0.0,0.0,0.0,0.0,0.0,0.0,0.0,0.0,0.0,0.0,0.0,0.0,0.0,0.0,0.0,0.0,0.0,0.0,0.0,0.0,0.0,0.0,0.0,-0.6172,-0.6183,-0.6213,-0.6264,-0.6324,-0.6357,-0.6357,-0.6406,-0.6431,-0.6626,0.0,0.0,0.0,0.0,0.0,0.0,0.0,0.0,0.0,0.0,0.0,0.0,0.0,0.0,0.0,0.0,0.0,0.0,0.0,0.0,0.0,0.0,0.0,0.0,0.0,0.0,0.0,0.0,0.0,0.0,0.0,0.0,0.0,0.0,0.0,0.0,0.0,0.0,0.0,-3.6788,-3.6788,0.0,0.0,0.0,0.0,0.0,0.0,0.0,0.0,-3.9768,0.0,0.0,0.0,0.0,0.0,0.0,0.0,0.0,0.0,0.0,0.0,0.0,0.0,0.0,0.0,0.0,0.0,0.0,0.0,0.0,0.0,0.0,0.0,0.0,0.0,0.0,0.0,0.0,0.0,0.0,0.0,0.0,0.0,0.0,0.0,0.0,0.0,0.0,0.0,0.0,0.0,0.0,0.0,0.0,0.0,0.0,0.0,0.0,0.0,0.0,0.0,0.0,0.0,0.0,0.0,-0.6185,-0.6221,-0.6267,-0.6324,-0.6387,-0.6417,-0.642,-0.6447,-0.6463,0.0,0.0,0.0,0.0,0.0,0.0,0.0,0.0,0.0,0.0,0.0,0.0,0.0,0.0,0.0,0.0,0.0,0.0,0.0,0.0,0.0,0.0,0.0,0.0,0.0,0.0,0.0,0.0,0.0,0.0,0.0,0.0,0.0,0.0,0.0,0.0,0.0,0.0,0.0,0.0,-3.6095,-3.6345,-3.5735,0.0,0.0,0.0,0.0,0.0,0.0,-3.9183,-3.9362,0.0,0.0,0.0,0.0,0.0,0.0,0.0,0.0,0.0,0.0,0.0,0.0,0.0,0.0,0.0,0.0,0.0,0.0,0.0,0.0,0.0,0.0,0.0,0.0,0.0,0.0,0.0,0.0,0.0,0.0,0.0,0.0,0.0,0.0,0.0,0.0,0.0,0.0,0.0,0.0,0.0,0.0,0.0,0.0,0.0,0.0,0.0,0.0,0.0,0.0,0.0,0.0,0.0,0.0,0.0,-0.6207,-0.6267,-0.6327,-0.6387,-0.6436,-0.6466,-0.648,-0.648,-0.648,0.0,0.0,0.0,0.0,0.0,0.0,0.0,0.0,0.0,0.0,0.0,0.0,0.0,0.0,0.0,0.0,0.0,0.0,0.0,0.0,0.0,0.0,0.0,0.0,0.0,0.0,0.0,0.0,0.0,0.0,0.0,0.0,0.0,0.0,0.0,0.0,0.0,0.0,0.0,0.0,0.0,-3.5618,-3.5082,-3.5763,0.0,0.0,0.0,0.0,-3.8157,-3.858,0.0,0.0,0.0,0.0,0.0,0.0,0.0,0.0,0.0,0.0,0.0,0.0,0.0,0.0,0.0,0.0,0.0,0.0,0.0,0.0,0.0,0.0,0.0,0.0,0.0,0.0,0.0,0.0,0.0,0.0,0.0,0.0,0.0,0.0,0.0,0.0,0.0,0.0,0.0,0.0,0.0,0.0,0.0,0.0,0.0,0.0,0.0,0.0,0.0,0.0,0.0,0.0,0.0,0.0,0.0,0.0,-0.6267,-0.633,-0.639,-0.6447,-0.6458,-0.6488,-0.654,-0.6542,-0.6542,0.0,0.0,0.0,0.0,0.0,0.0,0.0,0.0,0.0,0.0,0.0,0.0,0.0,0.0,0.0,0.0,0.0,0.0,0.0,0.0,0.0,0.0,0.0,0.0,0.0,0.0,0.0,0.0,0.0,0.0,0.0,0.0,0.0,0.0,0.0,0.0,0.0,0.0,0.0,0.0,0.0,-3.4031,-3.5652,-3.4703,-3.4589,0.0,0.0,-3.7568,-3.8188,-3.8203,0.0,0.0,0.0,0.0,0.0,0.0,0.0,0.0,0.0,0.0,0.0,0.0,0.0,0.0,0.0,0.0,0.0,0.0,0.0,0.0,0.0,0.0,0.0,0.0,0.0,0.0,0.0,0.0,0.0,0.0,0.0,0.0,0.0,0.0,0.0,0.0,0.0,0.0,0.0,0.0,0.0,0.0,0.0,0.0,0.0,0.0,0.0,0.0,0.0,0.0,0.0,0.0,0.0,0.0,0.0,-0.6286,-0.6379,-0.6409,-0.6469,-0.6556,-0.6559,-0.6572,-0.66,-0.66,-0.66,0.0,0.0,0.0,0.0,0.0,0.0,0.0,0.0,0.0,0.0,0.0,0.0,0.0,0.0,0.0,0.0,0.0,0.0,0.0,0.0,0.0,0.0,0.0,0.0,0.0,0.0,0.0,0.0,0.0,0.0,0.0,0.0,0.0,0.0,0.0,0.0,0.0,0.0,0.0,0.0,0.0,0.0,-3.4787,-3.4104,0.0,0.0,0.0,-3.7288,-3.7487,0.0,0.0,0.0,0.0,0.0,0.0,0.0,0.0,0.0,0.0,0.0,0.0,0.0,0.0,0.0,0.0,0.0,0.0,0.0,0.0,0.0,0.0,0.0,0.0,0.0,0.0,0.0,0.0,0.0,0.0,0.0,0.0,0.0,0.0,0.0,0.0,0.0,0.0,0.0,0.0,0.0,0.0,0.0,0.0,0.0,0.0,0.0,0.0,0.0,0.0,0.0,0.0,0.0,0.0,0.0,0.0,0.0,-0.6458,-0.6491,-0.6548,-0.6632,-0.6638,-0.6643,-0.6657,-0.666,0.0,0.0,0.0,0.0,0.0,0.0,0.0,0.0,0.0,0.0,0.0,0.0,0.0,0.0,0.0,0.0,0.0,0.0,0.0,0.0,0.0,0.0,0.0,0.0,0.0,0.0,0.0,-2.2472,0.0,0.0,0.0,0.0,0.0,0.0,0.0,0.0,0.0,0.0,0.0,0.0,0.0,0.0,-3.1926,-3.2947,-3.2825,-3.348,0.0,0.0,-3.7212,-3.7212,-3.7835,-3.8186,0.0,0.0,0.0,0.0,0.0,0.0,0.0,0.0,0.0,0.0,0.0,0.0,0.0,0.0,0.0,0.0,0.0,0.0,0.0,0.0,0.0,0.0,0.0,0.0,0.0,0.0,0.0,0.0,0.0,0.0,0.0,0.0,0.0,0.0,0.0,0.0,0.0,0.0,0.0,0.0,0.0,0.0,0.0,0.0,0.0,0.0,0.0,0.0,0.0,0.0,0.0,0.0,0.0,0.0,-0.6455,-0.6463,-0.657,-0.6627,-0.6638,-0.6638,-0.6662,-0.6719,-0.6719,-0.6719,0.0,0.0,0.0,0.0,0.0,0.0,0.0,0.0,0.0,0.0,0.0,0.0,0.0,0.0,0.0,0.0,0.0,0.0,0.0,0.0,0.0,0.0,0.0,0.0,0.0,0.0,0.0,0.0,0.0,0.0,0.0,0.0,0.0,0.0,0.0,0.0,0.0,0.0,0.0,0.0,0.0,-2.8088,-3.0117,-3.0538,-3.1526,0.0,0.0,-3.7548,-3.7548,-3.7563,-3.778,-3.8403,0.0,0.0,0.0,0.0,0.0,0.0,0.0,0.0,0.0,0.0,0.0,0.0,0.0,0.0,0.0,0.0,0.0,0.0,0.0,0.0,0.0,0.0,0.0,0.0,0.0,0.0,0.0,0.0,0.0,0.0,0.0,0.0,0.0,0.0,0.0,0.0,0.0,0.0,0.0,0.0,0.0,0.0,0.0,0.0,0.0,0.0,0.0,0.0,0.0,0.0,0.0,0.0,0.0,-0.6553,-0.6624,-0.6668,-0.6709,-0.6747,-0.6747,-0.676,-0.6782,-0.6782,-0.6782,0.0,0.0,0.0,0.0,0.0,0.0,0.0,0.0,0.0,0.0,0.0,0.0,0.0,0.0,0.0,0.0,0.0,0.0,0.0,0.0,0.0,0.0,0.0,0.0,0.0,0.0,0.0,0.0,-2.3086,-2.3257,-2.3389,0.0,0.0,0.0,0.0,0.0,0.0,0.0,0.0,0.0,0.0,-2.7758,-2.9939,-2.9225,0.0,0.0,-3.4116,-3.5349,-3.3875,-3.6134,-3.775,-3.6481,-3.7928,0.0,0.0,0.0,0.0,0.0,0.0,0.0,0.0,0.0,0.0,0.0,0.0,0.0,0.0,0.0,0.0,0.0,0.0,0.0,0.0,0.0,0.0,0.0,0.0,0.0,0.0,0.0,0.0,0.0,0.0,0.0,0.0,0.0,0.0,0.0,0.0,0.0,0.0,0.0,0.0,0.0,0.0,0.0,0.0,0.0,0.0,0.0,0.0,0.0,0.0,0.0,0.0,-0.6643,-0.6725,-0.6744,-0.6774,-0.6815,-0.6818,-0.6818,-0.6818,-0.6818,-0.6818,0.0,0.0,0.0,0.0,0.0,0.0,0.0,0.0,0.0,0.0,0.0,0.0,0.0,0.0,0.0,0.0,0.0,0.0,0.0,0.0,0.0,0.0,0.0,0.0,0.0,0.0,0.0,0.0,-2.3294,-2.3483,-2.3616,0.0,0.0,0.0,0.0,0.0,0.0,0.0,0.0,0.0,0.0,-2.6677,-2.8342,-2.7819,-2.8137,-2.977,-3.2729,-3.4177,-3.2696,-3.5267,-3.6971,-3.5469,0.0,0.0,0.0,0.0,0.0,0.0,0.0,0.0,0.0,0.0,0.0,0.0,0.0,0.0,0.0,0.0,0.0,0.0,0.0,0.0,0.0,0.0,0.0,0.0,0.0,0.0,0.0,0.0,0.0,0.0,0.0,0.0,0.0,0.0,0.0,0.0,0.0,0.0,0.0,0.0,0.0,0.0,0.0,0.0,0.0,0.0,0.0,0.0,0.0,0.0,0.0,0.0,0.0,-0.6725,-0.673,-0.6785,-0.6815,-0.6818,-0.6818,-0.6818,-0.682,-0.6818,-0.6818,-0.682,0.0,0.0,0.0,0.0,0.0,0.0,0.0,0.0,0.0,0.0,0.0,0.0,0.0,0.0,0.0,0.0,0.0,0.0,0.0,0.0,0.0,0.0,0.0,0.0,0.0,0.0,-2.3332,-2.3502,-2.3625,0.0,0.0,0.0,0.0,0.0,0.0,0.0,0.0,0.0,0.0,-2.4165,-2.4242,-2.4432,-2.6539,-2.793,-2.7951,-3.1965,-3.49,-3.4689,-3.5152,-3.5351,0.0,0.0,0.0,0.0,0.0,0.0,0.0,0.0,0.0,0.0,0.0,0.0,0.0,0.0,0.0,0.0,0.0,0.0,0.0,0.0,0.0,0.0,0.0,0.0,0.0,0.0,0.0,0.9861,0.9861,0.0,0.0,0.0,0.0,0.0,0.0,0.0,0.0,0.0,0.0,0.0,0.7232,0.7292,0.0,0.0,0.0,0.0,0.0,0.0,0.0,0.0,0.0,0.0,0.0,0.0,-0.6747,-0.6788,-0.6807,-0.6818,-0.6818,-0.6818,-0.6837,-0.6878,-0.6878,-0.6897,-0.6937,0.0,0.0,0.0,0.0,0.0,0.0,0.0,0.0,0.0,0.0,0.0,0.0,0.0,0.0,0.0,0.0,0.0,0.0,0.0,0.0,0.0,0.0,0.0,0.0,0.0,-2.3531,0.0,0.0,0.0,0.0,0.0,0.0,0.0,0.0,0.0,0.0,0.0,-2.4079,-2.4154,-2.4164,-2.4239,-2.4447,-2.5176,-2.5683,0.0,0.0,0.0,0.0,0.0,0.0,0.0,0.0,0.0,0.0,0.0,0.0,0.0,0.0,-3.9441,-4.2705,-4.3804,-4.4201,-4.4423,0.0,0.0,0.0,0.0,0.0,0.0,0.0,0.0,0.0,0.0,0.0,0.0,0.0,0.0,0.0,0.0,0.9951,0.0,0.0,0.0,0.0,0.0,0.0,0.0,0.0,0.857,0.8385,0.7993,0.8064,0.7671,0.0,0.5786,0.2774,0.0,0.0,0.0,0.0,0.0,0.0,0.0,0.0,-0.6842,-0.6878,-0.688,-0.688,-0.688,-0.6883,-0.6899,-0.694,-0.694,-0.6959,-0.7,-0.7,-0.7011,0.0,0.0,0.0,0.0,0.0,0.0,0.0,0.0,0.0,0.0,0.0,0.0,0.0,0.0,0.0,0.0,0.0,0.0,0.0,0.0,0.0,0.0,0.0,-2.3434,0.0,0.0,0.0,0.0,0.0,0.0,0.0,0.0,0.0,-2.4088,-2.4183,-2.4287,-2.4362,-2.4372,-2.4457,-2.4655,0.0,0.0,0.0,0.0,0.0,0.0,0.0,-3.0491,-2.9336,-2.9866,-3.103,-3.2368,-3.3469,-3.4617,-3.5882,0.0,0.0,-4.0675,-4.237,-4.3206,-4.3437,-4.4161,-4.5011,-4.5567,-4.5504,-4.5472,0.0,0.0,0.0,0.0,0.0,0.0,0.0,0.0,0.9963,0.9967,0.0,0.9967,0.0,0.0,0.0,0.0,0.0,0.0,0.0,0.0,0.9341,0.9203,0.863,0.8705,0.8525,0.7873,0.7873,0.5464,0.0873,-0.1075,0.0,0.0,0.0,0.0,0.0,0.0,-0.7,-0.6995,-0.6995,-0.6997,-0.6997,-0.6997,-0.7,-0.7,-0.7006,-0.7006,-0.7006,-0.7008,-0.7033,-0.709,-0.7093,0.0,0.0,0.0,0.0,0.0,0.0,0.0,0.0,0.0,0.0,0.0,0.0,0.0,0.0,0.0,0.0,0.0,0.0,0.0,0.0,-2.2983,0.0,0.0,0.0,0.0,0.0,0.0,0.0,0.0,0.0,0.0,-2.4315,-2.4296,-2.4362,-2.4561,0.0,0.0,0.0,0.0,-2.4891,-2.4901,-2.701,-2.8454,-2.8476,-2.886,-2.9149,-2.916,0.0,0.0,-3.0868,-3.1971,-3.308,-3.5335,-3.6197,-3.7078,-3.6867,-3.9363,-4.1133,-4.1929,-4.3876,-4.5407,-4.5707,-4.5739,-4.5996,1.0334,0.0,0.0,0.0,0.0,1.0179,1.0163,1.0143,1.0143,1.0138,1.0143,1.0143,0.0,0.0,0.0,0.0,0.0,0.0,1.0285,1.0156,1.0184,0.9775,0.936,0.9441,0.9041,0.8601,0.8654,0.6453,0.2224,0.155,-0.1099,-0.5449,0.0,0.0,0.0,0.0,-0.5687,-0.5687,-0.5689,-0.5689,-0.5687,-0.5689,-0.5705,-0.5736,-0.6217,-0.6458,-0.6458,-0.6903,-0.7134,-0.715,-0.715,0.0,0.0,0.0,0.0,0.0,0.0,0.0,0.0,0.0,0.0,0.0,0.0,0.0,0.0,0.0,0.0,0.0,0.0,0.0,-2.2557,-2.277,-2.277,0.0,0.0,0.0,0.0,0.0,0.0,0.0,0.0,0.0,-2.4063,-2.4486,-2.4731,0.0,0.0,-2.4816,-2.4873,-2.4882,-2.4939,-2.509,-2.5816,0.0,-2.6485,-2.6642,-2.6759,-2.6916,-2.7004,-2.7271,-2.8172,-2.908,-3.0256,-3.1092,-3.1648,-3.2264,-3.284,-3.7474,-4.1181,-4.2047,-4.3866,-4.5194,-4.3898,-4.464,-4.6107,1.0424,1.0326,1.0322,1.0326,1.0326,1.0322,1.0326,1.0322,1.0326,1.0326,1.0322,1.0326,1.0294,1.0245,1.024,0.0,0.0,0.0,1.0457,1.0539,1.0539,1.034,1.0152,1.0203,0.9783,0.9343,0.939,0.7619,0.4032,0.3137,0.0669,-0.3092,0.0,0.0,-0.5303,-0.5303,-0.5303,-0.5303,-0.5303,-0.5303,-0.5303,-0.5303,-0.5315,-0.534,-0.5815,-0.6055,-0.6055,-0.6279,-0.6503,-0.6727,-0.6951,-0.6951,0.0,0.0,0.0,0.0,0.0,0.0,0.0,0.0,0.0,0.0,0.0,-1.1117,-1.5656,0.0,0.0,0.0,-2.1458,-2.1707,-2.2139,-2.2354,0.0,0.0,0.0,0.0,0.0,0.0,0.0,-2.3119,-2.3355,-2.3574,-2.3574,-2.4083,-2.4539,-2.4891,-2.4882,-2.491,-2.5005,0.0,-2.509,-2.5298,-2.5402,-2.5543,-2.5789,-2.5893,-2.5988,-2.611,-2.6358,-2.6854,-2.716,-2.7857,-2.8625,-2.9292,-2.9648,-3.0492,-3.193,-3.5974,-3.949,-4.0419,-4.2642,-4.3959,-4.2709,-4.4369,-4.6118,1.051,1.051,1.051,1.0502,1.049,1.049,1.049,1.049,1.049,1.049,1.049,1.049,1.049,1.049,1.0498,0.0,1.0498,1.0506,1.0555,1.0624,1.0624,1.0669,1.0751,1.0751,1.0528,0.9862,1.0085,0.8734,0.6046,0.3808,0.1792,-0.0224,-0.314,-0.4712,-0.5159,-0.5159,-0.5159,-0.5157,-0.5159,-0.5157,-0.5159,-0.5159,-0.5159,-0.5159,-0.5383,-0.5383,-0.5381,-0.5381,-0.5607,-0.6281,-0.6281,-0.6503,-0.7175,0.0,0.0,0.0,0.0,0.0,0.0,0.0,0.0,0.0,0.0,0.0,0.0,0.0,0.0,0.0,-2.1295,0.0,-2.1384,-2.1823,0.0,0.0,0.0,-2.2909,-2.2909,-2.2909,-2.2918,-2.2909,0.0,0.0,-2.3154,-2.333,-2.3833,-2.4749,-2.4939,-2.5005,-2.5203,-2.5232,-2.5307,-2.5506,-2.5695,-2.5827,-2.5865,-2.6007,-2.611,-2.6129,-2.6139,-2.6463,-2.7086,-2.7385,-2.7937,-2.9077,-2.9751,-3.0826,-3.385,-3.4531,-3.5402,-3.7955,-4.0268,-4.1992,-4.1833,-4.403,-4.5548,1.069,1.069,1.069,1.0612,1.049,1.049,1.049,1.049,1.049,1.049,1.049,1.049,1.049,1.0494,1.0555,1.0583,1.0588,1.0657,1.0702,1.0718,1.0718,1.073,1.0751,1.0751,1.0751,1.0528,1.0532,0.8287,0.4254,0.3583,0.1344,-0.2691,-0.3365,-0.3814,-0.4038,-0.4038,-0.4038,-0.4038,-0.4038,-0.4038,-0.4038,-0.4038,-0.4038,-0.4038,-0.4488,-0.4712,-0.4712,-0.5159,-0.5383,-0.5607,-0.6055,-0.6281,-0.6505,-0.6951,0.0,0.0,0.0,0.0,0.0,0.0,0.0,0.0,0.0,-0.9121,-1.3754,0.0,-1.6231,0.0,-2.136,-2.1384,-2.1384,-2.1603,0.0,0.0,-2.1823,-2.1823,-2.1823,-2.1823,-2.1823,-2.1823,-2.2388,-2.2694,-2.2694,-2.331,-2.3646,-2.4048,-2.4475,-2.4707,-2.4753,-2.5208,-2.5506,-2.5714,-2.5799,-2.5884,-2.6025,-2.6092,-2.6129,-2.6129,-2.6262,-2.6394,-2.6673,-2.728,-2.7922,-2.8834,-2.9621,-3.0431,-3.1771,-3.224,-3.3314,-3.5683,-3.801,-3.9272,-3.7677,-4.0813,-4.3985,1.0751,1.0751,1.0751,1.0694,1.0608,1.0608,1.0604,1.0608,1.0608,1.0608,1.0608,1.0608,1.0604,1.0608,1.0657,1.0677,1.0681,1.073,1.0751,1.0751,1.0751,1.0751,1.0751,1.0751,1.0751,1.0751,1.0751,0.8957,0.5375,0.403,0.1792,-0.2018,-0.3141,-0.3589,-0.3589,-0.3589,-0.3589,-0.3589,-0.3589,-0.3589,-0.3589,-0.3589,-0.3589,-0.3589,-0.3814,-0.4039,-0.4039,-0.4486,-0.471,-0.4936,-0.5385,-0.5833,-0.6281,-0.6505,-0.6951,0.0,0.0,0.0,0.0,0.0,0.0,0.0,0.0,0.0,0.0,0.0,-1.6274,-2.0937,-2.1384,-2.1384,-2.1384,-2.1384,-2.1384,-2.1384,-2.1384,-2.1384,-2.1384,-2.1384,-2.1416,-2.1498,-2.1817,-2.2129,-2.2221,-2.2611,-2.2954,-2.2954,-2.3701,-2.4171,-2.4767,-2.4974,-2.5498,-2.5921,-2.5959,-2.5997,-2.611,-2.6129,-2.6167,-2.6262,-2.6375,-2.6507,-2.6696,-2.7054,-2.7678,-2.8593,-2.9107,-2.989,-3.0834,-3.1211,-3.2071,-3.3473,-3.495,-3.5718,-3.5851,-3.9217,-4.1925,1.0751,1.0751,1.0751,1.0751,1.0751,1.0751,1.0751,1.0751,1.0751,1.0751,1.0751,1.0751,1.0751,1.0751,1.0751,1.0751,1.0751,1.0751,1.0751,1.0751,1.0751,1.0751,1.0751,1.0751,1.0751,1.0751,1.0751,0.9407,0.6719,0.4702,0.2239,-0.0448,-0.2466,-0.3589,-0.3589,-0.3589,-0.3589,-0.3589,-0.3589,-0.3589,-0.3589,-0.3589,-0.3589,-0.3589,-0.3589,-0.3589,-0.3589,-0.3589,-0.3814,-0.4264,-0.4488,-0.4936,-0.6057,-0.6281,-0.6505,0.0,-0.7175,0.0,0.0,0.0,0.0,0.0,0.0,0.0,0.0,-1.3172,-1.6495,-2.0937,-2.1384,-2.1384,-2.1384,-2.1384,-2.1384,-2.1384,-2.1384,-2.1392,-2.1416,-2.1425,-2.149,-2.1676,-2.1717,-2.179,-2.1944,-2.2115,-2.2229,-2.2465,-2.2801,-2.3522,-2.4541,-2.4723,-2.524,-2.6101,-2.6129,-2.611,-2.6129,-2.6158,-2.6243,-2.6403,-2.6517,-2.6649,-2.6999,-2.7093,-2.7407,-2.8295,-2.8832,-2.9629,-3.0555,-3.111,-3.1784,-3.2395,-3.2738,-3.325,-3.5192,-3.7835,-3.96,1.0751,1.0751,1.0751,1.0751,1.0751,1.0751,1.0751,1.0751,1.0751,1.0751,1.0751,1.0751,1.0751,1.0751,1.0751,1.0751,1.0751,1.0751,1.0751,1.0751,1.0751,1.0751,1.0751,1.0751,1.0751,1.0751,1.0751,0.8507,0.4254,0.3806,0.1344,-0.2916,-0.3365,-0.3589,-0.3589,0.0,0.0,0.0,-0.3589,-0.3589,-0.3589,-0.3589,-0.3589,-0.3589,-0.3589,0.0,-0.3589,-0.3589,-0.3589,-0.3814,-0.4264,0.0,0.0,0.0,0.0,0.0,0.0,0.0,0.0,0.0,0.0,0.0,-0.7175,-0.8287,-1.0508,-1.4725,-1.8274,-2.1156,-2.1384,-2.1384,-2.1384,-2.1384,-2.1384,-2.1384,-2.1384,-2.1441,-2.1587,-2.1611,-2.1676,-2.1855,-2.2001,-2.2099,-2.2147,-2.2302,-2.2407,-2.2407,-2.2678,-2.2917,-2.3564,-2.4464,-2.5397,-2.5891,-2.6129,-2.6129,-2.6129,-2.6281,-2.6385,-2.6479,-2.6753,-2.6961,-2.7074,-2.7216,-2.7559,-2.8114,-2.8961,-2.9792,-3.0597,-3.1364,-3.2129,-3.2247,-3.2409,-3.2786,-3.3269,-3.545,-3.7407,1.0886,0.0,1.0886,1.0861,0.0,1.082,1.0796,1.0751,1.0751,1.0751,1.0751,1.0751,1.0751,1.0751,1.0751,1.0751,1.0751,1.0751,1.0751,1.0751,1.0751,1.0751,1.0751,1.0751,1.0751,1.0751,1.0751,0.8957,0.5375,0.4254,0.1792,-0.1794,-0.2917,-0.3589,-0.3589,-0.3589,-0.3589,-0.3589,-0.3589,-0.3589,-0.3589,-0.3589,-0.3589,-0.3589,0.0,0.0,0.0,0.0,0.0,0.0,0.0,0.0,0.0,0.0,0.0,-0.6729,-0.6951,-0.7175,-0.7175,-0.7175,-0.7175,-0.7175,-0.7175,-0.8734,-1.2284,-1.4725,-1.7605,-2.0945,-2.1384,-2.1384,-2.1384,-2.1384,-2.1416,-2.1506,-2.1522,-2.1595,-2.1758,-2.1798,-2.1863,-2.2034,-2.2139,-2.2221,-2.2318,-2.2399,-2.2464,-2.2464,-2.2464,-2.2703,-2.3394,-2.4067,-2.4976,-2.5901,-2.6129,-2.6177,-2.6271,-2.6366,-2.6545,-2.6725,-2.6942,-2.7103,-2.7207,-2.7311,-2.7654,-2.8,-2.8819,-2.9663,-3.0403,-3.1363,-3.229,-3.2409,-3.2527,-3.2603,-3.2603,-3.3819,-3.5287,1.1024,1.1024,1.1024,1.098,1.0914,1.0914,1.0861,1.0775,0.0,0.0,0.0,1.0751,1.0751,1.0751,1.0751,1.0751,1.0751,1.0751,1.0751,1.0751,1.0751,1.0751,1.0751,1.0751,1.0751,1.0751,1.0751,0.9407,0.6495,0.4478,0.2239,-0.0672,-0.2691,-0.3589,-0.3589,-0.3589,-0.3589,-0.3589,-0.3589,-0.3589,-0.3589,-0.3589,-0.3589,-0.3589,-0.3589,-0.3589,-0.3589,-0.3589,-0.3589,-0.3589,-0.3589,-0.3814,-0.4488,-0.4935,-0.5607,-0.6281,-0.6729,-0.718,-0.7188,-0.7191,-0.7194,-0.7205,-0.7207,-0.9205,-1.3843,-1.4282,-1.6274,-2.0937,-2.1408,-2.1433,-2.1433,-2.1465,-2.1538,-2.1693,-2.1709,-2.1782,-2.1944,-2.1985,-2.205,-2.2204,-2.2245,-2.2294,-2.244,-2.2464,-2.2464,-2.2464,-2.2464,-2.2695,-2.3386,-2.4067,-2.4976,-2.5891,-2.6177,-2.6252,-2.6403,-2.6545,-2.6696,-2.6989,-2.7093,-2.7197,-2.733,-2.7405,-2.75,-2.7651,-2.8696,-2.9642,-3.0189,-3.1306,-3.2387,-3.257,-3.2603,-3.2603,-3.2603,-3.3098,-3.383,1.1024,1.1024,1.1024,1.1016,1.1004,1.1008,1.0955,1.0865,1.0788,1.0751,1.0751,1.0751,1.0751,1.0751,1.0751,1.0751,1.0751,1.0751,1.0751,0.0,1.0751,1.0751,1.0751,1.0751,1.0751,1.0751,1.0751,0.8507,0.4478,0.3806,0.1344,-0.2467,-0.3365,-0.3589,-0.3589,-0.3589,-0.3589,-0.3589,-0.3589,-0.3589,-0.3589,-0.3589,-0.3589,-0.3589,-0.3589,-0.3589,-0.3589,-0.3589,-0.3589,-0.3589,-0.3589,-0.3814,-0.4488,-0.449,-0.5161,-0.6281,-0.6281,-0.675,-0.7248,-0.7254,-0.7275,-0.7324,-0.7333,-0.9324,-1.3854,-1.4282,-1.6274,-2.0717,-2.153,-2.1628,-2.1628,-2.1758,-2.1847,-2.1888,-2.1896,-2.1969,-2.2131,-2.2156,-2.2221,-2.2391,-2.2424,-2.2424,-2.2456,-2.2464,-2.2464,-2.2464,-2.2464,-2.2925,-2.3837,-2.4746,-2.5205,-2.5919,-2.629,-2.6403,-2.6517,-2.6772,-2.697,-2.7065,-2.7226,-2.733,-2.7396,-2.7528,-2.766,-2.7708,-2.894,-3.0169,-3.029,-3.1432,-3.228,-3.2603,-3.2603,-3.2603,-3.2603,-3.2851,-3.3346,1.1167,1.1167,1.1167,1.1143,1.1098,1.1049,1.1004,1.0959,1.0918,1.0845,1.0755,1.0751,1.0751,1.0751,1.0751,1.0751,1.0751,1.0751,1.0751,1.0751,1.0751,1.0751,1.0751,1.0751,1.0751,1.0751,1.0751,0.9631,0.7387,0.4927,0.2463,0.0224,-0.2243,-0.3589,-0.3589,-0.3589,-0.3589,-0.3589,-0.3589,-0.3589,-0.3589,-0.3589,-0.3589,-0.3589,-0.3589,-0.3589,-0.3589,-0.3589,-0.3598,-0.3614,-0.3614,-0.3848,-0.4093,-0.432,-0.5002,-0.5913,-0.614,-0.6604,-0.7314,-0.7314,-0.7324,-0.7354,-0.7357,-0.8701,-1.2236,-1.3803,-1.6503,-2.1008,-2.1766,-2.1806,-2.1814,-2.1888,-2.1969,-2.2066,-2.2074,-2.2147,-2.2302,-2.2342,-2.2375,-2.2456,-2.2464,-2.2464,-2.2464,-2.2464,-2.2464,-2.2464,-2.2464,-2.2925,-2.3607,-2.4288,-2.5021,-2.6051,-2.6385,-2.6555,-2.6744,-2.6933,-2.7112,-2.7216,-2.7311,-2.7424,-2.7519,-2.766,-2.7783,-2.7991,-2.9185,-3.031,-3.0431,-3.1536,-3.2344,-3.2603,-3.2603,-3.2603,-3.2603,-3.3098,-3.3841,1.1286,1.1286,1.1286,1.1249,1.1188,1.1114,1.1073,1.1057,1.1057,1.0963,1.0824,1.0812,1.0804,1.0784,1.0784,1.0771,1.0755,1.0751,1.0751,1.0751,1.0751,1.0751,1.0751,1.0751,1.0751,1.0751,1.0751,1.0304,0.8734,0.5373,0.2911,0.1792,-0.1794,-0.3594,-0.3599,-0.36,-0.3603,-0.361,-0.361,-0.3603,-0.3591,-0.3589,-0.3594,-0.3599,-0.36,-0.3603,-0.361,-0.361,-0.3621,-0.3643,-0.3645,-0.3656,-0.3678,-0.4139,-0.4829,-0.5518,-0.5979,-0.6446,-0.7376,-0.739,-0.7398,-0.7398,-0.7398,-0.8545,-1.0832,-1.3349,-1.6523,-2.0358,-2.151,-2.1993,-2.2001,-2.2042,-2.2107,-2.2237,-2.2253,-2.231,-2.244,-2.2464,-2.2464,-2.2464,-2.2464,-2.2464,-2.2464,-2.2464,-2.2464,-2.2464,-2.2464,-2.2695,-2.3386,-2.3863,-2.4899,-2.5747,-2.6285,-2.6659,-2.7008,-2.7122,-2.7207,-2.7367,-2.7424,-2.7528,-2.766,-2.7755,-2.7934,-2.8237,-2.9341,-3.0184,-3.0583,-3.1609,-3.2355,-3.2603,-3.2603,-3.2603,-3.2603,-3.3594,-3.4582,1.1286,1.1286,1.1286,1.1286,1.1274,1.1261,1.1216,1.1155,1.1151,1.1094,1.1004,1.1,1.0955,1.0886,1.0877,1.0837,1.0763,1.0755,1.0759,1.0759,1.0751,1.0751,1.0763,1.0759,1.0751,1.0759,1.0763,0.852,0.4933,0.3811,0.1345,-0.2467,-0.3365,-0.3606,-0.3628,-0.3632,-0.3644,-0.3671,-0.3671,-0.3645,-0.3594,-0.3589,-0.3603,-0.363,-0.363,-0.3644,-0.3667,-0.3673,-0.3673,-0.3677,-0.3677,-0.3678,-0.3682,-0.3681,-0.4371,-0.5292,-0.552,-0.5997,-0.7204,-0.7491,-0.7515,-0.7521,-0.7515,-0.8444,-1.1004,-1.3561,-1.5791,-1.8382,-2.0705,-2.2164,-2.218,-2.2302,-2.2391,-2.2407,-2.2424,-2.2456,-2.2464,-2.2464,-2.2464,-2.2464,-2.2464,-2.2464,-2.2464,-2.2464,-2.2464,-2.2464,-2.2464,-2.2703,-2.3172,-2.3975,-2.4828,-2.5706,-2.6248,-2.6829,-2.7056,-2.7235,-2.732,-2.7386,-2.7537,-2.766,-2.7764,-2.8001,-2.8293,-2.8331,-2.9468,-3.0573,-3.0842,-3.162,-3.2603,-3.2603,-3.2603,-3.2603,-3.2851,-3.3594,-3.4582,1.1286,1.1286,1.1286,1.1286,1.1286,1.1286,1.1269,1.1241,1.1237,1.1216,1.1184,1.118,1.1102,1.0971,1.0967,1.0947,1.0914,1.0914,1.0914,1.0914,1.0914,1.0914,1.0914,1.0914,1.0914,1.0688,0.9543,0.7723,0.5679,0.2954,-0.0455,-0.3415,-0.3644,-0.3649,-0.3662,-0.3662,-0.3669,-0.3681,-0.3681,-0.3669,-0.3647,-0.3644,-0.3649,-0.366,-0.3662,-0.3667,-0.3679,-0.3681,-0.3689,-0.3705,-0.3708,-0.3716,-0.3734,-0.3734,-0.42,-0.56,-0.6299,-0.7008,-0.7499,-0.7523,-0.7537,-0.7537,-0.7537,-0.8007,-0.9172,-1.2667,-1.5414,-1.6501,-1.9993,-2.2359,-2.2359,-2.2424,-2.2464,-2.2464,-2.2464,-2.2464,-2.2464,-2.2464,-2.2464,-2.2464,-2.2464,-2.2464,-2.2464,-2.2464,-2.2464,-2.2464,-2.2464,-2.2695,-2.2942,-2.3769,-2.4657,-2.5302,-2.6142,-2.7027,-2.7207,-2.7311,-2.7377,-2.7415,-2.7556,-2.7708,-2.7897,-2.8104,-2.835,-2.8464,-2.9806,-3.0623,-3.0613,-3.1609,-3.2603,-3.2603,-3.2603,-3.2603,-3.2603,-3.3594,-3.4335,1.1524,1.1286,1.1286,1.1286,1.1286,1.1286,1.1286,1.1286,1.1286,1.1286,1.1286,1.1286,1.122,1.1106,1.1073,1.1049,1.1024,1.1024,1.1024,1.1024,1.1024,1.1024,1.1024,1.1024,1.1024,1.0792,0.9179,0.757,0.5964,0.1377,-0.2069,-0.345,-0.3681,-0.3685,-0.3692,-0.3693,-0.3697,-0.3705,-0.3705,-0.3705,-0.3705,-0.3705,-0.3701,-0.3694,-0.3693,-0.3697,-0.3705,-0.3705,-0.3716,-0.3737,-0.3738,-0.3749,-0.3769,-0.3772,-0.4479,-0.5655,-0.6831,-0.7537,-0.7537,-0.7537,-0.7537,-0.7537,-0.7537,-0.7537,-0.8239,-1.2205,-1.4761,-1.5459,-1.9661,-2.2456,-2.2464,-2.2464,-2.2464,-2.2464,-2.2464,-2.2464,-2.2464,-2.2464,-2.2464,-2.2464,-2.2464,-2.2464,-2.2464,-2.2464,-2.2464,-2.2464,-2.2464,-2.2497,-2.2785,-2.3855,-2.4736,-2.492,-2.6308,-2.7197,-2.7348,-2.7377,-2.7386,-2.7509,-2.766,-2.7868,-2.8057,-2.8265,-2.8416,-2.8549,-2.9855,-3.0623,-3.0623,-3.162,-3.2603,-3.2603,-3.2603,-3.2603,-3.2603,-3.3841,-3.4335,1.1758,1.1286,1.1286,1.1286,1.1286,1.1286,1.1286,1.1286,1.1286,1.1286,1.1286,1.1286,1.1282,1.1261,1.1188,1.111,1.1037,1.1037,1.1041,1.1041,1.1037,1.1029,1.1024,1.1024,1.1029,1.1049,1.0361,0.8046,0.3675,-0.092,-0.3681,-0.3682,-0.3686,-0.3697,-0.372,-0.3724,-0.3738,-0.3759,-0.3761,-0.3764,-0.3765,-0.3765,-0.375,-0.3727,-0.3724,-0.3737,-0.376,-0.3765,-0.3767,-0.3768,-0.3768,-0.3769,-0.3772,-0.3772,-0.4477,-0.5655,-0.6831,-0.7537,-0.7537,-0.7537,-0.7537,-0.7537,-0.7537,-0.7537,-0.7772,-1.2205,-1.4761,-1.4994,-1.9654,-2.2464,-2.2464,-2.2464,-2.2464,-2.2464,-2.2464,-2.2464,-2.2464,-2.2464,-2.2464,-2.2464,-2.2464,-2.2464,-2.2464,-2.2464,-2.2464,-2.2472,-2.2472,-2.2521,-2.2908,-2.4017,-2.492,-2.5342,-2.6235,-2.7367,-2.7377,-2.7377,-2.7471,-2.7613,-2.7783,-2.8029,-2.8265,-2.8454,-2.8549,-2.8865,-2.9875,-3.0623,-3.0873,-3.1371,-3.2355,-3.2603,-3.2603,-3.2603,-3.2851,-3.3841,-3.4582,1.1758,1.1286,1.1286,1.1286,1.1286,1.1286,1.1286,1.1286,1.1286,1.1286,1.1286,1.1286,1.1286,1.1286,1.1257,1.1225,1.1196,1.1196,1.1196,1.1196,1.1192,1.1192,1.1196,1.1192,1.1192,1.096,0.9561,0.6292,0.1398,-0.2101,-0.3738,-0.3738,-0.3739,-0.3745,-0.3753,-0.3756,-0.3761,-0.3771,-0.3772,-0.3772,-0.3772,-0.3772,-0.3765,-0.3756,-0.3754,-0.376,-0.3771,-0.3772,-0.3772,-0.3772,-0.3772,-0.3772,-0.4008,-0.4477,-0.5184,-0.5655,-0.6831,-0.7537,-0.7537,-0.7537,-0.7537,-0.7537,-0.7537,-0.7537,-0.8239,-1.1971,-1.4994,-1.5924,-1.9654,-2.2234,-2.2464,-2.2464,-2.2464,-2.2464,-2.2464,-2.2464,-2.2464,-2.2464,-2.2464,-2.2464,-2.2464,-2.2464,-2.2464,-2.2464,-2.2464,-2.248,-2.2562,-2.2651,-2.2974,-2.4136,-2.5078,-2.5413,-2.652,-2.7377,-2.7377,-2.7377,-2.7452,-2.766,-2.7859,-2.8067,-2.8293,-2.8492,-2.8605,-2.8865,-2.9625,-3.0623,-3.0873,-3.1609,-3.2355,-3.2603,-3.2603,-3.2851,-3.3098,-3.4088,-3.4582,1.1754,1.1286,1.1286,1.1286,1.1286,1.1286,1.1286,1.1286,1.1286,1.1286,1.1286,1.1286,1.1286,1.1286,1.1286,1.1286,1.1286,1.1286,1.1286,1.1286,1.1286,1.1286,1.1286,1.1286,1.1286,1.0817,0.87,0.5171,0.1411,-0.1412,-0.2827,-0.3771,-0.3772,-0.3772,-0.3772,-0.3772,-0.3772,-0.3772,-0.3772,-0.3772,-0.3772,-0.3772,-0.3772,-0.3772,-0.3772,-0.3772,-0.3772,-0.3772,-0.3772,-0.3772,-0.3772,-0.3772,-0.4008,-0.4713,-0.5419,-0.5655,-0.6596,-0.7302,-0.7537,-0.7537,-0.7537,-0.7537,-0.7537,-0.7537,-0.7772,-1.1269,-1.3834,-1.5697,-1.8496,-2.1533,-2.2234,-2.2464,-2.2464,-2.2464,-2.2464,-2.2464,-2.2464,-2.2464,-2.2464,-2.2464,-2.2464,-2.2464,-2.2464,-2.2464,-2.2464,-2.2464,-2.2618,-2.2724,-2.3072,-2.423,-2.5201,-2.5502,-2.6566,-2.7128,-2.7415,-2.7452,-2.7585,-2.7793,-2.7982,-2.8171,-2.8331,-2.852,-2.8615,-2.8875,-2.9625,-3.0374,-3.1371,-3.2106,-3.2355,-3.2603,-3.2603,-3.2851,-3.3346,-3.4077,-3.4829,1.1758,1.1286,1.1286,1.1286,1.1286,1.1286,1.1286,1.1286,1.1286,1.1286,1.1286,1.1286,1.1286,1.1286,1.1286,1.1286,1.1286,1.1286,1.1286,1.1286,1.1286,1.1286,1.1286,1.1286,1.1286,1.1051,0.87,0.6112,0.3526,0.0941,-0.1412,-0.3535,-0.3772,-0.3772,-0.3772,-0.3772,-0.3772,-0.3772,-0.3772,-0.3772,-0.3772,-0.3772,-0.3772,-0.3772,-0.3772,-0.3772,-0.3772,-0.3772,-0.3772,-0.3772,-0.3772,-0.3772,-0.3772,-0.4477,-0.4947,-0.5655,-0.6358,-0.6829,-0.7537,-0.7537,-0.7537,-0.7537,-0.7537,-0.7537,-0.8004,-1.0103,-1.2667,-1.4994,-1.733,-1.9893,-2.1995,-2.2464,-2.2464,-2.2464,-2.2464,-2.2464,-2.2464,-2.2464,-2.2464,-2.2464,-2.2464,-2.2464,-2.2464,-2.2464,-2.2464,-2.2497,-2.2635,-2.2805,-2.2951,-2.4341,-2.5254,-2.5626,-2.6408,-2.7377,-2.7462,-2.7556,-2.7755,-2.7953,-2.8142,-2.8322,-2.8454,-2.8615,-2.8615,-2.8875,-2.9625,-3.0623,-3.1858,-3.2355,-3.2355,-3.2603,-3.2603,-3.2851,-3.3594,-3.4335,-3.4829,1.1754,1.1286,1.1286,1.1286,1.1286,1.1286,1.1286,1.1286,1.1286,1.1286,1.1286,1.1286,1.1286,1.1286,1.1286,1.1286,1.1286,1.1286,1.1286,1.1286,1.1286,1.1286,1.1286,1.1286,1.1286,1.0817,0.87,0.6347,0.3761,0.1176,-0.1177,-0.33,-0.3772,-0.3772,-0.3772,-0.3772,-0.3772,-0.3772,-0.3772,-0.3772,-0.3772,-0.3772,-0.3772,-0.3772,-0.3772,-0.3772,-0.3772,-0.3772,-0.3772,-0.3772,-0.3772,-0.3772,-0.4006,-0.4477,-0.4947,-0.5655,-0.6358,-0.6829,-0.7302,-0.7537,-0.7537,-0.7537,-0.7537,-0.7537,-0.7772,-0.9872,-1.22,-1.4766,-1.7324,-1.9661,-2.1764,-2.2464,-2.2464,-2.2464,-2.2464,-2.2464,-2.2464,-2.2464,-2.2464,-2.2464,-2.2464,-2.2464,-2.2472,-2.2472,-2.2489,-2.2521,-2.2732,-2.2951,-2.3261,-2.4452,-2.5368,-2.5697,-2.6658,-2.7386,-2.7443,-2.7613,-2.7859,-2.8029,-2.8218,-2.8407,-2.8549,-2.8624,-2.8624,-2.9125,-2.9875,-3.0873,-3.2106,-3.2603,-3.2603,-3.2603,-3.2603,-3.3098,-3.4088,-3.4582,-3.5075,1.2227,1.1524,1.129,1.1286,1.1286,1.1286,1.1286,1.1286,1.1286,1.1286,1.1286,1.1286,1.1286,1.1286,1.1286,1.1286,1.1286,1.1286,1.1286,1.1286,1.1286,1.1286,1.1286,1.1286,1.1286,1.1051,0.9641,0.7051,0.3761,0.2116,-0.0235,-0.33,-0.3772,-0.3772,-0.3772,-0.3772,-0.3772,-0.3772,-0.3772,-0.3772,-0.3772,-0.3772,-0.3772,-0.3772,-0.3772,-0.3772,-0.3772,-0.3772,-0.3772,-0.3772,-0.3772,-0.3772,-0.3772,-0.4242,-0.4713,-0.5655,-0.6125,-0.6596,-0.7302,-0.7537,-0.7537,-0.7537,-0.7537,-0.7537,-0.7772,-0.9172,-1.1269,-1.4528,-1.6395,-1.8721,-2.1764,-2.2464,-2.2464,-2.2464,-2.2464,-2.2464,-2.2464,-2.2464,-2.2464,-2.2464,-2.2464,-2.2497,-2.2545,-2.2562,-2.2594,-2.2683,-2.2911,-2.3098,-2.3384,-2.4546,-2.5155,-2.5706,-2.6658,-2.7147,-2.7415,-2.7641,-2.7953,-2.8114,-2.8265,-2.8435,-2.8596,-2.8615,-2.8624,-2.9375,-3.0374,-3.1122,-3.2106,-3.2355,-3.2603,-3.2603,-3.2603,-3.3346,-3.4088,-3.4335,-3.4829,1.2929,1.2222,1.1524,1.129,1.1286,1.1286,1.1286,1.1286,1.1286,1.1286,1.1286,1.1286,1.1286,1.1286,1.1286,1.1286,1.1286,1.1286,1.1286,1.1286,1.1286,1.1286,1.1286,1.1286,1.1286,1.1286,1.1051,0.8462,0.3996,0.3526,0.1176,-0.33,-0.3772,-0.3772,-0.3772,-0.3772,-0.3772,-0.3772,-0.3772,-0.3772,-0.3772,-0.3772,-0.3772,-0.3772,-0.3772,-0.3772,-0.3772,-0.3772,-0.3772,-0.3772,-0.3772,-0.3772,-0.3772,-0.3772,-0.4477,-0.5655,-0.5655,-0.6361,-0.7302,-0.7537,-0.7537,-0.7537,-0.7537,-0.7537,-0.7537,-0.8004,-1.0107,-1.4295,-1.5226,-1.733,-2.1295,-2.2464,-2.2464,-2.2464,-2.2464,-2.2464,-2.2464,-2.2464,-2.248,-2.2497,-2.2497,-2.2545,-2.2708,-2.274,-2.2813,-2.2935,-2.3106,-2.3195,-2.3737,-2.4572,-2.543,-2.5946,-2.6897,-2.7203,-2.7481,-2.7717,-2.801,-2.819,-2.8331,-2.8492,-2.8605,-2.8865,-2.9125,-2.9875,-3.0623,-3.136,-3.2106,-3.2355,-3.2603,-3.2603,-3.2851,-3.3346,-3.3841,-3.4335,-3.5075,1.3163,1.2227,1.1993,1.1754,1.1286,1.1286,1.1286,1.1286,1.1286,1.1286,1.1286,1.1286,1.1286,1.1286,1.1286,1.1286,1.1286,1.1286,1.1286,1.1286,1.1286,1.1286,1.1286,1.1286,1.1286,1.1286,1.1051,0.8696,0.4231,0.3761,0.1176,-0.3535,-0.3772,-0.3772,-0.3772,-0.3772,-0.3772,-0.3772,-0.3772,-0.3772,-0.3772,-0.3772,-0.3772,-0.3772,-0.3772,-0.3772,-0.3772,-0.3772,-0.3772,-0.3772,-0.3772,-0.3772,-0.3772,-0.3772,-0.4243,-0.5419,-0.5655,-0.6125,-0.7302,-0.7537,-0.7537,-0.7537,-0.7537,-0.7537,-0.7537,-0.7537,-1.0107,-1.3834,-1.4994,-1.7092,-2.1295,-2.2464,-2.2464,-2.2464,-2.248,-2.248,-2.248,-2.2472,-2.2513,-2.2627,-2.2651,-2.2748,-2.287,-2.2927,-2.2951,-2.3041,-2.3154,-2.3515,-2.4051,-2.4606,-2.5465,-2.6177,-2.6916,-2.725,-2.7613,-2.784,-2.8057,-2.8256,-2.8416,-2.8558,-2.8865,-2.9115,-2.9625,-3.0374,-3.0873,-3.1609,-3.2106,-3.2603,-3.2603,-3.2603,-3.2851,-3.3346,-3.4088,-3.4582,-3.5322,1.363,1.2695,1.2227,1.1758,1.1286,1.1286,1.1286,1.1286,1.1286,1.1286,1.1286,1.1286,1.1286,1.1286,1.1286,1.1286,1.1286,1.1286,1.1286,1.1286,1.1286,1.1286,1.1286,1.1286,1.1286,1.1286,1.1286,0.8459,0.4701,0.3761,0.0941,-0.2827,-0.3772,-0.3772,-0.3772,-0.3772,-0.3772,-0.3772,-0.3772,-0.3772,-0.3772,-0.3772,-0.3772,-0.3772,-0.3772,-0.3772,-0.3772,-0.3772,-0.3772,-0.3772,-0.3772,-0.3772,-0.3772,-0.3772,-0.4242,-0.5184,-0.5419,-0.6125,-0.6831,-0.7302,-0.7537,-0.7537,-0.7537,-0.7537,-0.7537,-0.7537,-0.9407,-1.2667,-1.43,-1.6859,-2.0124,-2.1764,-2.2464,-2.2472,-2.2529,-2.257,-2.2578,-2.2578,-2.2659,-2.2781,-2.2846,-2.2903,-2.3081,-2.3106,-2.3146,-2.3219,-2.3325,-2.3614,-2.4118,-2.4932,-2.5706,-2.6418,-2.6925,-2.725,-2.7651,-2.7868,-2.8104,-2.8303,-2.8464,-2.8615,-2.8875,-2.9115,-2.9865,-3.0613,-3.1112,-3.1858,-3.2355,-3.2603,-3.2603,-3.2603,-3.2851,-3.3346,-3.4088,-3.4829,-3.5568,1.3864,1.3163,1.2461,1.1988,1.1524,1.1286,1.1286,1.1286,1.1286,1.1286,1.1286,1.1286,1.1286,1.1286,1.1286,1.1286,1.1286,1.1286,1.1286,1.1286,1.1286,1.1286,1.1286,1.1286,1.1286,1.1286,1.1286,0.8227,0.4936,0.3761,0.0941,-0.2592,-0.3772,-0.3772,-0.3772,-0.3772,-0.3772,-0.3772,-0.3772,-0.3772,-0.3772,-0.3772,-0.3772,-0.3772,-0.3772,-0.3772,-0.3772,-0.3772,-0.3772,-0.3772,-0.3772,-0.3772,-0.3772,-0.3772,-0.4242,-0.4711,-0.5419,-0.589,-0.6594,-0.7302,-0.7537,-0.7537,-0.7537,-0.7537,-0.7537,-0.7537,-0.8706,-1.1503,-1.3596,-1.6395,-1.9423,-2.1295,-2.2258,-2.2521,-2.2643,-2.2716,-2.2765,-2.2765,-2.2822,-2.2992,-2.3016,-2.3106,-2.3219,-2.3293,-2.3333,-2.3366,-2.3447,-2.3936,-2.4425,-2.519,-2.5946,-2.6658,-2.7175,-2.7481,-2.7679,-2.7897,-2.8123,-2.8341,-2.8501,-2.8615,-2.8875,-2.9115,-2.9865,-3.0613,-3.136,-3.1858,-3.2355,-3.2603,-3.2603,-3.2851,-3.2851,-3.3594,-3.4335,-3.5075,-3.5568,1.457,1.3864,1.3163,1.2695,1.1988,1.152,1.1286,1.1286,1.1286,1.1286,1.1286,1.1286,1.1286,1.1286,1.1286,1.1286,1.1286,1.1286,1.1286,1.1286,1.1286,1.1286,1.1286,1.1286,1.1286,1.1286,1.1286,0.8696,0.4936,0.3526,0.1176,-0.3063,-0.3771,-0.3772,-0.3772,-0.3772,-0.3772,-0.3772,-0.3772,-0.3772,-0.3772,-0.3772,-0.3772,-0.3772,-0.3772,-0.3772,-0.3772,-0.3772,-0.3772,-0.3772,-0.3772,-0.3772,-0.3772,-0.3772,-0.4006,-0.4713,-0.5184,-0.589,-0.6594,-0.7064,-0.7537,-0.7537,-0.7537,-0.7537,-0.7537,-0.7537,-0.8706,-1.1036,-1.3596,-1.6859,-2.0825,-2.2003,-2.2529,-2.2618,-2.2708,-2.2846,-2.3041,-2.3016,-2.3025,-2.3146,-2.3203,-2.3268,-2.3439,-2.3447,-2.3479,-2.3528,-2.377,-2.4011,-2.4743,-2.5224,-2.5946,-2.6897,-2.7156,-2.749,-2.7812,-2.8019,-2.8246,-2.8407,-2.8539,-2.8615,-2.8875,-2.9375,-3.0125,-3.0863,-3.1609,-3.2106,-3.2603,-3.2603,-3.2603,-3.2851,-3.3098,-3.3841,-3.4582,-3.5075,-3.5814,1.4565,1.4098,1.363,1.3163,1.2222,1.1758,1.1524,1.1286,1.1286,1.1286,1.1286,1.1286,1.1286,1.1286,1.1286,1.1286,1.1286,1.1286,1.1286,1.1286,1.1286,1.1286,1.1286,1.1286,1.1286,1.1286,1.1286,0.8934,0.6347,0.3996,0.1881,-0.1884,-0.3063,-0.3771,-0.3772,-0.3772,-0.3772,-0.3772,-0.3772,-0.3772,-0.3772,-0.3772,-0.3772,-0.3772,-0.3772,-0.3772,-0.3772,-0.3772,-0.3772,-0.3772,-0.3772,-0.3772,-0.3772,-0.3772,-0.4006,-0.4242,-0.4947,-0.5419,-0.6123,-0.6829,-0.7302,-0.7537,-0.7537,-0.7537,-0.7537,-0.7537,-0.8004,-0.9872,-1.2901,-1.7092,-2.1764,-2.2464,-2.2553,-2.2692,-2.2805,-2.2968,-2.3171,-2.3171,-2.3187,-2.3325,-2.3382,-2.3422,-2.3496,-2.352,-2.3528,-2.3528,-2.3528,-2.4011,-2.4984,-2.5465,-2.6186,-2.6897,-2.7137,-2.7528,-2.7897,-2.8171,-2.8397,-2.8511,-2.8577,-2.8624,-2.8624,-2.9625,-3.0623,-3.1122,-3.162,-3.2355,-3.2603,-3.2603,-3.2603,-3.2851,-3.3346,-3.3841,-3.4829,-3.5568,-3.606,1.4804,1.4337,1.4098,1.3397,1.2461,1.2227,1.1758,1.1286,1.1286,1.1286,1.1286,1.1286,1.1286,1.1286,1.1286,1.1286,1.1286,1.1286,1.1286,1.1286,1.1286,1.1286,1.1286,1.1286,1.1286,1.1286,1.1286,0.9641,0.6817,0.4701,0.1881,-0.0706,-0.2591,-0.3771,-0.3772,-0.3772,-0.3772,-0.3772,-0.3772,-0.3772,-0.3772,-0.3772,-0.3772,-0.3772,-0.3772,-0.3772,-0.3772,-0.3772,-0.3772,-0.3772,-0.3772,-0.3772,-0.3772,-0.3772,-0.3772,-0.3772,-0.4477,-0.5184,-0.5655,-0.6358,-0.6829,-0.7537,-0.7537,-0.7537,-0.7537,-0.7537,-0.7537,-0.9172,-1.1971,-1.7092,-2.1764,-2.2464,-2.257,-2.274,-2.2919,-2.3081,-2.3244,-2.3293,-2.3374,-2.3463,-2.3479,-2.3496,-2.3512,-2.3528,-2.3528,-2.3528,-2.3528,-2.4011,-2.4984,-2.5706,-2.6186,-2.6897,-2.7377,-2.7556,-2.7915,-2.8293,-2.852,-2.8568,-2.8624,-2.8624,-2.8875,-2.9625,-3.0623,-3.0873,-3.1371,-3.2106,-3.2603,-3.2603,-3.2603,-3.2851,-3.3346,-3.4335,-3.5075,-3.5814,-3.6305,1.5037,1.4804,1.4337,1.363,1.2929,1.2461,1.1993,1.1286,1.1286,1.1286,1.1286,1.1286,1.1286,1.1286,1.1286,1.1286,1.1286,1.1286,1.1286,1.1286,1.1286,1.1286,1.1286,1.1286,1.1286,1.1286,1.1051,0.9169,0.5877,0.3761,0.1646,-0.212,-0.3535,-0.3772,-0.3772,-0.3772,-0.3772,-0.3772,-0.3772,-0.3772,-0.3772,-0.3772,-0.3772,-0.3772,-0.3772,-0.3772,-0.3772,-0.3772,-0.3772,-0.3772,-0.3772,-0.3772,-0.3772,-0.3772,-0.3772,-0.4006,-0.4242,-0.4948,-0.5655,-0.6123,-0.6829,-0.7302,-0.7537,-0.7537,-0.7537,-0.7537,-0.7769,-0.9407,-1.2438,-1.7092,-2.1995,-2.2464,-2.2635,-2.2838,-2.2984,-2.313,-2.3374,-2.3463,-2.3463,-2.352,-2.3528,-2.3528,-2.3528,-2.3528,-2.3528,-2.3528,-2.3528,-2.4011,-2.5224,-2.5706,-2.6186,-2.6667,-2.7377,-2.7632,-2.7934,-2.8312,-2.8605,-2.8596,-2.8624,-2.8865,-2.9365,-3.0125,-3.0623,-3.1122,-3.162,-3.2355,-3.2603,-3.2603,-3.2603,-3.2603,-3.3594,-3.4582,-3.5075,-3.5568,-3.6305,1.5037,1.5037,1.457,1.4331,1.363,1.2929,1.2461,1.1758,1.1524,1.1286,1.1286,1.1286,1.1286,1.1286,1.1286,1.1286,1.1286,1.1286,1.1286,1.1286,1.1286,1.1286,1.1286,1.1286,1.1286,1.1286,1.1051,0.9403,0.5877,0.4466,0.1646,-0.1177,-0.3063,-0.3772,-0.3772,-0.3772,-0.3772,-0.3772,-0.3772,-0.3772,-0.3772,-0.3772,-0.3772,-0.3772,-0.3772,-0.3772,-0.3772,-0.3772,-0.3772,-0.3772,-0.3772,-0.3772,-0.3772,-0.3772,-0.3772,-0.3772,-0.4006,-0.4713,-0.5419,-0.6123,-0.6596,-0.7302,-0.7537,-0.7537,-0.7537,-0.7772,-0.8471,-1.1269,-1.2901,-1.7092,-2.1995,-2.2464,-2.2643,-2.2903,-2.3,-2.3171,-2.3414,-2.3504,-2.3528,-2.3528,-2.3528,-2.3528,-2.3528,-2.3528,-2.3528,-2.3528,-2.3528,-2.4252,-2.5224,-2.5706,-2.5946,-2.6962,-2.7481,-2.7726,-2.801,-2.8331,-2.8615,-2.8624,-2.8624,-2.9115,-2.9615,-3.0115,-3.0873,-3.1122,-3.1858,-3.2603,-3.2603,-3.2603,-3.2603,-3.2851,-3.3841,-3.4582,-3.4829,-3.5322,-3.6305,1.5037,1.5037,1.5037,1.457,1.4098,1.3397,1.2695,1.2227,1.1524,1.1286,1.1286,1.1286,1.1286,1.1286,1.1286,1.1286,1.1286,1.1286,1.1286,1.1286,1.1286,1.1286,1.1286,1.1286,1.1286,1.1286,1.1286,0.9641,0.6347,0.4701,0.2116,-0.0942,-0.3298,-0.3772,-0.3772,-0.3772,-0.3772,-0.3772,-0.3772,-0.3772,-0.3772,-0.3772,-0.3772,-0.3772,-0.3772,-0.3772,-0.3772,-0.3772,-0.3772,-0.3772,-0.3772,-0.3772,-0.3772,-0.3772,-0.3772,-0.3772,-0.3772,-0.4477,-0.5184,-0.5655,-0.6125,-0.7067,-0.7302,-0.7537,-0.7537,-0.8004,-0.9407,-1.3834,-1.5226,-1.7092,-2.1533,-2.2464,-2.2651,-2.2895,-2.3016,-2.3122,-2.3398,-2.3528,-2.3528,-2.3528,-2.3528,-2.3528,-2.3528,-2.3528,-2.3528,-2.3528,-2.3528,-2.4011,-2.4984,-2.5465,-2.5964,-2.7018,-2.7623,-2.7849,-2.8104,-2.835,-2.8558,-2.8624,-2.8624,-2.8865,-2.9615,-3.0374,-3.0863,-3.1609,-3.2106,-3.2603,-3.2603,-3.2603,-3.2851,-3.3098,-3.3841,-3.4582,-3.5075,-3.5568,-3.6305,1.5037,1.5037,1.5037,1.457,1.4098,1.3397,1.2929,1.2227,1.152,1.1286,1.1286,1.1286,1.1286,1.1286,1.1286,1.1286,1.1286,1.1286,1.1286,1.1286,1.1286,1.1286,1.1286,1.1286,1.1286,1.1286,1.1286,0.8462,0.5875,0.4231,0.1411,-0.2119,-0.3063,-0.3772,-0.3772,-0.3772,-0.3772,-0.3772,-0.3772,-0.3772,-0.3772,-0.3772,-0.3772,-0.3772,-0.3772,-0.3772,-0.3772,-0.3772,-0.3772,-0.3772,-0.3772,-0.3772,-0.3772,-0.3772,-0.3772,-0.3772,-0.3772,-0.4006,-0.4713,-0.5419,-0.589,-0.6596,-0.7064,-0.7537,-0.7537,-0.7772,-0.9407,-1.43,-1.4994,-1.7092,-2.0833,-2.2234,-2.2659,-2.2846,-2.3008,-2.3187,-2.3431,-2.3528,-2.3528,-2.3528,-2.3528,-2.3528,-2.3528,-2.3528,-2.3528,-2.3528,-2.3528,-2.4011,-2.4493,-2.5224,-2.5946,-2.6981,-2.7689,-2.7934,-2.8114,-2.8379,-2.8539,-2.8624,-2.8875,-2.9125,-2.9875,-3.0623,-3.136,-3.1858,-3.2355,-3.2603,-3.2603,-3.2603,-3.2851,-3.3346,-3.4088,-3.4829,-3.5322,-3.606,-3.6551,1.5037,1.5037,1.5037,1.4804,1.457,1.3864,1.3397,1.2695,1.1993,1.152,1.1286,1.1286,1.1286,1.1286,1.1286,1.1286,1.1286,1.1286,1.1286,1.1286,1.1286,1.1286,1.1286,1.1286,1.1286,1.1286,1.1051,0.9641,0.6582,0.4231,0.1646,-0.1177,-0.3063,-0.3772,-0.3772,-0.3772,-0.3772,-0.3772,-0.3772,-0.3772,-0.3772,-0.3772,-0.3772,-0.3772,-0.3772,-0.3772,-0.3772,-0.3772,-0.3772,-0.3772,-0.3772,-0.3772,-0.3772,-0.3772,-0.3772,-0.3772,-0.3772,-0.4006,-0.4711,-0.4947,-0.5653,-0.6358,-0.6829,-0.7064,-0.7302,-0.7772,-0.8941,-1.2434,-1.4295,-1.6859,-1.9893,-2.1533,-2.2443,-2.2862,-2.2992,-2.3228,-2.3414,-2.3479,-2.3528,-2.3528,-2.3528,-2.3528,-2.3528,-2.3528,-2.3528,-2.3528,-2.3528,-2.4011,-2.4734,-2.5456,-2.6418,-2.7147,-2.7679,-2.7982,-2.8142,-2.8341,-2.8539,-2.8624,-2.9115,-2.9615,-3.0374,-3.0873,-3.1609,-3.2106,-3.2355,-3.2603,-3.2603,-3.2603,-3.2851,-3.3346,-3.4088,-3.4829,-3.5568,-3.606,-3.6551,1.5037,1.5037,1.5037,1.5037,1.5037,1.4337,1.363,1.3163,1.2461,1.1758,1.152,1.1286,1.1286,1.1286,1.1286,1.1286,1.1286,1.1286,1.1286,1.1286,1.1286,1.1286,1.1286,1.1286,1.1286,1.1286,1.1286,1.011,0.8227,0.5406,0.2351,-0.0,-0.2591,-0.3535,-0.3772,-0.3772,-0.3772,-0.3772,-0.3772,-0.3772,-0.3772,-0.3772,-0.3772,-0.3772,-0.3772,-0.3772,-0.3772,-0.3772,-0.3772,-0.3772,-0.3772,-0.3772,-0.3772,-0.3772,-0.3772,-0.3772,-0.3772,-0.4006,-0.424,-0.4711,-0.5417,-0.6123,-0.6829,-0.7064,-0.7302,-0.7537,-0.8706,-1.1503,-1.3834,-1.593,-1.849,-2.1064,-2.2426,-2.2846,-2.3,-2.3236,-2.3431,-2.3487,-2.3528,-2.3528,-2.3528,-2.3528,-2.3528,-2.3528,-2.3528,-2.3528,-2.377,-2.4011,-2.4734,-2.5697,-2.6472,-2.7221,-2.7717,-2.8029,-2.8208,-2.836,-2.853,-2.8875,-2.9365,-2.9865,-3.0374,-3.1122,-3.1858,-3.2106,-3.2603,-3.2603,-3.2603,-3.2603,-3.2851,-3.3594,-3.4582,-3.5075,-3.5568,-3.6305,-3.6808,1.5037,1.5037,1.5037,1.5037,1.5037,1.4331,1.3864,1.3163,1.2461,1.1988,1.1286,1.1286,1.1286,1.1286,1.1286,1.1286,1.1286,1.1286,1.1286,1.1286,1.1286,1.1286,1.1286,1.1286,1.1286,1.1286,1.1286,1.1051,0.9641,0.564,0.2821,-0.0,-0.2355,-0.3535,-0.3772,-0.3772,-0.3772,-0.3772,-0.3772,-0.3772,-0.3772,-0.3772,-0.3772,-0.3772,-0.3772,-0.3772,-0.3772,-0.3772,-0.3772,-0.3772,-0.3772,-0.3772,-0.3772,-0.3772,-0.3772,-0.3772,-0.3772,-0.3771,-0.4006,-0.4476,-0.4947,-0.5888,-0.6596,-0.7302,-0.7537,-0.7537,-0.8703,-1.0802,-1.3134,-1.5697,-1.8258,-2.0855,-2.241,-2.2862,-2.3033,-2.3211,-2.339,-2.3496,-2.3528,-2.3528,-2.3528,-2.3528,-2.3528,-2.3528,-2.3528,-2.3528,-2.3528,-2.377,-2.4743,-2.5715,-2.6545,-2.713,-2.7821,-2.8067,-2.8275,-2.8435,-2.8577,-2.8875,-2.9365,-2.9865,-3.0374,-3.1122,-3.2117,-3.2355,-3.2603,-3.2603,-3.2603,-3.2851,-3.3346,-3.4088,-3.4829,-3.5322,-3.5814,-3.6305,-3.6796,1.5037,1.5037,1.5037,1.5037,1.5037,1.4804,1.4098,1.3163,1.2929,1.2227,1.1286,1.1286,1.1286,1.1286,1.1286,1.1286,1.1286,1.1286,1.1286,1.1286,1.1286,1.1286,1.1286,1.1286,1.1286,1.1286,1.1286,1.1286,1.0579,0.611,0.3996,0.1411,-0.1884,-0.33,-0.3772,-0.3772,-0.3772,-0.3772,-0.3772,-0.3772,-0.3772,-0.3772,-0.3772,-0.3772,-0.3772,-0.3772,-0.3772,-0.3772,-0.3772,-0.3772,-0.3772,-0.3772,-0.3772,-0.3772,-0.3772,-0.3772,-0.3772,-0.3772,-0.3772,-0.4006,-0.4713,-0.5655,-0.6361,-0.7064,-0.7537,-0.7537,-0.7772,-0.9872,-1.2667,-1.5226,-1.6395,-1.9907,-2.2594,-2.287,-2.3073,-2.3228,-2.3366,-2.3487,-2.3528,-2.3528,-2.3528,-2.3528,-2.3528,-2.3528,-2.3528,-2.3528,-2.3528,-2.4011,-2.4984,-2.5741,-2.6322,-2.7204,-2.7897,-2.8114,-2.8322,-2.8473,-2.8615,-2.9125,-2.9365,-3.0125,-3.0623,-3.1609,-3.2355,-3.2603,-3.2603,-3.2603,-3.2851,-3.3098,-3.3594,-3.4335,-3.5075,-3.5568,-3.606,-3.6551,-3.7041,1.5037,1.5037,1.5037,1.5037,1.5037,1.5037,1.4337,1.363,1.3163,1.2461,1.1286,1.1286,1.1286,1.1286,1.1286,1.1286,1.1286,1.1286,1.1286,1.1286,1.1286,1.1286,1.1286,1.1286,1.1286,1.1286,1.1286,1.1286,1.1051,0.611,0.423,0.2116,-0.0942,-0.33,-0.3772,-0.3772,-0.3772,-0.3772,-0.3772,-0.3772,-0.3772,-0.3772,-0.3772,-0.3772,-0.3772,-0.3772,-0.3772,-0.3772,-0.3772,-0.3772,-0.3772,-0.3772,-0.3772,-0.3772,-0.3772,-0.3772,-0.3772,-0.3772,-0.3772,-0.4006,-0.4477,-0.5655,-0.6358,-0.6829,-0.7302,-0.7537,-0.7772,-0.8004,-1.1503,-1.4295,-1.4772,-1.8782,-2.1728,-2.2464,-2.309,-2.3236,-2.3398,-2.3528,-2.3528,-2.3528,-2.3528,-2.3528,-2.3528,-2.3528,-2.3528,-2.3528,-2.3528,-2.4011,-2.4984,-2.5759,-2.634,-2.6998,-2.7925,-2.8152,-2.8369,-2.8511,-2.8624,-2.9365,-2.9865,-3.0374,-3.1122,-3.2106,-3.2603,-3.2603,-3.2603,-3.2603,-3.3098,-3.3594,-3.4088,-3.4582,-3.5322,-3.606,-3.6305,-3.6551,-3.7041,1.5037,1.5037,1.5037,1.5037,1.5037,1.5037,1.457,1.3864,1.3397,1.2461,1.129,1.1286,1.1286,1.1286,1.1286,1.1286,1.1286,1.1286,1.1286,1.1286,1.1286,1.1286,1.1286,1.1286,1.1286,1.1286,1.1286,1.1286,1.1286,0.6345,0.4231,0.2351,-0.0942,-0.3772,-0.3772,-0.3772,-0.3772,-0.3772,-0.3772,-0.3772,-0.3772,-0.3772,-0.3772,-0.3772,-0.3772,-0.3772,-0.3772,-0.3772,-0.3772,-0.3772,-0.3772,-0.3772,-0.3772,-0.3772,-0.3772,-0.3772,-0.3772,-0.3772,-0.3772,-0.4242,-0.4948,-0.5655,-0.6123,-0.6831,-0.7302,-0.7537,-0.7537,-0.7772,-1.0337,-1.2667,-1.4798,-1.7443,-1.9946,-2.2001,-2.2861,-2.3021,-2.3182,-2.3528,-2.3528,-2.3528,-2.3528,-2.3528,-2.3528,-2.3528,-2.3528,-2.3528,-2.3528,-2.4252,-2.5224,-2.6,-2.6331,-2.7044,-2.7982,-2.8199,-2.8416,-2.8539,-2.8875,-2.9365,-3.0115,-3.0623,-3.1371,-3.2106,-3.2355,-3.2603,-3.2603,-3.2603,-3.3335,-3.4088,-3.4582,-3.5075,-3.5814,-3.6551,-3.6551,-3.6796,-3.7286,1.5037,1.5037,1.5037,1.5037,1.5037,1.5037,1.457,1.3864,1.2929,1.1988,1.152,1.1286,1.1286,1.1286,1.1286,1.1286,1.1286,1.1286,1.1286,1.1286,1.1286,1.1286,1.1286,1.1286,1.1286,1.1286,1.1286,1.1286,1.1286,0.6345,0.4231,0.2586,-0.1177,-0.3535,-0.3772,-0.3772,-0.3772,-0.3772,-0.3772,-0.3772,-0.3772,-0.3772,-0.3772,-0.3772,-0.3772,-0.3772,-0.3772,-0.3772,-0.3772,-0.3772,-0.3772,-0.3772,-0.3772,-0.3772,-0.3772,-0.3772,-0.3772,-0.3772,-0.3772,-0.4006,-0.4713,-0.5419,-0.589,-0.6596,-0.7302,-0.7537,-0.7537,-0.8004,-0.9638,-1.1967,-1.4782,-1.5577,-1.7823,-2.13,-2.241,-2.2343,-2.2483,-2.3262,-2.3528,-2.3528,-2.3528,-2.3528,-2.3528,-2.3528,-2.3528,-2.377,-2.377,-2.4493,-2.5465,-2.5982,-2.6545,-2.7306,-2.8038,-2.8256,-2.8454,-2.8568,-2.9115,-2.9615,-3.0115,-3.0873,-3.136,-3.2106,-3.2355,-3.2603,-3.2603,-3.2851,-3.3594,-3.4582,-3.5322,-3.606,-3.6305,-3.6551,-3.6551,-3.7041,-3.7531,1.5037,1.5037,1.5037,1.5037,1.5037,1.5037,1.457,1.3864,1.2929,1.2227,1.1754,1.152,1.1286,1.1286,1.1286,1.1286,1.1286,1.1286,1.1286,1.1286,1.1286,1.1286,1.1286,1.1286,1.1286,1.1286,1.1286,1.129,1.1051,0.6345,0.2821,0.0235,-0.2119,-0.3535,-0.3772,-0.3772,-0.3772,-0.3772,-0.3772,-0.3772,-0.3772,-0.3772,-0.3772,-0.3772,-0.3772,-0.3772,-0.3772,-0.3772,-0.3772,-0.3772,-0.3772,-0.3772,-0.3772,-0.3772,-0.3772,-0.3772,-0.3772,-0.3772,-0.3772,-0.3772,-0.4477,-0.5655,-0.5655,-0.6361,-0.7302,-0.7537,-0.7537,-0.8004,-0.9407,-1.1294,-1.3191,-1.3749,-1.5999,-1.9468,-2.1063,-2.0984,-2.2491,-2.327,-2.3528,-2.3528,-2.3528,-2.3528,-2.3528,-2.3528,-2.3528,-2.377,-2.4252,-2.4984,-2.5491,-2.6268,-2.6832,-2.7587,-2.8095,-2.8322,-2.8473,-2.8827,-2.9365,-2.9865,-3.0364,-3.1122,-3.162,-3.2355,-3.2603,-3.2603,-3.2603,-3.3098,-3.4088,-3.4829,-3.5814,-3.6305,-3.6551,-3.6551,-3.6551,-3.7054,-3.7776,1.5037,1.5037,1.5037,1.5037,1.5037,1.5037,1.457,1.4098,1.3397,1.2695,1.2227,1.152,1.1286,1.1286,1.1286,1.1286,1.1286,1.1286,1.1286,1.1286,1.1286,1.1286,1.1286,1.1286,1.1286,1.1286,1.1286,1.1286,1.0817,0.611,0.1646,-0.212,-0.33,-0.3772,-0.3772,-0.3772,-0.3772,-0.3772,-0.3772,-0.3772,-0.3772,-0.3772,-0.3772,-0.3772,-0.3772,-0.3772,-0.3772,-0.3772,-0.3772,-0.3772,-0.3772,-0.3772,-0.3772,-0.3772,-0.3772,-0.3772,-0.3772,-0.3772,-0.3772,-0.3772,-0.4477,-0.5419,-0.5655,-0.6361,-0.7067,-0.7537,-0.7537,-0.7545,-0.8254,-0.9697,-1.1151,-1.243,-1.3487,-1.6473,-1.9012,-2.0309,-2.2288,-2.3037,-2.3528,-2.3528,-2.3528,-2.3528,-2.3528,-2.3528,-2.3528,-2.377,-2.4269,-2.5035,-2.5794,-2.6376,-2.7213,-2.7662,-2.8161,-2.8379,-2.876,-2.9096,-2.9615,-3.0115,-3.0863,-3.162,-3.2117,-3.2603,-3.2603,-3.2603,-3.2603,-3.3346,-3.4582,-3.5322,-3.6305,-3.6551,-3.6551,-3.6796,-3.6796,-3.7299,-3.8033,1.5037,1.5037,1.5037,1.5037,1.5037,1.5037,1.457,1.4098,1.3397,1.2929,1.2222,1.1524,1.1286,1.1286,1.1286,1.1286,1.1286,1.1286,1.1286,1.1286,1.1286,1.1286,1.1286,1.1286,1.1286,1.1286,1.1286,1.1286,1.011,0.6345,0.1176,-0.2827,-0.3771,-0.3772,-0.3772,-0.3772,-0.3772,-0.3772,-0.3772,-0.3772,-0.3772,-0.3772,-0.3772,-0.3772,-0.3772,-0.3772,-0.3772,-0.3772,-0.3772,-0.3772,-0.3772,-0.3772,-0.3772,-0.3772,-0.3772,-0.3772,-0.3772,-0.3772,-0.3772,-0.3772,-0.4242,-0.5419,-0.5655,-0.6361,-0.7067,-0.7542,-0.7545,-0.7556,-0.7586,-0.9044,-0.9802,-1.0828,-1.2348,-1.4597,-1.6871,-1.8134,-2.0109,-2.157,-2.182,-2.2795,-2.2795,-2.3528,-2.3528,-2.3528,-2.3528,-2.4011,-2.4518,-2.5294,-2.5874,-2.67,-2.7343,-2.8029,-2.8227,-2.8445,-2.8779,-2.9115,-2.9865,-3.0374,-3.1122,-3.1868,-3.2355,-3.2603,-3.2603,-3.2851,-3.3098,-3.4088,-3.5075,-3.606,-3.6551,-3.6551,-3.6551,-3.6796,-3.7286,-3.7788,-3.8277,1.5037,1.5037,1.5037,1.5037,1.5037,1.5037,1.4804,1.4331,1.3864,1.3163,1.2461,1.1993,1.1524,1.1286,1.1286,1.1286,1.1286,1.1286,1.1286,1.1286,1.1286,1.1286,1.1286,1.1286,1.1286,1.1286,1.1286,1.129,0.9872,0.6345,0.1411,-0.1884,-0.3063,-0.3772,-0.3772,-0.3772,-0.3772,-0.3772,-0.3772,-0.3772,-0.3772,-0.3772,-0.3772,-0.3772,-0.3772,-0.3772,-0.3772,-0.3772,-0.3772,-0.3772,-0.3772,-0.3772,-0.3772,-0.3772,-0.3772,-0.3772,-0.3772,-0.3772,-0.3772,-0.3772,-0.4477,-0.5186,-0.5657,-0.6377,-0.7097,-0.7583,-0.7581,-0.7589,-0.787,-0.8152,-0.8433,-0.9199,-1.1423,-1.3425,-1.4441,-1.5223,-1.7179,-1.9131,-2.0594,-2.182,-2.2553,-2.3278,-2.3528,-2.3528,-2.3528,-2.377,-2.4527,-2.532,-2.617,-2.7044,-2.7464,-2.8152,-2.8331,-2.8511,-2.8817,-2.9365,-3.0115,-3.0873,-3.1609,-3.2106,-3.2603,-3.2603,-3.2851,-3.3346,-3.3841,-3.4829,-3.5568,-3.606,-3.6551,-3.6551,-3.6796,-3.7054,-3.7544,-3.8033,-3.8765,1.5037,1.5037,1.5037,1.5037,1.5037,1.5037,1.5037,1.5037,1.4331,1.3864,1.3163,1.2461,1.1988,1.1524,1.129,1.1286,1.1286,1.1286,1.1286,1.1286,1.1286,1.1286,1.1286,1.1286,1.1286,1.1286,1.1286,1.0817,0.9638,0.611,0.2351,-0.0,-0.2591,-0.3772,-0.3772,-0.3772,-0.3772,-0.3772,-0.3772,-0.3772,-0.3772,-0.3772,-0.3772,-0.3772,-0.3772,-0.3772,-0.3772,-0.3772,-0.3772,-0.3772,-0.3772,-0.3772,-0.3772,-0.3772,-0.3772,-0.3772,-0.3772,-0.3772,-0.3772,-0.3772,-0.4477,-0.5186,-0.5659,-0.6393,-0.7125,-0.7608,-0.7608,-0.764,-0.7687,-0.7725,-0.8247,-0.8285,-0.9785,-1.1275,-1.2526,-1.3523,-1.4984,-1.6936,-1.8639,-1.9859,-2.1328,-2.2304,-2.3528,-2.3528,-2.3528,-2.377,-2.4518,-2.5553,-2.6233,-2.7145,-2.7812,-2.8256,-2.8416,-2.8549,-2.9077,-2.9615,-3.0374,-3.1122,-3.1858,-3.2355,-3.2603,-3.2851,-3.2851,-3.3594,-3.4335,-3.5075,-3.5814,-3.6305,-3.6551,-3.6563,-3.6808,-3.7299,-3.7788,-3.8521,-3.9009,1.5037,1.5037,1.5037,1.5037,1.5037,1.5037,1.5037,1.5037,1.4804,1.4337,1.3869,1.2695,1.2227,1.1993,1.1524,1.129,1.1286,1.1286,1.1286,1.1286,1.1286,1.1286,1.1286,1.1286,1.1286,1.1286,1.1051,1.0345,0.8696,0.564,0.2586,-0.0,-0.2355,-0.3772,-0.3772,-0.3772,-0.3772,-0.3772,-0.3772,-0.3772,-0.3772,-0.3772,-0.3772,-0.3772,-0.3772,-0.3772,-0.3772,-0.3772,-0.3772,-0.3772,-0.3772,-0.3772,-0.3772,-0.3772,-0.3772,-0.3772,-0.3772,-0.3772,-0.3772,-0.4008,-0.4479,-0.5199,-0.5918,-0.6653,-0.7146,-0.7389,-0.7651,-0.7698,-0.7741,-0.7777,-0.7809,-0.7845,-0.8118,-0.9355,-1.0344,-1.1567,-1.2788,-1.4496,-1.6443,-1.8153,-1.9617,-2.1328,-2.2795,-2.3528,-2.3528,-2.4011,-2.4734,-2.5562,-2.6313,-2.7256,-2.7887,-2.8312,-2.8482,-2.8846,-2.9356,-2.9865,-3.0623,-3.1371,-3.2106,-3.2355,-3.2603,-3.2851,-3.3346,-3.4088,-3.4829,-3.5568,-3.5814,-3.6305,-3.6551,-3.6563,-3.7054,-3.7544,-3.8277,-3.8765,-3.9496,1.5037,1.5037,1.5037,1.5037,1.5037,1.5037,1.5037,1.5037,1.5037,1.4804,1.4331,1.3397,1.269,1.2227,1.1758,1.1524,1.129,1.1286,1.1286,1.1286,1.1286,1.1286,1.1286,1.1286,1.1286,1.1286,1.1286,1.0345,0.87,0.5406,0.2821,0.1176,-0.1413,-0.3772,-0.3772,-0.3772,-0.3772,-0.3772,-0.3772,-0.3772,-0.3772,-0.3772,-0.3772,-0.3772,-0.3772,-0.3772,-0.3772,-0.3772,-0.3772,-0.3772,-0.3772,-0.3772,-0.3772,-0.3772,-0.3772,-0.3772,-0.3772,-0.3772,-0.3772,-0.4008,-0.4486,-0.5212,-0.5702,-0.6199,-0.7476,-0.7725,-0.7725,-0.7769,-0.7812,-0.785,-0.7853,-0.788,-0.7883,-0.8627,-0.9122,-0.961,-1.0831,-1.2299,-1.3518,-1.474,-1.6936,-2.0109,-2.1578,-2.3037,-2.3287,-2.4286,-2.5009,-2.5892,-2.6638,-2.7357,-2.798,-2.8369,-2.853,-2.8856,-2.9365,-3.0115,-3.0873,-3.1371,-3.2106,-3.2355,-3.2603,-3.3346,-3.3841,-3.4582,-3.5075,-3.5814,-3.6305,-3.6551,-3.6551,-3.6551,-3.7054,-3.7788,-3.8277,-3.9009,-3.9739,1.5037,1.5037,1.5037,1.5037,1.5037,1.5037,1.5037,1.5037,1.5037,1.5037,1.4804,1.4331,1.3397,1.2695,1.2227,1.1993,1.152,1.152,1.152,1.1286,1.1286,1.1286,1.1286,1.1286,1.1286,1.1286,1.1286,1.1286,1.0579,0.6579,0.3526,0.2586,-0.0235,-0.3772,-0.3772,-0.3772,-0.3772,-0.3772,-0.3772,-0.3772,-0.3772,-0.3772,-0.3772,-0.3772,-0.3772,-0.3772,-0.3772,-0.3772,-0.3772,-0.3772,-0.3772,-0.3772,-0.3772,-0.3772,-0.3772,-0.3772,-0.3772,-0.3772,-0.3772,-0.3772,-0.4498,-0.5233,-0.5482,-0.6243,-0.7284,-0.7807,-0.7807,-0.7829,-0.7872,-0.7888,-0.7891,-0.7894,-0.7894,-0.7894,-0.814,-0.814,-0.9119,-1.0098,-1.0835,-1.1813,-1.474,-1.8159,-2.0594,-2.2062,-2.3053,-2.4052,-2.5147,-2.606,-2.6729,-2.7412,-2.8074,-2.8684,-2.8817,-2.9115,-2.9615,-3.0115,-3.0873,-3.1609,-3.2355,-3.2603,-3.2851,-3.3594,-3.4088,-3.4829,-3.5322,-3.606,-3.6305,-3.6551,-3.6551,-3.6796,-3.7299,-3.8033,-3.8765,-3.9496,-3.9739,1.5037,1.5037,1.5037,1.5037,1.5037,1.5037,1.5037,1.5037,1.5037,1.5037,1.5037,1.4804,1.4337,1.363,1.3163,1.2695,1.2227,1.1993,1.1524,1.129,1.1286,1.1286,1.1286,1.1286,1.1286,1.1286,1.1286,1.1286,1.0579,0.6579,0.3761,0.3526,-0.1177,-0.3772,-0.3772,-0.3772,-0.3772,-0.3772,-0.3772,-0.3772,-0.3772,-0.3772,-0.3772,-0.3772,-0.3772,-0.3772,-0.3772,-0.3772,-0.3772,-0.3772,-0.3772,-0.3772,-0.3772,-0.3772,-0.3772,-0.3772,-0.3772,-0.3772,-0.3772,-0.3772,-0.4498,-0.549,-0.5749,-0.6272,-0.7307,-0.7853,-0.7856,-0.7864,-0.7891,-0.7891,-0.7894,-0.7894,-0.7894,-0.7894,-0.7894,-0.7894,-0.8384,-0.8876,-0.9364,-1.059,-1.2548,-1.5961,-1.9381,-2.0844,-2.2062,-2.3335,-2.5182,-2.6087,-2.6992,-2.7687,-2.8407,-2.8751,-2.9115,-2.9615,-3.0364,-3.0364,-3.1122,-3.1858,-3.2603,-3.2851,-3.3346,-3.4088,-3.4582,-3.5075,-3.5814,-3.6305,-3.6551,-3.6551,-3.6796,-3.7041,-3.7788,-3.8521,-3.9253,-3.9739,-3.9982]},{"header":{"parameterUnit":"m.s-1","parameterCategory":1,"la1":31.0,"la2":29.5877,"lo1":-88.7671,"lo2":-86.6584,"dx":0.0162,"dy":0.0185,"nx":115,"ny":88,"refTime":"2023-01-22T06:00:00:Z","depth":0,"parameterNumber":3,"parameterNumberName":"V-component_of_WINDS"},"data":[0.0,0.0,0.0,0.0,0.0,0.0,0.0,0.0,0.0,0.0,0.0,0.0,0.0,0.0,0.0,0.0,0.0,0.0,0.0,0.0,0.0,0.0,0.0,0.0,0.0,0.0,0.0,0.0,0.0,0.0,0.0,0.0,0.0,0.0,0.0,0.0,0.0,0.0,0.0,0.0,0.0,0.0,0.0,0.0,0.0,0.0,0.0,0.0,0.0,0.0,0.0,0.0,0.0,0.0,0.0,0.0,0.0,0.0,0.0,0.0,0.0,0.0,0.0,0.0,0.0,0.0,0.0,0.0,0.0,0.0,0.0,0.0,0.0,0.0,0.0,0.0,0.0,0.0,0.0,0.0,0.0,0.0,0.0,0.0,0.0,0.0,0.0,0.0,0.0,0.0,0.0,0.0,0.0,0.0,0.0,0.0,0.0,0.0,0.0,0.0,0.0,0.0,0.0,0.0,0.0,0.0,0.0,0.0,0.0,0.0,0.0,0.0,0.0,0.0,0.0,0.0,0.0,0.0,0.0,0.0,0.0,0.0,0.0,0.0,0.0,0.0,0.0,0.0,0.0,0.0,0.0,0.0,0.0,0.0,0.0,0.0,0.0,0.0,0.0,0.0,0.0,0.0,0.0,0.0,0.0,0.0,0.0,0.0,0.0,0.0,0.0,0.0,0.0,0.0,0.0,0.0,0.0,0.0,0.0,0.0,0.0,0.0,0.0,0.0,0.0,0.0,0.0,0.0,0.0,0.0,0.0,0.0,0.0,0.0,0.0,0.0,0.0,0.0,0.0,0.0,0.0,0.0,0.0,0.0,0.0,0.0,0.0,0.0,0.0,0.0,0.0,0.0,0.0,0.0,0.0,0.0,0.0,0.0,0.0,0.0,0.0,0.0,0.0,0.0,0.0,0.0,0.0,0.0,0.0,0.0,0.0,0.0,0.0,0.0,0.0,0.0,0.0,0.0,0.0,0.0,0.0,0.0,0.0,0.0,0.0,0.0,0.0,0.0,0.0,0.0,0.0,0.0,0.0,0.0,0.0,0.0,0.0,0.0,0.0,0.0,0.0,0.0,0.0,0.0,0.0,0.0,0.0,0.0,0.0,0.0,0.0,0.0,0.0,0.0,0.0,0.0,0.0,0.0,0.0,0.0,0.0,0.0,0.0,0.0,0.0,0.0,0.0,0.0,0.0,0.0,0.0,0.0,0.0,0.0,0.0,0.0,0.0,0.0,0.0,0.0,0.0,0.0,0.0,0.0,0.0,0.0,0.0,0.0,0.0,0.0,0.0,0.0,0.0,0.0,0.0,0.0,0.0,0.0,0.0,0.0,0.0,0.0,0.0,0.0,0.0,0.0,0.0,0.0,0.0,0.0,0.0,0.0,0.0,0.0,0.0,0.0,0.0,0.0,0.0,0.0,0.0,0.0,0.0,0.0,0.0,0.0,0.0,0.0,0.0,0.0,0.0,0.0,0.0,0.0,0.0,0.0,0.0,0.0,0.0,0.0,0.0,0.0,0.0,0.0,0.0,0.0,0.0,0.0,0.0,0.0,0.0,0.0,0.0,0.0,0.0,0.0,0.0,0.0,0.0,0.0,0.0,0.0,0.0,0.0,0.0,0.0,0.0,0.0,0.0,0.0,0.0,0.0,0.0,0.0,0.0,0.0,0.0,0.0,0.0,0.0,0.0,0.0,0.0,0.0,0.0,0.0,0.0,0.0,0.0,0.0,0.0,0.0,0.0,0.0,0.0,0.0,0.0,0.0,0.0,0.0,0.0,0.0,0.0,0.0,0.0,0.0,0.0,0.0,0.0,0.0,0.0,0.0,0.0,0.0,0.0,0.0,0.0,0.0,0.0,0.0,0.0,0.0,0.0,0.0,0.0,0.0,0.0,0.0,0.0,0.0,0.0,0.0,0.0,0.0,0.0,0.0,0.0,0.0,0.0,0.0,0.0,0.0,0.0,0.0,0.0,0.0,0.0,0.0,0.0,0.0,0.0,0.0,0.0,0.0,0.0,0.0,0.0,0.0,0.0,0.0,0.0,0.0,0.0,0.0,0.0,0.0,0.0,0.0,0.0,0.0,0.0,0.0,0.0,0.0,0.0,0.0,0.0,0.0,0.0,0.0,0.0,0.0,0.0,0.0,0.0,0.0,0.0,0.0,0.0,0.0,0.0,0.0,0.0,0.0,0.0,0.0,0.0,0.0,0.0,0.0,0.0,0.0,0.0,0.0,0.0,0.0,0.0,0.0,0.0,0.0,0.0,0.0,0.0,0.0,0.0,0.0,0.0,0.0,0.0,0.0,0.0,0.0,0.0,0.0,0.0,0.0,0.0,0.0,0.0,0.0,0.0,0.0,0.0,0.0,0.0,0.0,0.0,0.0,0.0,0.0,0.0,0.0,0.0,0.0,0.0,0.0,0.0,0.0,0.0,0.0,0.0,0.0,0.0,0.0,0.0,0.0,0.0,0.0,0.0,0.0,0.0,0.0,0.0,0.0,0.0,0.0,0.0,0.0,0.0,0.0,0.0,0.0,0.0,0.0,0.0,0.0,0.0,0.0,0.0,0.0,0.0,0.0,0.0,0.0,0.0,0.0,0.0,0.0,0.0,0.0,0.0,0.0,0.0,0.0,0.0,0.0,0.0,0.0,0.0,0.0,0.0,0.0,0.0,0.0,0.0,0.0,0.0,0.0,0.0,0.0,0.0,0.0,0.0,0.0,0.0,0.0,0.0,0.0,0.0,0.0,0.0,0.0,0.0,0.0,0.0,0.0,0.0,0.0,0.0,0.0,0.0,0.0,0.0,0.0,0.0,0.0,0.0,0.0,0.0,0.0,0.0,0.0,0.0,0.0,0.0,0.0,0.0,0.0,0.0,0.0,0.0,0.0,0.0,0.0,0.0,0.0,0.0,0.0,0.0,0.0,0.0,0.0,0.0,0.0,0.0,0.0,0.0,0.0,0.0,0.0,0.0,0.0,0.0,0.0,0.0,0.0,0.0,0.0,0.0,0.0,0.0,0.0,0.0,0.0,0.0,0.0,0.0,0.0,0.0,0.0,0.0,0.0,0.0,0.0,0.0,0.0,0.0,0.0,0.0,0.0,0.0,0.0,0.0,0.0,0.0,0.0,0.0,0.0,0.0,0.0,0.0,0.0,0.0,0.0,0.0,0.0,0.0,0.0,0.0,0.0,0.0,0.0,0.0,0.0,0.0,0.0,0.0,0.0,0.0,0.0,0.0,0.0,0.0,0.0,0.0,0.0,0.0,0.0,0.0,0.0,0.0,0.0,0.0,0.0,0.0,0.0,0.0,0.0,0.0,0.0,0.0,0.0,0.0,0.0,0.0,0.0,0.0,0.0,0.0,0.0,0.0,0.0,0.0,0.0,0.0,0.0,0.0,0.0,0.0,0.0,0.0,0.0,0.0,0.0,0.0,0.0,0.0,0.0,0.0,0.0,0.0,0.0,0.0,0.0,0.0,0.0,0.0,0.0,0.0,0.0,0.0,0.0,0.0,0.0,0.0,0.0,0.0,0.0,0.0,0.0,0.0,0.0,0.0,0.0,0.0,0.0,0.0,0.0,0.0,0.0,0.0,0.0,0.0,0.0,0.0,0.0,0.0,0.0,0.0,0.0,0.0,0.0,0.0,0.0,0.0,0.0,0.0,0.0,0.0,0.0,0.0,0.0,0.0,0.0,0.0,0.0,0.0,0.0,0.0,0.0,0.0,0.0,0.0,0.0,0.0,0.0,0.0,0.0,0.0,0.0,0.0,0.0,0.0,0.0,0.0,0.0,0.0,0.0,0.0,0.0,0.0,0.0,0.0,0.0,0.0,0.0,0.0,0.0,0.0,0.0,0.0,0.0,0.0,0.0,0.0,0.0,0.0,0.0,0.0,0.0,0.0,0.0,0.0,0.0,0.0,0.0,0.0,0.0,0.0,0.0,0.0,0.0,0.0,0.0,0.0,0.0,0.0,0.0,0.0,0.0,0.0,0.0,0.0,0.0,0.0,0.0,0.0,0.0,0.0,0.0,0.0,0.0,0.0,0.0,0.0,0.0,0.0,0.0,0.0,0.0,0.0,0.0,0.0,0.0,0.0,0.0,0.0,0.0,0.0,0.0,0.0,0.0,0.0,0.0,0.0,0.0,0.0,0.0,0.0,0.0,0.0,0.0,0.0,0.0,0.0,0.0,0.0,0.0,0.0,0.0,0.0,0.0,0.0,0.0,0.0,0.0,0.0,0.0,0.0,0.0,0.0,0.0,0.0,0.0,0.0,0.0,-8.1892,0.0,0.0,0.0,0.0,0.0,0.0,0.0,0.0,0.0,0.0,0.0,0.0,0.0,0.0,0.0,0.0,0.0,0.0,0.0,0.0,0.0,0.0,0.0,0.0,0.0,0.0,0.0,0.0,0.0,0.0,0.0,0.0,0.0,0.0,0.0,0.0,0.0,0.0,0.0,0.0,0.0,0.0,0.0,0.0,0.0,0.0,0.0,0.0,0.0,0.0,0.0,0.0,0.0,0.0,0.0,0.0,0.0,0.0,0.0,0.0,0.0,0.0,0.0,0.0,0.0,0.0,0.0,0.0,0.0,0.0,0.0,0.0,0.0,0.0,0.0,0.0,0.0,0.0,0.0,0.0,0.0,0.0,0.0,0.0,0.0,0.0,0.0,0.0,0.0,0.0,0.0,0.0,0.0,0.0,0.0,0.0,0.0,0.0,0.0,0.0,0.0,0.0,0.0,0.0,0.0,0.0,0.0,0.0,0.0,0.0,-8.1981,-8.1892,-8.1892,-8.1892,-8.1892,0.0,0.0,0.0,0.0,0.0,0.0,0.0,0.0,0.0,0.0,0.0,0.0,0.0,0.0,0.0,0.0,0.0,0.0,0.0,0.0,0.0,0.0,0.0,0.0,0.0,0.0,0.0,0.0,0.0,0.0,0.0,0.0,0.0,0.0,0.0,0.0,0.0,0.0,0.0,0.0,0.0,0.0,0.0,0.0,0.0,0.0,0.0,0.0,0.0,0.0,0.0,0.0,0.0,0.0,0.0,0.0,0.0,0.0,0.0,0.0,0.0,0.0,0.0,0.0,0.0,0.0,0.0,0.0,0.0,0.0,0.0,0.0,0.0,0.0,0.0,0.0,0.0,0.0,0.0,0.0,0.0,0.0,0.0,0.0,0.0,0.0,0.0,0.0,0.0,0.0,0.0,0.0,0.0,0.0,0.0,0.0,0.0,0.0,0.0,0.0,0.0,0.0,0.0,0.0,0.0,0.0,0.0,0.0,0.0,0.0,0.0,0.0,-8.1892,-8.1892,-8.1892,0.0,0.0,0.0,0.0,0.0,0.0,0.0,0.0,0.0,0.0,0.0,0.0,0.0,0.0,0.0,0.0,0.0,0.0,0.0,0.0,0.0,0.0,0.0,0.0,0.0,0.0,0.0,0.0,0.0,0.0,0.0,0.0,0.0,0.0,0.0,0.0,0.0,0.0,0.0,0.0,0.0,0.0,0.0,0.0,0.0,0.0,0.0,0.0,0.0,0.0,0.0,0.0,0.0,0.0,0.0,0.0,0.0,0.0,0.0,0.0,0.0,0.0,0.0,0.0,0.0,0.0,0.0,0.0,0.0,0.0,0.0,0.0,0.0,0.0,0.0,0.0,0.0,0.0,0.0,0.0,0.0,0.0,0.0,0.0,0.0,0.0,0.0,0.0,0.0,0.0,0.0,0.0,0.0,0.0,0.0,0.0,0.0,0.0,0.0,0.0,0.0,0.0,0.0,0.0,0.0,0.0,0.0,0.0,0.0,0.0,-8.1975,-8.1926,-8.1911,0.0,-8.1892,0.0,0.0,0.0,0.0,0.0,0.0,0.0,0.0,0.0,0.0,0.0,0.0,0.0,0.0,0.0,0.0,0.0,0.0,0.0,0.0,0.0,0.0,0.0,0.0,0.0,0.0,0.0,0.0,0.0,0.0,0.0,0.0,0.0,0.0,0.0,0.0,0.0,0.0,0.0,0.0,0.0,0.0,0.0,0.0,0.0,0.0,0.0,0.0,0.0,0.0,0.0,0.0,0.0,0.0,0.0,0.0,0.0,0.0,0.0,0.0,0.0,0.0,0.0,0.0,0.0,0.0,0.0,0.0,0.0,0.0,0.0,0.0,0.0,0.0,0.0,0.0,0.0,0.0,0.0,0.0,0.0,0.0,0.0,0.0,0.0,0.0,0.0,0.0,0.0,0.0,0.0,0.0,0.0,0.0,0.0,0.0,0.0,0.0,0.0,0.0,0.0,0.0,0.0,0.0,0.0,0.0,0.0,0.0,0.0,0.0,-8.1975,-8.1926,-8.1911,-8.1892,0.0,0.0,0.0,0.0,0.0,0.0,0.0,0.0,0.0,0.0,0.0,0.0,0.0,0.0,0.0,0.0,0.0,0.0,0.0,0.0,0.0,0.0,0.0,0.0,0.0,0.0,0.0,0.0,0.0,0.0,0.0,0.0,0.0,0.0,0.0,0.0,0.0,0.0,0.0,0.0,0.0,0.0,0.0,0.0,0.0,0.0,0.0,0.0,0.0,0.0,0.0,0.0,0.0,0.0,0.0,0.0,0.0,0.0,0.0,0.0,0.0,0.0,0.0,0.0,0.0,0.0,0.0,0.0,0.0,0.0,0.0,0.0,0.0,0.0,0.0,0.0,0.0,0.0,0.0,0.0,0.0,0.0,0.0,0.0,0.0,0.0,0.0,0.0,0.0,0.0,0.0,0.0,0.0,0.0,0.0,0.0,0.0,0.0,0.0,0.0,0.0,0.0,0.0,0.0,0.0,0.0,0.0,0.0,0.0,0.0,-8.2022,-8.1959,-8.1908,-8.1911,-8.1892,-8.1892,0.0,0.0,0.0,0.0,0.0,0.0,0.0,0.0,0.0,0.0,0.0,0.0,0.0,0.0,0.0,0.0,0.0,0.0,0.0,0.0,0.0,0.0,0.0,0.0,0.0,0.0,0.0,0.0,0.0,0.0,0.0,0.0,0.0,0.0,0.0,0.0,0.0,0.0,0.0,0.0,0.0,0.0,0.0,0.0,0.0,0.0,0.0,0.0,0.0,0.0,0.0,0.0,0.0,0.0,0.0,0.0,0.0,0.0,0.0,0.0,0.0,0.0,0.0,0.0,0.0,0.0,0.0,0.0,0.0,0.0,0.0,0.0,0.0,0.0,0.0,0.0,0.0,0.0,0.0,0.0,0.0,0.0,0.0,0.0,0.0,0.0,0.0,0.0,0.0,0.0,0.0,0.0,0.0,0.0,0.0,0.0,0.0,0.0,0.0,0.0,0.0,0.0,0.0,0.0,0.0,0.0,0.0,0.0,-8.2104,-8.2036,-8.1981,-8.1911,-8.1892,-8.1892,0.0,0.0,0.0,0.0,0.0,0.0,0.0,0.0,0.0,0.0,0.0,0.0,0.0,0.0,0.0,0.0,0.0,0.0,0.0,0.0,0.0,0.0,0.0,0.0,0.0,0.0,0.0,0.0,0.0,0.0,0.0,0.0,0.0,0.0,0.0,0.0,0.0,0.0,0.0,0.0,0.0,0.0,0.0,0.0,0.0,0.0,0.0,0.0,0.0,0.0,0.0,0.0,0.0,0.0,0.0,0.0,0.0,0.0,0.0,0.0,0.0,0.0,0.0,0.0,0.0,0.0,0.0,0.0,0.0,0.0,0.0,0.0,0.0,0.0,0.0,0.0,0.0,0.0,0.0,0.0,0.0,0.0,0.0,0.0,0.0,0.0,0.0,0.0,0.0,0.0,0.0,0.0,0.0,0.0,0.0,0.0,0.0,0.0,0.0,0.0,0.0,0.0,0.0,0.0,0.0,0.0,0.0,0.0,0.0,-8.2104,-8.2036,-8.1981,-8.1892,-8.1892,-8.1892,0.0,0.0,0.0,0.0,0.0,0.0,0.0,0.0,0.0,0.0,0.0,0.0,0.0,0.0,0.0,0.0,0.0,0.0,0.0,0.0,0.0,0.0,0.0,0.0,0.0,0.0,0.0,0.0,0.0,0.0,0.0,0.0,0.0,0.0,0.0,0.0,0.0,0.0,0.0,0.0,0.0,0.0,0.0,0.0,0.0,0.0,0.0,0.0,0.0,0.0,0.0,0.0,0.0,0.0,0.0,0.0,0.0,0.0,0.0,0.0,0.0,0.0,0.0,0.0,0.0,0.0,0.0,0.0,0.0,0.0,0.0,0.0,0.0,0.0,0.0,0.0,0.0,0.0,0.0,0.0,0.0,0.0,0.0,0.0,0.0,0.0,0.0,0.0,0.0,0.0,0.0,0.0,0.0,0.0,0.0,0.0,0.0,0.0,0.0,0.0,0.0,0.0,0.0,0.0,0.0,0.0,0.0,0.0,0.0,-8.2052,0.0,-8.1959,-8.1929,-8.1892,-8.1892,0.0,0.0,0.0,0.0,0.0,0.0,0.0,0.0,0.0,0.0,0.0,0.0,0.0,0.0,0.0,0.0,0.0,0.0,0.0,0.0,0.0,0.0,0.0,0.0,0.0,0.0,0.0,0.0,0.0,0.0,0.0,0.0,0.0,0.0,0.0,0.0,0.0,0.0,0.0,0.0,0.0,0.0,0.0,0.0,0.0,0.0,0.0,0.0,0.0,0.0,0.0,0.0,0.0,0.0,0.0,0.0,0.0,0.0,0.0,0.0,0.0,0.0,0.0,0.0,0.0,0.0,0.0,0.0,0.0,0.0,0.0,0.0,0.0,0.0,0.0,0.0,0.0,0.0,0.0,0.0,0.0,0.0,0.0,0.0,0.0,0.0,0.0,0.0,0.0,0.0,0.0,0.0,0.0,0.0,0.0,0.0,0.0,0.0,0.0,0.0,0.0,0.0,0.0,0.0,0.0,0.0,0.0,0.0,-8.2052,-8.2012,-8.2007,-8.1975,-8.1926,-8.1911,-8.1892,0.0,0.0,0.0,0.0,0.0,0.0,0.0,0.0,0.0,0.0,0.0,0.0,0.0,0.0,0.0,0.0,0.0,0.0,0.0,0.0,0.0,0.0,0.0,0.0,0.0,0.0,0.0,0.0,0.0,0.0,0.0,0.0,0.0,0.0,0.0,0.0,0.0,0.0,0.0,0.0,0.0,0.0,0.0,0.0,0.0,0.0,0.0,0.0,0.0,0.0,0.0,0.0,0.0,0.0,0.0,0.0,0.0,0.0,0.0,0.0,0.0,0.0,0.0,0.0,0.0,0.0,0.0,0.0,0.0,0.0,0.0,0.0,0.0,0.0,0.0,0.0,0.0,0.0,0.0,0.0,0.0,0.0,0.0,0.0,0.0,0.0,0.0,0.0,0.0,0.0,0.0,0.0,0.0,0.0,0.0,0.0,0.0,0.0,0.0,0.0,0.0,0.0,0.0,0.0,0.0,0.0,0.0,0.0,0.0,-8.2012,-8.2007,-8.1975,-8.1926,-8.1911,-8.1892,0.0,0.0,0.0,0.0,0.0,0.0,0.0,0.0,0.0,0.0,0.0,0.0,0.0,0.0,0.0,0.0,0.0,0.0,0.0,0.0,0.0,0.0,0.0,0.0,0.0,0.0,0.0,0.0,0.0,0.0,0.0,0.0,0.0,0.0,0.0,0.0,0.0,0.0,0.0,0.0,0.0,0.0,0.0,0.0,0.0,0.0,0.0,0.0,0.0,0.0,0.0,0.0,0.0,0.0,0.0,0.0,0.0,0.0,0.0,0.0,0.0,0.0,0.0,0.0,0.0,0.0,0.0,0.0,0.0,0.0,0.0,0.0,0.0,0.0,0.0,0.0,0.0,0.0,0.0,0.0,0.0,0.0,0.0,0.0,0.0,0.0,0.0,0.0,0.0,0.0,0.0,0.0,0.0,0.0,0.0,0.0,0.0,0.0,0.0,0.0,0.0,0.0,0.0,0.0,0.0,0.0,0.0,0.0,0.0,-8.2999,-8.2333,-8.1975,-8.1943,-8.1929,-8.1892,-8.1892,0.0,0.0,0.0,0.0,0.0,0.0,0.0,0.0,0.0,0.0,0.0,0.0,0.0,0.0,0.0,0.0,0.0,0.0,0.0,0.0,0.0,0.0,0.0,0.0,0.0,0.0,0.0,0.0,0.0,0.0,0.0,0.0,0.0,0.0,0.0,0.0,0.0,0.0,0.0,0.0,0.0,0.0,0.0,0.0,0.0,0.0,0.0,0.0,0.0,0.0,0.0,0.0,0.0,0.0,0.0,0.0,0.0,0.0,0.0,0.0,0.0,0.0,0.0,0.0,0.0,0.0,0.0,0.0,0.0,0.0,0.0,0.0,0.0,0.0,0.0,0.0,0.0,0.0,0.0,0.0,0.0,0.0,0.0,0.0,0.0,0.0,0.0,0.0,0.0,0.0,0.0,0.0,0.0,0.0,0.0,0.0,0.0,0.0,0.0,0.0,0.0,0.0,0.0,0.0,0.0,0.0,0.0,0.0,-8.4676,-8.301,-8.2147,-8.2069,-8.1986,-8.1931,0.0,0.0,0.0,0.0,0.0,0.0,0.0,0.0,0.0,0.0,0.0,0.0,0.0,0.0,0.0,0.0,0.0,0.0,0.0,0.0,0.0,0.0,0.0,0.0,0.0,0.0,0.0,0.0,0.0,0.0,0.0,0.0,0.0,0.0,0.0,0.0,0.0,0.0,0.0,0.0,0.0,0.0,0.0,0.0,0.0,0.0,0.0,0.0,0.0,0.0,0.0,0.0,0.0,0.0,0.0,0.0,0.0,0.0,0.0,0.0,0.0,0.0,0.0,0.0,0.0,0.0,0.0,0.0,0.0,0.0,0.0,0.0,0.0,0.0,0.0,0.0,0.0,0.0,0.0,0.0,0.0,0.0,0.0,0.0,0.0,0.0,0.0,0.0,0.0,0.0,0.0,0.0,0.0,0.0,0.0,0.0,0.0,0.0,0.0,0.0,0.0,0.0,0.0,0.0,0.0,0.0,0.0,0.0,0.0,-8.4676,-8.4207,-8.3618,-8.2964,-8.2293,-8.2201,0.0,0.0,0.0,0.0,0.0,0.0,0.0,0.0,0.0,0.0,0.0,0.0,0.0,0.0,0.0,0.0,0.0,0.0,0.0,0.0,0.0,0.0,0.0,0.0,0.0,0.0,0.0,0.0,0.0,0.0,0.0,0.0,0.0,0.0,0.0,0.0,0.0,0.0,0.0,0.0,0.0,0.0,0.0,0.0,0.0,0.0,0.0,0.0,0.0,0.0,0.0,0.0,0.0,0.0,0.0,0.0,0.0,0.0,0.0,0.0,0.0,0.0,0.0,0.0,0.0,0.0,0.0,0.0,0.0,0.0,0.0,0.0,0.0,0.0,0.0,0.0,0.0,0.0,0.0,0.0,0.0,0.0,0.0,0.0,0.0,0.0,0.0,0.0,0.0,0.0,0.0,0.0,0.0,0.0,0.0,0.0,0.0,0.0,0.0,0.0,0.0,0.0,0.0,0.0,0.0,0.0,0.0,0.0,-8.5767,-8.5767,-8.5364,-8.4947,-8.4396,-8.3476,-8.3191,0.0,0.0,0.0,0.0,0.0,0.0,0.0,0.0,0.0,0.0,0.0,0.0,0.0,0.0,0.0,0.0,0.0,0.0,0.0,0.0,0.0,0.0,0.0,0.0,0.0,0.0,0.0,0.0,0.0,0.0,0.0,0.0,0.0,0.0,0.0,0.0,0.0,0.0,0.0,0.0,0.0,0.0,0.0,0.0,0.0,0.0,0.0,0.0,0.0,0.0,0.0,0.0,0.0,0.0,0.0,0.0,0.0,0.0,0.0,0.0,0.0,0.0,0.0,0.0,0.0,0.0,0.0,0.0,0.0,0.0,0.0,0.0,0.0,0.0,0.0,0.0,0.0,0.0,0.0,0.0,0.0,0.0,0.0,0.0,0.0,0.0,0.0,0.0,0.0,0.0,0.0,0.0,0.0,0.0,0.0,0.0,0.0,0.0,0.0,0.0,0.0,0.0,0.0,0.0,0.0,0.0,0.0,0.0,-8.7209,-8.717,-8.6585,-8.626,-8.6154,-8.5104,-8.4548,0.0,0.0,0.0,0.0,0.0,0.0,0.0,0.0,0.0,0.0,0.0,0.0,0.0,0.0,0.0,0.0,0.0,0.0,0.0,0.0,0.0,0.0,0.0,0.0,0.0,0.0,0.0,0.0,0.0,0.0,0.0,0.0,0.0,0.0,0.0,0.0,0.0,0.0,0.0,0.0,0.0,0.0,0.0,0.0,0.0,0.0,0.0,0.0,0.0,0.0,0.0,0.0,0.0,0.0,0.0,0.0,0.0,0.0,0.0,0.0,0.0,0.0,0.0,0.0,0.0,0.0,0.0,0.0,0.0,0.0,0.0,0.0,0.0,0.0,0.0,0.0,0.0,0.0,0.0,0.0,0.0,0.0,0.0,0.0,0.0,0.0,0.0,0.0,0.0,0.0,0.0,0.0,0.0,0.0,0.0,0.0,0.0,0.0,0.0,0.0,0.0,0.0,0.0,0.0,0.0,0.0,0.0,0.0,-8.7209,-8.7209,-8.7715,-8.7949,-8.7935,-8.575,-8.4887,0.0,0.0,0.0,0.0,0.0,0.0,0.0,0.0,0.0,0.0,0.0,0.0,0.0,0.0,0.0,0.0,0.0,0.0,0.0,0.0,0.0,0.0,0.0,0.0,0.0,0.0,0.0,0.0,0.0,0.0,0.0,0.0,0.0,0.0,0.0,0.0,0.0,0.0,0.0,0.0,0.0,0.0,0.0,0.0,0.0,0.0,0.0,0.0,-8.7429,0.0,0.0,0.0,0.0,0.0,0.0,0.0,0.0,0.0,0.0,0.0,0.0,0.0,0.0,0.0,0.0,0.0,0.0,0.0,0.0,0.0,0.0,0.0,0.0,0.0,0.0,0.0,0.0,0.0,0.0,0.0,0.0,0.0,0.0,0.0,0.0,0.0,0.0,0.0,0.0,0.0,0.0,0.0,0.0,0.0,0.0,0.0,0.0,0.0,0.0,0.0,0.0,0.0,0.0,0.0,0.0,0.0,0.0,0.0,-8.7793,-8.7832,-8.8651,-8.9118,-8.904,-8.778,-8.723,0.0,0.0,0.0,0.0,0.0,0.0,0.0,0.0,0.0,0.0,0.0,0.0,0.0,0.0,0.0,0.0,0.0,0.0,0.0,0.0,0.0,0.0,0.0,0.0,0.0,0.0,0.0,0.0,0.0,0.0,0.0,0.0,0.0,0.0,0.0,0.0,0.0,0.0,0.0,0.0,0.0,0.0,0.0,0.0,0.0,0.0,0.0,0.0,0.0,0.0,0.0,0.0,0.0,0.0,0.0,0.0,0.0,0.0,0.0,0.0,0.0,0.0,0.0,0.0,0.0,0.0,0.0,0.0,0.0,0.0,0.0,0.0,0.0,0.0,0.0,0.0,0.0,0.0,0.0,0.0,0.0,0.0,0.0,0.0,0.0,0.0,0.0,0.0,0.0,0.0,0.0,0.0,0.0,0.0,0.0,0.0,0.0,0.0,0.0,0.0,0.0,0.0,0.0,0.0,0.0,0.0,0.0,-8.8105,-8.8573,-8.8728,-8.9547,-9.0014,-9.0014,-9.0131,-9.0156,-9.0127,0.0,0.0,0.0,0.0,0.0,0.0,0.0,0.0,0.0,0.0,0.0,0.0,0.0,0.0,0.0,0.0,0.0,0.0,0.0,0.0,0.0,0.0,0.0,0.0,0.0,0.0,0.0,0.0,0.0,0.0,0.0,0.0,0.0,0.0,0.0,0.0,0.0,0.0,-8.4998,-8.487,0.0,0.0,0.0,0.0,0.0,0.0,0.0,0.0,-8.8856,0.0,0.0,0.0,0.0,0.0,0.0,0.0,0.0,0.0,0.0,0.0,0.0,0.0,0.0,0.0,0.0,0.0,0.0,0.0,0.0,0.0,0.0,0.0,0.0,0.0,0.0,0.0,0.0,0.0,0.0,0.0,0.0,0.0,0.0,0.0,0.0,0.0,0.0,0.0,0.0,0.0,0.0,0.0,0.0,0.0,0.0,0.0,0.0,0.0,0.0,0.0,0.0,0.0,0.0,0.0,0.0,-8.8261,-8.8417,-8.8845,-8.9586,-9.0443,-9.0911,-9.0911,-9.1612,-9.1963,-9.1871,0.0,0.0,0.0,0.0,0.0,0.0,0.0,0.0,0.0,0.0,0.0,0.0,0.0,0.0,0.0,0.0,0.0,0.0,0.0,0.0,0.0,0.0,0.0,0.0,0.0,0.0,0.0,0.0,0.0,0.0,0.0,0.0,0.0,0.0,0.0,0.0,0.0,0.0,0.0,-8.6145,-8.6145,0.0,0.0,0.0,0.0,0.0,0.0,0.0,0.0,-8.932,0.0,0.0,0.0,0.0,0.0,0.0,0.0,0.0,0.0,0.0,0.0,0.0,0.0,0.0,0.0,0.0,0.0,0.0,0.0,0.0,0.0,0.0,0.0,0.0,0.0,0.0,0.0,0.0,0.0,0.0,0.0,0.0,0.0,0.0,0.0,0.0,0.0,0.0,0.0,0.0,0.0,0.0,0.0,0.0,0.0,0.0,0.0,0.0,0.0,0.0,0.0,0.0,0.0,0.0,0.0,-8.8456,-8.8962,-8.9625,-9.0443,-9.1339,-9.1768,-9.1807,-9.2197,-9.243,0.0,0.0,0.0,0.0,0.0,0.0,0.0,0.0,0.0,0.0,0.0,0.0,0.0,0.0,0.0,0.0,0.0,0.0,0.0,0.0,0.0,0.0,0.0,0.0,0.0,0.0,0.0,0.0,0.0,0.0,0.0,0.0,0.0,0.0,0.0,0.0,0.0,0.0,0.0,0.0,-8.6607,-8.6672,-8.7348,0.0,0.0,0.0,0.0,0.0,0.0,-8.9579,-8.9457,0.0,0.0,0.0,0.0,0.0,0.0,0.0,0.0,0.0,0.0,0.0,0.0,0.0,0.0,0.0,0.0,0.0,0.0,0.0,0.0,0.0,0.0,0.0,0.0,0.0,0.0,0.0,0.0,0.0,0.0,0.0,0.0,0.0,0.0,0.0,0.0,0.0,0.0,0.0,0.0,0.0,0.0,0.0,0.0,0.0,0.0,0.0,0.0,0.0,0.0,0.0,0.0,0.0,0.0,0.0,-8.8767,-8.9625,-9.0482,-9.1339,-9.2041,-9.2469,-9.2664,-9.2664,-9.2664,0.0,0.0,0.0,0.0,0.0,0.0,0.0,0.0,0.0,0.0,0.0,0.0,0.0,0.0,0.0,0.0,0.0,0.0,0.0,0.0,0.0,0.0,0.0,0.0,0.0,0.0,0.0,0.0,0.0,0.0,0.0,0.0,0.0,0.0,0.0,0.0,0.0,0.0,0.0,0.0,0.0,-8.7606,-8.8495,-8.8517,0.0,0.0,0.0,0.0,-8.9893,-8.9797,0.0,0.0,0.0,0.0,0.0,0.0,0.0,0.0,0.0,0.0,0.0,0.0,0.0,0.0,0.0,0.0,0.0,0.0,0.0,0.0,0.0,0.0,0.0,0.0,0.0,0.0,0.0,0.0,0.0,0.0,0.0,0.0,0.0,0.0,0.0,0.0,0.0,0.0,0.0,0.0,0.0,0.0,0.0,0.0,0.0,0.0,0.0,0.0,0.0,0.0,0.0,0.0,0.0,0.0,0.0,0.0,-8.9625,-9.0521,-9.1378,-9.2197,-9.2352,-9.2781,-9.3521,-9.356,-9.356,0.0,0.0,0.0,0.0,0.0,0.0,0.0,0.0,0.0,0.0,0.0,0.0,0.0,0.0,0.0,0.0,0.0,0.0,0.0,0.0,0.0,0.0,0.0,0.0,0.0,0.0,0.0,0.0,0.0,0.0,0.0,0.0,0.0,0.0,0.0,0.0,0.0,0.0,0.0,0.0,0.0,-8.9824,-8.9361,-9.0404,-9.0698,0.0,0.0,-9.0141,-8.9965,-9.0001,0.0,0.0,0.0,0.0,0.0,0.0,0.0,0.0,0.0,0.0,0.0,0.0,0.0,0.0,0.0,0.0,0.0,0.0,0.0,0.0,0.0,0.0,0.0,0.0,0.0,0.0,0.0,0.0,0.0,0.0,0.0,0.0,0.0,0.0,0.0,0.0,0.0,0.0,0.0,0.0,0.0,0.0,0.0,0.0,0.0,0.0,0.0,0.0,0.0,0.0,0.0,0.0,0.0,0.0,0.0,-8.9897,-9.1222,-9.1651,-9.2508,-9.3755,-9.3794,-9.3989,-9.4379,-9.4379,-9.4379,0.0,0.0,0.0,0.0,0.0,0.0,0.0,0.0,0.0,0.0,0.0,0.0,0.0,0.0,0.0,0.0,0.0,0.0,0.0,0.0,0.0,0.0,0.0,0.0,0.0,0.0,0.0,0.0,0.0,0.0,0.0,0.0,0.0,0.0,0.0,0.0,0.0,0.0,0.0,0.0,0.0,0.0,-9.0623,-9.1216,0.0,0.0,0.0,-9.1144,-9.1062,0.0,0.0,0.0,0.0,0.0,0.0,0.0,0.0,0.0,0.0,0.0,0.0,0.0,0.0,0.0,0.0,0.0,0.0,0.0,0.0,0.0,0.0,0.0,0.0,0.0,0.0,0.0,0.0,0.0,0.0,0.0,0.0,0.0,0.0,0.0,0.0,0.0,0.0,0.0,0.0,0.0,0.0,0.0,0.0,0.0,0.0,0.0,0.0,0.0,0.0,0.0,0.0,0.0,0.0,0.0,0.0,0.0,-9.2352,-9.282,-9.3638,-9.4846,-9.4924,-9.5002,-9.5197,-9.5236,0.0,0.0,0.0,0.0,0.0,0.0,0.0,0.0,0.0,0.0,0.0,0.0,0.0,0.0,0.0,0.0,0.0,0.0,0.0,0.0,0.0,0.0,0.0,0.0,0.0,0.0,0.0,-9.0131,0.0,0.0,0.0,0.0,0.0,0.0,0.0,0.0,0.0,0.0,0.0,0.0,0.0,0.0,-9.1422,-9.1764,-9.2057,-9.1987,0.0,0.0,-9.2102,-9.2102,-9.2482,-9.276,0.0,0.0,0.0,0.0,0.0,0.0,0.0,0.0,0.0,0.0,0.0,0.0,0.0,0.0,0.0,0.0,0.0,0.0,0.0,0.0,0.0,0.0,0.0,0.0,0.0,0.0,0.0,0.0,0.0,0.0,0.0,0.0,0.0,0.0,0.0,0.0,0.0,0.0,0.0,0.0,0.0,0.0,0.0,0.0,0.0,0.0,0.0,0.0,0.0,0.0,0.0,0.0,0.0,0.0,-9.2313,-9.243,-9.395,-9.4768,-9.4924,-9.4924,-9.5275,-9.6093,-9.6093,-9.6093,0.0,0.0,0.0,0.0,0.0,0.0,0.0,0.0,0.0,0.0,0.0,0.0,0.0,0.0,0.0,0.0,0.0,0.0,0.0,0.0,0.0,0.0,0.0,0.0,0.0,0.0,0.0,0.0,0.0,0.0,0.0,0.0,0.0,0.0,0.0,0.0,0.0,0.0,0.0,0.0,0.0,-9.3326,-9.2691,-9.3293,-9.3541,0.0,0.0,-9.2935,-9.2935,-9.2972,-9.2926,-9.2713,0.0,0.0,0.0,0.0,0.0,0.0,0.0,0.0,0.0,0.0,0.0,0.0,0.0,0.0,0.0,0.0,0.0,0.0,0.0,0.0,0.0,0.0,0.0,0.0,0.0,0.0,0.0,0.0,0.0,0.0,0.0,0.0,0.0,0.0,0.0,0.0,0.0,0.0,0.0,0.0,0.0,0.0,0.0,0.0,0.0,0.0,0.0,0.0,0.0,0.0,0.0,0.0,0.0,-9.3716,-9.4729,-9.5353,-9.5937,-9.6483,-9.6483,-9.6678,-9.6989,-9.6989,-9.6989,0.0,0.0,0.0,0.0,0.0,0.0,0.0,0.0,0.0,0.0,0.0,0.0,0.0,0.0,0.0,0.0,0.0,0.0,0.0,0.0,0.0,0.0,0.0,0.0,0.0,0.0,0.0,0.0,-9.2595,-9.3277,-9.3808,0.0,0.0,0.0,0.0,0.0,0.0,0.0,0.0,0.0,0.0,-9.3709,-9.3528,-9.4121,0.0,0.0,-9.4374,-9.4545,-9.5,-9.475,-9.4622,-9.5035,-9.4467,0.0,0.0,0.0,0.0,0.0,0.0,0.0,0.0,0.0,0.0,0.0,0.0,0.0,0.0,0.0,0.0,0.0,0.0,0.0,0.0,0.0,0.0,0.0,0.0,0.0,0.0,0.0,0.0,0.0,0.0,0.0,0.0,0.0,0.0,0.0,0.0,0.0,0.0,0.0,0.0,0.0,0.0,0.0,0.0,0.0,0.0,0.0,0.0,0.0,0.0,0.0,0.0,-9.5002,-9.6171,-9.6444,-9.6873,-9.7457,-9.7496,-9.7496,-9.7496,-9.7496,-9.7496,0.0,0.0,0.0,0.0,0.0,0.0,0.0,0.0,0.0,0.0,0.0,0.0,0.0,0.0,0.0,0.0,0.0,0.0,0.0,0.0,0.0,0.0,0.0,0.0,0.0,0.0,0.0,0.0,-9.3429,-9.4187,-9.4717,0.0,0.0,0.0,0.0,0.0,0.0,0.0,0.0,0.0,0.0,-9.4591,-9.4921,-9.5442,-9.5756,-9.5875,-9.5731,-9.5847,-9.632,-9.6242,-9.6312,-9.6792,0.0,0.0,0.0,0.0,0.0,0.0,0.0,0.0,0.0,0.0,0.0,0.0,0.0,0.0,0.0,0.0,0.0,0.0,0.0,0.0,0.0,0.0,0.0,0.0,0.0,0.0,0.0,0.0,0.0,0.0,0.0,0.0,0.0,0.0,0.0,0.0,0.0,0.0,0.0,0.0,0.0,0.0,0.0,0.0,0.0,0.0,0.0,0.0,0.0,0.0,0.0,0.0,0.0,-9.6171,-9.6249,-9.7028,-9.7457,-9.7496,-9.7496,-9.7496,-9.7535,-9.7496,-9.7496,-9.7535,0.0,0.0,0.0,0.0,0.0,0.0,0.0,0.0,0.0,0.0,0.0,0.0,0.0,0.0,0.0,0.0,0.0,0.0,0.0,0.0,0.0,0.0,0.0,0.0,0.0,0.0,-9.358,-9.4262,-9.4755,0.0,0.0,0.0,0.0,0.0,0.0,0.0,0.0,0.0,0.0,-9.6029,-9.6332,-9.709,-9.7345,-9.7403,-9.7478,-9.6936,-9.6541,-9.6617,-9.7239,-9.779,0.0,0.0,0.0,0.0,0.0,0.0,0.0,0.0,0.0,0.0,0.0,0.0,0.0,0.0,0.0,0.0,0.0,0.0,0.0,0.0,0.0,0.0,0.0,0.0,0.0,0.0,0.0,-9.3819,-9.3819,0.0,0.0,0.0,0.0,0.0,0.0,0.0,0.0,0.0,0.0,0.0,-9.4528,-9.5307,0.0,0.0,0.0,0.0,0.0,0.0,0.0,0.0,0.0,0.0,0.0,0.0,-9.6483,-9.7067,-9.734,-9.7496,-9.7496,-9.7496,-9.7769,-9.8353,-9.8353,-9.8626,-9.9211,0.0,0.0,0.0,0.0,0.0,0.0,0.0,0.0,0.0,0.0,0.0,0.0,0.0,0.0,0.0,0.0,0.0,0.0,0.0,0.0,0.0,0.0,0.0,0.0,0.0,-9.4376,0.0,0.0,0.0,0.0,0.0,0.0,0.0,0.0,0.0,0.0,0.0,-9.6575,-9.6878,-9.6916,-9.7219,-9.8053,-9.8231,-9.8423,0.0,0.0,0.0,0.0,0.0,0.0,0.0,0.0,0.0,0.0,0.0,0.0,0.0,0.0,-9.8237,-9.7631,-9.8384,-9.9276,-9.9776,0.0,0.0,0.0,0.0,0.0,0.0,0.0,0.0,0.0,0.0,0.0,0.0,0.0,0.0,0.0,0.0,-9.4674,0.0,0.0,0.0,0.0,0.0,0.0,0.0,0.0,-9.5554,-9.5845,-9.6192,-9.7048,-9.7472,0.0,-9.8111,-9.7773,0.0,0.0,0.0,0.0,0.0,0.0,0.0,0.0,-9.7847,-9.8353,-9.8392,-9.8392,-9.8392,-9.8431,-9.8665,-9.925,-9.925,-9.9522,-10.0107,-10.0107,-10.0263,0.0,0.0,0.0,0.0,0.0,0.0,0.0,0.0,0.0,0.0,0.0,0.0,0.0,0.0,0.0,0.0,0.0,0.0,0.0,0.0,0.0,0.0,0.0,-9.5768,0.0,0.0,0.0,0.0,0.0,0.0,0.0,0.0,0.0,-9.6612,-9.6991,-9.7408,-9.7712,-9.7749,-9.8091,-9.8887,0.0,0.0,0.0,0.0,0.0,0.0,0.0,-10.0516,-10.1469,-10.164,-10.1495,-10.1117,-10.0758,-10.0535,-10.063,0.0,0.0,-9.9423,-9.9817,-10.0564,-10.1103,-10.0959,-10.1096,-10.2345,-10.2203,-10.2131,0.0,0.0,0.0,0.0,0.0,0.0,0.0,0.0,-9.479,-9.4829,0.0,-9.4829,0.0,0.0,0.0,0.0,0.0,0.0,0.0,0.0,-9.7012,-9.781,-9.8646,-9.9503,-9.9949,-10.0042,-10.0042,-10.0085,-10.0035,-9.8549,0.0,0.0,0.0,0.0,0.0,0.0,-10.0107,-10.0029,-10.0029,-10.0068,-10.0068,-10.0068,-10.0107,-10.0107,-10.0185,-10.0185,-10.0185,-10.0224,-10.0574,-10.1393,-10.1432,0.0,0.0,0.0,0.0,0.0,0.0,0.0,0.0,0.0,0.0,0.0,0.0,0.0,0.0,0.0,0.0,0.0,0.0,0.0,0.0,-9.7604,0.0,0.0,0.0,0.0,0.0,0.0,0.0,0.0,0.0,0.0,-9.7522,-9.7446,-9.7712,-9.8508,0.0,0.0,0.0,0.0,-9.9834,-9.9872,-9.9929,-10.0056,-10.0131,-10.1484,-10.2498,-10.2536,0.0,0.0,-10.338,-10.2963,-10.2571,-10.1899,-10.2217,-10.2566,-10.2684,-10.1879,-10.1809,-10.313,-10.2742,-10.2587,-10.3266,-10.3338,-10.3309,-9.8325,0.0,0.0,0.0,0.0,-9.6849,-9.6694,-9.6499,-9.6499,-9.6461,-9.6499,-9.6499,0.0,0.0,0.0,0.0,0.0,0.0,-9.7859,-9.8697,-9.8969,-9.9246,-9.9482,-10.0338,-10.0806,-10.0845,-10.1467,-10.1866,-10.1929,-10.1472,-10.0775,-9.9812,0.0,0.0,0.0,0.0,-10.0151,-10.0151,-10.019,-10.019,-10.0151,-10.019,-10.0463,-10.1009,-10.1646,-10.1944,-10.1944,-10.1915,-10.2016,-10.225,-10.225,0.0,0.0,0.0,0.0,0.0,0.0,0.0,0.0,0.0,0.0,0.0,0.0,0.0,0.0,0.0,0.0,0.0,0.0,0.0,-9.7703,-9.7654,-9.7654,0.0,0.0,0.0,0.0,0.0,0.0,0.0,0.0,0.0,-9.9274,-9.913,-9.919,0.0,0.0,-9.9531,-9.9758,-9.9796,-10.0024,-10.063,-10.0729,0.0,-10.2412,-10.3017,-10.3471,-10.4076,-10.4416,-10.4508,-10.4228,-10.3979,-10.3805,-10.4129,-10.4329,-10.4712,-10.5761,-10.4375,-10.3221,-10.342,-10.3341,-10.3321,-10.4048,-10.3902,-10.3559,-9.918,-9.8248,-9.8209,-9.8248,-9.8248,-9.8209,-9.8248,-9.8209,-9.8248,-9.8248,-9.8209,-9.8248,-9.7937,-9.7471,-9.7432,0.0,0.0,0.0,-9.9491,-10.0268,-10.0268,-10.0485,-10.0818,-10.1323,-10.16,-10.1681,-10.2186,-10.253,-10.2616,-10.2686,-10.2224,-10.1203,0.0,0.0,-10.1189,-10.1189,-10.1189,-10.1189,-10.1189,-10.1189,-10.1189,-10.1189,-10.1423,-10.1891,-10.2413,-10.2673,-10.2673,-10.2659,-10.2646,-10.2631,-10.2616,-10.2616,0.0,0.0,0.0,0.0,0.0,0.0,0.0,0.0,0.0,0.0,0.0,-9.9498,-9.8846,0.0,0.0,0.0,-9.883,-9.8935,-9.884,-9.8791,0.0,0.0,0.0,0.0,0.0,0.0,0.0,-10.0139,-10.0165,-10.0113,-10.0113,-10.0313,-10.0283,-9.9834,-9.9796,-9.991,-10.0289,0.0,-10.063,-10.1464,-10.1881,-10.2449,-10.3435,-10.3852,-10.4231,-10.4723,-10.4742,-10.4777,-10.5021,-10.4879,-10.4996,-10.5623,-10.601,-10.6339,-10.6936,-10.5975,-10.4924,-10.4611,-10.4232,-10.4192,-10.5048,-10.4527,-10.4195,-9.9996,-9.9996,-9.9996,-9.9918,-9.9802,-9.9802,-9.9802,-9.9802,-9.9802,-9.9802,-9.9802,-9.9802,-9.9802,-9.9802,-9.9879,0.0,-9.9879,-9.9957,-10.0423,-10.1084,-10.1084,-10.1511,-10.2288,-10.2288,-10.2311,-10.2417,-10.2395,-10.2401,-10.2517,-10.2624,-10.2679,-10.2695,-10.2764,-10.2782,-10.2722,-10.2722,-10.2722,-10.2683,-10.2722,-10.2683,-10.2722,-10.2722,-10.2722,-10.2722,-10.271,-10.271,-10.2671,-10.2671,-10.2698,-10.2698,-10.2698,-10.2646,-10.2601,0.0,0.0,0.0,0.0,0.0,0.0,0.0,0.0,0.0,0.0,0.0,0.0,0.0,0.0,0.0,-10.0183,0.0,-10.0604,-10.051,0.0,0.0,0.0,-10.0227,-10.0227,-10.0227,-10.0265,-10.0227,0.0,0.0,-10.0291,-10.1053,-10.1216,-10.0192,-10.0024,-10.0289,-10.1085,-10.1199,-10.1502,-10.2298,-10.3056,-10.3586,-10.3738,-10.4307,-10.4723,-10.4799,-10.4837,-10.5159,-10.5686,-10.5891,-10.611,-10.6654,-10.7279,-10.7503,-10.6549,-10.7069,-10.736,-10.6443,-10.559,-10.5253,-10.6198,-10.5645,-10.5382,-10.1705,-10.1705,-10.1705,-10.0967,-9.9802,-9.9802,-9.9802,-9.9802,-9.9802,-9.9802,-9.9802,-9.9802,-9.9802,-9.984,-10.0423,-10.0695,-10.0734,-10.1394,-10.1822,-10.1977,-10.1977,-10.2094,-10.2288,-10.2288,-10.2288,-10.2311,-10.235,-10.2439,-10.2568,-10.2593,-10.2686,-10.2777,-10.2796,-10.2781,-10.2772,-10.2772,-10.2772,-10.2772,-10.2772,-10.2772,-10.2772,-10.2772,-10.2772,-10.2772,-10.2792,-10.2782,-10.2782,-10.2722,-10.271,-10.2698,-10.2673,-10.2698,-10.2685,-10.2616,0.0,0.0,0.0,0.0,0.0,0.0,0.0,0.0,0.0,-10.1701,-10.106,0.0,-10.1048,0.0,-10.0489,-10.0604,-10.0604,-10.0557,0.0,0.0,-10.051,-10.051,-10.051,-10.051,-10.051,-10.051,-10.0985,-10.1317,-10.1317,-10.1979,-10.2423,-10.2129,-10.1947,-10.1931,-10.2121,-10.205,-10.2298,-10.3132,-10.3473,-10.3814,-10.4382,-10.4648,-10.4799,-10.4799,-10.533,-10.5861,-10.5992,-10.6442,-10.7003,-10.761,-10.772,-10.79,-10.8124,-10.8841,-10.8966,-10.8214,-10.7336,-10.7171,-10.8652,-10.7723,-10.6847,-10.2288,-10.2288,-10.2288,-10.1744,-10.0928,-10.0928,-10.0889,-10.0928,-10.0928,-10.0928,-10.0928,-10.0928,-10.0889,-10.0928,-10.1394,-10.1589,-10.1627,-10.2094,-10.2288,-10.2288,-10.2288,-10.2288,-10.2288,-10.2288,-10.2288,-10.2288,-10.2288,-10.2382,-10.2554,-10.2577,-10.264,-10.2753,-10.2803,-10.2789,-10.2789,-10.2789,-10.2789,-10.2789,-10.2789,-10.2789,-10.2789,-10.2789,-10.2789,-10.2789,-10.2781,-10.2811,-10.2811,-10.2753,-10.2743,-10.2772,-10.2749,-10.2725,-10.2698,-10.2685,-10.2616,0.0,0.0,0.0,0.0,0.0,0.0,0.0,0.0,0.0,0.0,0.0,-10.1318,-10.0658,-10.0604,-10.0604,-10.0604,-10.0604,-10.0604,-10.0604,-10.0604,-10.0604,-10.0604,-10.0604,-10.0757,-10.1139,-10.155,-10.1922,-10.2342,-10.3056,-10.3541,-10.3541,-10.3693,-10.3664,-10.3162,-10.3032,-10.3225,-10.3965,-10.4117,-10.4269,-10.4723,-10.4799,-10.4951,-10.533,-10.5785,-10.6315,-10.7073,-10.7507,-10.7994,-10.8604,-10.8629,-10.8699,-10.9329,-10.975,-11.003,-11.0347,-11.0011,-10.9929,-11.0337,-10.9228,-10.851,-10.2288,-10.2288,-10.2288,-10.2288,-10.2288,-10.2288,-10.2288,-10.2288,-10.2288,-10.2288,-10.2288,-10.2288,-10.2288,-10.2288,-10.2288,-10.2288,-10.2288,-10.2288,-10.2288,-10.2288,-10.2288,-10.2288,-10.2288,-10.2288,-10.2288,-10.2288,-10.2288,-10.2381,-10.2514,-10.2548,-10.2632,-10.2733,-10.2744,-10.2789,-10.2789,-10.2789,-10.2789,-10.2789,-10.2789,-10.2789,-10.2789,-10.2789,-10.2789,-10.2789,-10.2789,-10.2789,-10.2789,-10.2789,-10.2781,-10.2802,-10.2792,-10.2772,-10.2712,-10.2698,-10.2685,0.0,-10.2601,0.0,0.0,0.0,0.0,0.0,0.0,0.0,0.0,-10.1768,-10.1283,-10.0658,-10.0604,-10.0604,-10.0604,-10.0604,-10.0604,-10.0604,-10.0604,-10.0642,-10.0757,-10.0795,-10.11,-10.1979,-10.217,-10.2514,-10.324,-10.4043,-10.4577,-10.4567,-10.5014,-10.5015,-10.422,-10.3976,-10.4133,-10.4686,-10.4799,-10.4723,-10.4799,-10.4913,-10.5254,-10.5898,-10.6353,-10.6884,-10.8286,-10.8665,-10.8909,-10.9408,-10.951,-10.9621,-11.0177,-11.0306,-11.0845,-11.2051,-11.2318,-11.2249,-11.1614,-11.0664,-11.0294,-10.2288,-10.2288,-10.2288,-10.2288,-10.2288,-10.2288,-10.2288,-10.2288,-10.2288,-10.2288,-10.2288,-10.2288,-10.2288,-10.2288,-10.2288,-10.2288,-10.2288,-10.2288,-10.2288,-10.2288,-10.2288,-10.2288,-10.2288,-10.2288,-10.2288,-10.2288,-10.2288,-10.2381,-10.2568,-10.2585,-10.2647,-10.2771,-10.2796,-10.2789,-10.2789,0.0,0.0,0.0,-10.2789,-10.2789,-10.2789,-10.2789,-10.2789,-10.2789,-10.2789,0.0,-10.2789,-10.2789,-10.2789,-10.2781,-10.2802,0.0,0.0,0.0,0.0,0.0,0.0,0.0,0.0,0.0,0.0,0.0,-10.2601,-10.2439,-10.2117,-10.1555,-10.1056,-10.0612,-10.0604,-10.0604,-10.0604,-10.0604,-10.0604,-10.0604,-10.0604,-10.0871,-10.1559,-10.1674,-10.1979,-10.282,-10.3508,-10.3966,-10.4195,-10.4921,-10.5418,-10.5418,-10.556,-10.5548,-10.5206,-10.492,-10.4778,-10.4818,-10.4799,-10.4799,-10.4799,-10.5406,-10.5823,-10.6202,-10.7301,-10.8135,-10.8589,-10.9158,-10.9515,-10.9697,-11.0001,-11.0224,-11.0328,-11.1208,-11.2047,-11.246,-11.3023,-11.3402,-11.3221,-11.2434,-11.1798,-10.357,0.0,-10.357,-10.3337,0.0,-10.2948,-10.2715,-10.2288,-10.2288,-10.2288,-10.2288,-10.2288,-10.2288,-10.2288,-10.2288,-10.2288,-10.2288,-10.2288,-10.2288,-10.2288,-10.2288,-10.2288,-10.2288,-10.2288,-10.2288,-10.2288,-10.2288,-10.2382,-10.2554,-10.2568,-10.264,-10.2758,-10.281,-10.2789,-10.2789,-10.2789,-10.2789,-10.2789,-10.2789,-10.2789,-10.2789,-10.2789,-10.2789,-10.2789,0.0,0.0,0.0,0.0,0.0,0.0,0.0,0.0,0.0,0.0,0.0,-10.267,-10.2616,-10.2601,-10.2601,-10.2601,-10.2601,-10.2601,-10.2601,-10.2401,-10.1879,-10.1555,-10.1135,-10.0696,-10.0604,-10.0604,-10.0604,-10.0604,-10.0757,-10.1177,-10.1253,-10.1597,-10.2361,-10.2552,-10.2858,-10.366,-10.4157,-10.4539,-10.4998,-10.538,-10.5686,-10.5686,-10.5686,-10.5674,-10.5524,-10.5292,-10.504,-10.4856,-10.4799,-10.4989,-10.5368,-10.5747,-10.6467,-10.7187,-10.8059,-10.8703,-10.912,-10.9537,-10.9894,-11.025,-11.0442,-11.0704,-11.1516,-11.2142,-11.261,-11.3023,-11.3436,-11.3699,-11.3699,-11.3262,-11.2772,-10.4891,-10.4891,-10.4891,-10.4463,-10.3842,-10.3842,-10.3337,-10.2521,0.0,0.0,0.0,-10.2288,-10.2288,-10.2288,-10.2288,-10.2288,-10.2288,-10.2288,-10.2288,-10.2288,-10.2288,-10.2288,-10.2288,-10.2288,-10.2288,-10.2288,-10.2288,-10.2381,-10.2529,-10.2558,-10.2632,-10.2693,-10.2777,-10.2789,-10.2789,-10.2789,-10.2789,-10.2789,-10.2789,-10.2789,-10.2789,-10.2789,-10.2789,-10.2789,-10.2789,-10.2789,-10.2789,-10.2789,-10.2789,-10.2789,-10.2789,-10.2781,-10.2792,-10.2733,-10.2698,-10.2698,-10.267,-10.2679,-10.2796,-10.2835,-10.2874,-10.3029,-10.3068,-10.2635,-10.1718,-10.1618,-10.1318,-10.0658,-10.0718,-10.0833,-10.0833,-10.0986,-10.133,-10.2056,-10.2132,-10.2476,-10.324,-10.3431,-10.3737,-10.4463,-10.4654,-10.4883,-10.5571,-10.5686,-10.5686,-10.5686,-10.5686,-10.5636,-10.5485,-10.5292,-10.504,-10.4818,-10.4989,-10.5292,-10.5898,-10.6467,-10.7073,-10.8248,-10.8665,-10.9082,-10.9613,-10.9916,-11.0295,-11.0902,-11.0959,-11.1599,-11.2666,-11.2888,-11.2948,-11.3586,-11.3699,-11.3699,-11.3699,-11.3556,-11.3299,-10.4891,-10.4891,-10.4891,-10.4813,-10.4697,-10.4735,-10.423,-10.3376,-10.2638,-10.2288,-10.2288,-10.2288,-10.2288,-10.2288,-10.2288,-10.2288,-10.2288,-10.2288,-10.2288,0.0,-10.2288,-10.2288,-10.2288,-10.2288,-10.2288,-10.2288,-10.2288,-10.2381,-10.2558,-10.2585,-10.2686,-10.2783,-10.2796,-10.2789,-10.2789,-10.2789,-10.2789,-10.2789,-10.2789,-10.2789,-10.2789,-10.2789,-10.2789,-10.2789,-10.2789,-10.2789,-10.2789,-10.2789,-10.2789,-10.2789,-10.2789,-10.2781,-10.2792,-10.2831,-10.2761,-10.2698,-10.2698,-10.2982,-10.3653,-10.3731,-10.4043,-10.4744,-10.4861,-10.3957,-10.1796,-10.1618,-10.1318,-10.0703,-10.1292,-10.175,-10.175,-10.2361,-10.2782,-10.2973,-10.3011,-10.3355,-10.4119,-10.4234,-10.4539,-10.5342,-10.5495,-10.5495,-10.5647,-10.5686,-10.5686,-10.5686,-10.5686,-10.5587,-10.5344,-10.5094,-10.4985,-10.4932,-10.5444,-10.5898,-10.6353,-10.7377,-10.8173,-10.8552,-10.9196,-10.9613,-10.9878,-11.0409,-11.0939,-11.1129,-11.1904,-11.259,-11.3043,-11.3339,-11.3507,-11.3699,-11.3699,-11.3699,-11.3699,-11.3628,-11.3483,-10.625,-10.625,-10.625,-10.6017,-10.559,-10.5124,-10.4697,-10.4269,-10.3881,-10.3181,-10.2327,-10.2288,-10.2288,-10.2288,-10.2288,-10.2288,-10.2288,-10.2288,-10.2288,-10.2288,-10.2288,-10.2288,-10.2288,-10.2288,-10.2288,-10.2288,-10.2288,-10.236,-10.2429,-10.2577,-10.2626,-10.2695,-10.2788,-10.2789,-10.2789,-10.2789,-10.2789,-10.2789,-10.2789,-10.2789,-10.2789,-10.2789,-10.2789,-10.2789,-10.2789,-10.2789,-10.2789,-10.2789,-10.3023,-10.3491,-10.3491,-10.3717,-10.4177,-10.4168,-10.4138,-10.4129,-10.4116,-10.4244,-10.4588,-10.4588,-10.4744,-10.5173,-10.5212,-10.4717,-10.338,-10.3103,-10.2745,-10.2119,-10.24,-10.2591,-10.2629,-10.2973,-10.3355,-10.3813,-10.3852,-10.4195,-10.4921,-10.5112,-10.5265,-10.5647,-10.5686,-10.5686,-10.5686,-10.5686,-10.5686,-10.5686,-10.5686,-10.5587,-10.5396,-10.5201,-10.523,-10.5463,-10.5823,-10.6505,-10.7263,-10.8021,-10.8741,-10.9158,-10.9537,-10.9992,-11.0371,-11.0939,-11.1432,-11.2266,-11.2849,-11.3119,-11.3571,-11.3716,-11.3732,-11.3699,-11.3699,-11.3699,-11.3699,-11.3556,-11.3337,-10.7377,-10.7377,-10.7377,-10.7027,-10.6445,-10.5745,-10.5357,-10.5202,-10.5202,-10.4308,-10.2987,-10.2871,-10.2793,-10.2599,-10.2599,-10.2482,-10.2327,-10.2288,-10.2288,-10.2288,-10.2288,-10.2288,-10.2288,-10.2288,-10.2288,-10.2288,-10.2288,-10.2334,-10.2401,-10.2515,-10.2615,-10.264,-10.2758,-10.2906,-10.3062,-10.3101,-10.3179,-10.3374,-10.3374,-10.3179,-10.2828,-10.2789,-10.2906,-10.3062,-10.3101,-10.3179,-10.3374,-10.3374,-10.3687,-10.4311,-10.4389,-10.4702,-10.5326,-10.5348,-10.5319,-10.5285,-10.5299,-10.5389,-10.5484,-10.5679,-10.5796,-10.5796,-10.5796,-10.5631,-10.5264,-10.4935,-10.4324,-10.3525,-10.3411,-10.3469,-10.3508,-10.3699,-10.4004,-10.4616,-10.4692,-10.496,-10.5571,-10.5686,-10.5686,-10.5686,-10.5686,-10.5686,-10.5686,-10.5686,-10.5686,-10.5686,-10.5686,-10.5636,-10.5485,-10.5459,-10.5741,-10.6221,-10.6411,-10.6922,-10.8324,-10.8779,-10.912,-10.9764,-10.9992,-11.0409,-11.0939,-11.1318,-11.2039,-11.3251,-11.3455,-11.3638,-11.4137,-11.3979,-11.377,-11.3699,-11.3699,-11.3699,-11.3699,-11.341,-11.3113,-10.7377,-10.7377,-10.7377,-10.7377,-10.7261,-10.7144,-10.6717,-10.6134,-10.6095,-10.5551,-10.4697,-10.4658,-10.423,-10.357,-10.3492,-10.3104,-10.2404,-10.2327,-10.2366,-10.2366,-10.2288,-10.2288,-10.2404,-10.2366,-10.2288,-10.2366,-10.2404,-10.2537,-10.2694,-10.2703,-10.2725,-10.2783,-10.2796,-10.3257,-10.3882,-10.3999,-10.435,-10.5131,-10.5131,-10.4389,-10.2906,-10.2789,-10.3179,-10.396,-10.396,-10.435,-10.5014,-10.517,-10.517,-10.5287,-10.5287,-10.5326,-10.5443,-10.5404,-10.5378,-10.5375,-10.5324,-10.5611,-10.6358,-10.7121,-10.7472,-10.755,-10.7472,-10.7285,-10.6935,-10.6602,-10.5662,-10.4251,-10.4093,-10.4272,-10.4348,-10.4921,-10.5342,-10.5418,-10.5495,-10.5647,-10.5686,-10.5686,-10.5686,-10.5686,-10.5686,-10.5686,-10.5686,-10.5686,-10.5686,-10.5686,-10.5686,-10.5674,-10.5613,-10.5954,-10.648,-10.7074,-10.7265,-10.7604,-10.8514,-10.9234,-10.9575,-10.984,-11.0447,-11.0939,-11.1356,-11.2304,-11.3479,-11.363,-11.3946,-11.41,-11.4108,-11.4017,-11.3699,-11.3699,-11.3699,-11.3699,-11.3628,-11.341,-11.3113,-10.7377,-10.7377,-10.7377,-10.7377,-10.7377,-10.7377,-10.7222,-10.695,-10.6911,-10.6717,-10.6406,-10.6367,-10.5629,-10.4386,-10.4347,-10.4153,-10.3842,-10.3842,-10.3842,-10.3842,-10.3842,-10.3842,-10.3842,-10.3842,-10.3842,-10.3865,-10.3859,-10.3932,-10.4025,-10.4138,-10.4257,-10.4319,-10.435,-10.4506,-10.4858,-10.4858,-10.5053,-10.5404,-10.5404,-10.5053,-10.4428,-10.435,-10.4506,-10.4819,-10.4858,-10.5014,-10.5365,-10.5404,-10.5638,-10.6107,-10.6185,-10.6419,-10.6927,-10.6927,-10.6909,-10.6845,-10.6806,-10.6919,-10.7238,-10.7589,-10.7783,-10.7783,-10.7783,-10.775,-10.7539,-10.7026,-10.631,-10.5672,-10.5306,-10.5189,-10.5189,-10.5495,-10.5686,-10.5686,-10.5686,-10.5686,-10.5686,-10.5686,-10.5686,-10.5686,-10.5686,-10.5686,-10.5686,-10.5686,-10.5686,-10.5686,-10.5686,-10.5636,-10.5663,-10.612,-10.68,-10.7452,-10.7853,-10.84,-10.912,-10.9537,-10.9802,-10.9954,-11.0522,-11.1129,-11.1887,-11.2721,-11.3706,-11.4161,-11.4222,-11.4288,-11.4251,-11.3979,-11.3699,-11.3699,-11.3699,-11.3699,-11.3699,-11.341,-11.3188,-10.7391,-10.7377,-10.7377,-10.7377,-10.7377,-10.7377,-10.7377,-10.7377,-10.7377,-10.7377,-10.7377,-10.7377,-10.6755,-10.5668,-10.5357,-10.5124,-10.4891,-10.4891,-10.4891,-10.4891,-10.4891,-10.4891,-10.4891,-10.4891,-10.4891,-10.4876,-10.4912,-10.4962,-10.5026,-10.5225,-10.537,-10.5373,-10.5404,-10.5521,-10.5717,-10.5756,-10.5873,-10.6107,-10.6107,-10.6107,-10.6107,-10.6107,-10.599,-10.5795,-10.5756,-10.5873,-10.6107,-10.6107,-10.6419,-10.7005,-10.7044,-10.7356,-10.7942,-10.802,-10.7993,-10.7899,-10.783,-10.7783,-10.7783,-10.7783,-10.7783,-10.7783,-10.7783,-10.7783,-10.7693,-10.7119,-10.6718,-10.6619,-10.6084,-10.5647,-10.5686,-10.5686,-10.5686,-10.5686,-10.5686,-10.5686,-10.5686,-10.5686,-10.5686,-10.5686,-10.5686,-10.5686,-10.5686,-10.5686,-10.5686,-10.5686,-10.5686,-10.5838,-10.6056,-10.6502,-10.7142,-10.7942,-10.8537,-10.9082,-10.9689,-10.9802,-10.984,-11.0333,-11.0939,-11.1773,-11.2531,-11.3365,-11.3972,-11.4502,-11.4411,-11.4288,-11.4288,-11.4017,-11.3699,-11.3699,-11.3699,-11.3699,-11.3699,-11.3337,-11.3188,-10.7366,-10.7377,-10.7377,-10.7377,-10.7377,-10.7377,-10.7377,-10.7377,-10.7377,-10.7377,-10.7377,-10.7377,-10.7338,-10.7144,-10.6445,-10.5707,-10.5007,-10.5007,-10.5046,-10.5046,-10.5007,-10.493,-10.4891,-10.4891,-10.493,-10.5124,-10.5194,-10.5161,-10.5248,-10.5386,-10.5404,-10.5443,-10.556,-10.5873,-10.6536,-10.6653,-10.7044,-10.7629,-10.7708,-10.7786,-10.7825,-10.7825,-10.7395,-10.6732,-10.6653,-10.7005,-10.7669,-10.7825,-10.7864,-10.7903,-10.7903,-10.7942,-10.802,-10.802,-10.7954,-10.7899,-10.783,-10.7783,-10.7783,-10.7783,-10.7783,-10.7783,-10.7783,-10.7783,-10.7767,-10.7119,-10.6718,-10.6686,-10.6045,-10.5686,-10.5686,-10.5686,-10.5686,-10.5686,-10.5686,-10.5686,-10.5686,-10.5686,-10.5686,-10.5686,-10.5686,-10.5686,-10.5686,-10.5686,-10.5686,-10.5724,-10.5724,-10.5953,-10.6629,-10.7226,-10.7942,-10.8686,-10.9277,-10.9764,-10.9802,-10.9802,-11.0181,-11.075,-11.1432,-11.2418,-11.3365,-11.4123,-11.4502,-11.4705,-11.4486,-11.4288,-11.4221,-11.4086,-11.377,-11.3699,-11.3699,-11.3699,-11.3628,-11.3337,-11.3113,-10.7366,-10.7377,-10.7377,-10.7377,-10.7377,-10.7377,-10.7377,-10.7377,-10.7377,-10.7377,-10.7377,-10.7377,-10.7377,-10.7377,-10.7105,-10.6794,-10.6522,-10.6522,-10.6522,-10.6522,-10.6484,-10.6484,-10.6522,-10.6484,-10.6484,-10.6508,-10.6603,-10.6689,-10.6827,-10.6971,-10.7044,-10.7044,-10.7083,-10.7239,-10.7473,-10.7551,-10.7708,-10.7981,-10.802,-10.802,-10.802,-10.802,-10.7825,-10.7551,-10.7512,-10.7669,-10.7981,-10.802,-10.802,-10.802,-10.802,-10.802,-10.8011,-10.7954,-10.7922,-10.7899,-10.783,-10.7783,-10.7783,-10.7783,-10.7783,-10.7783,-10.7783,-10.7783,-10.7693,-10.7146,-10.6686,-10.6551,-10.6045,-10.5734,-10.5686,-10.5686,-10.5686,-10.5686,-10.5686,-10.5686,-10.5686,-10.5686,-10.5686,-10.5686,-10.5686,-10.5686,-10.5686,-10.5686,-10.5686,-10.5762,-10.6144,-10.6564,-10.6935,-10.7759,-10.8627,-10.899,-10.941,-10.9802,-10.9802,-10.9802,-11.0106,-11.0939,-11.1735,-11.2569,-11.3479,-11.4275,-11.473,-11.4705,-11.4551,-11.4288,-11.4221,-11.3979,-11.377,-11.3699,-11.3699,-11.3628,-11.3556,-11.3262,-11.3113,-10.7327,-10.7377,-10.7377,-10.7377,-10.7377,-10.7377,-10.7377,-10.7377,-10.7377,-10.7377,-10.7377,-10.7377,-10.7377,-10.7377,-10.7377,-10.7377,-10.7377,-10.7377,-10.7377,-10.7377,-10.7377,-10.7377,-10.7377,-10.7377,-10.7377,-10.7425,-10.7539,-10.7649,-10.7764,-10.7881,-10.7971,-10.7981,-10.802,-10.802,-10.802,-10.802,-10.802,-10.802,-10.802,-10.802,-10.802,-10.802,-10.802,-10.802,-10.802,-10.802,-10.802,-10.802,-10.802,-10.802,-10.802,-10.802,-10.8011,-10.7944,-10.7911,-10.7899,-10.7845,-10.78,-10.7783,-10.7783,-10.7783,-10.7783,-10.7783,-10.7783,-10.7767,-10.7222,-10.6882,-10.6624,-10.6253,-10.5839,-10.5734,-10.5686,-10.5686,-10.5686,-10.5686,-10.5686,-10.5686,-10.5686,-10.5686,-10.5686,-10.5686,-10.5686,-10.5686,-10.5686,-10.5686,-10.5686,-10.6412,-10.6908,-10.7393,-10.8179,-10.916,-10.9371,-10.96,-10.9824,-10.9954,-11.0106,-11.0636,-11.147,-11.2228,-11.2986,-11.363,-11.4389,-11.4768,-11.4743,-11.4551,-11.4355,-11.4086,-11.384,-11.377,-11.3699,-11.3699,-11.3628,-11.3483,-11.3225,-11.3037,-10.7366,-10.7377,-10.7377,-10.7377,-10.7377,-10.7377,-10.7377,-10.7377,-10.7377,-10.7377,-10.7377,-10.7377,-10.7377,-10.7377,-10.7377,-10.7377,-10.7377,-10.7377,-10.7377,-10.7377,-10.7377,-10.7377,-10.7377,-10.7377,-10.7377,-10.7401,-10.7539,-10.7639,-10.7715,-10.7808,-10.7881,-10.7989,-10.802,-10.802,-10.802,-10.802,-10.802,-10.802,-10.802,-10.802,-10.802,-10.802,-10.802,-10.802,-10.802,-10.802,-10.802,-10.802,-10.802,-10.802,-10.802,-10.802,-10.802,-10.7954,-10.7894,-10.7899,-10.782,-10.7791,-10.7783,-10.7783,-10.7783,-10.7783,-10.7783,-10.7783,-10.7711,-10.7377,-10.7026,-10.6686,-10.641,-10.6041,-10.5744,-10.5686,-10.5686,-10.5686,-10.5686,-10.5686,-10.5686,-10.5686,-10.5686,-10.5686,-10.5686,-10.5686,-10.5686,-10.5686,-10.5686,-10.5838,-10.6488,-10.729,-10.7978,-10.8674,-10.9388,-10.9903,-10.9999,-10.9802,-11.0143,-11.0522,-11.1318,-11.2114,-11.2872,-11.3593,-11.4123,-11.4768,-11.4768,-11.4743,-11.4551,-11.4288,-11.391,-11.377,-11.377,-11.3699,-11.3699,-11.3628,-11.341,-11.3188,-11.3037,-10.7327,-10.7377,-10.7377,-10.7377,-10.7377,-10.7377,-10.7377,-10.7377,-10.7377,-10.7377,-10.7377,-10.7377,-10.7377,-10.7377,-10.7377,-10.7377,-10.7377,-10.7377,-10.7377,-10.7377,-10.7377,-10.7377,-10.7377,-10.7377,-10.7377,-10.7425,-10.7539,-10.7625,-10.7708,-10.7767,-10.7884,-10.7996,-10.802,-10.802,-10.802,-10.802,-10.802,-10.802,-10.802,-10.802,-10.802,-10.802,-10.802,-10.802,-10.802,-10.802,-10.802,-10.802,-10.802,-10.802,-10.802,-10.802,-10.7972,-10.7954,-10.7894,-10.7899,-10.782,-10.7791,-10.78,-10.7783,-10.7783,-10.7783,-10.7783,-10.7783,-10.7767,-10.7438,-10.708,-10.6757,-10.6372,-10.6084,-10.5792,-10.5686,-10.5686,-10.5686,-10.5686,-10.5686,-10.5686,-10.5686,-10.5686,-10.5686,-10.5686,-10.5686,-10.5724,-10.5724,-10.58,-10.5953,-10.6946,-10.7978,-10.8271,-10.917,-10.9883,-11.0208,-10.9979,-10.984,-11.0068,-11.075,-11.1735,-11.2418,-11.3176,-11.3934,-11.4502,-11.4805,-11.4805,-11.4679,-11.4486,-11.4221,-11.384,-11.3699,-11.3699,-11.3699,-11.3699,-11.3556,-11.3262,-11.3113,-11.2961,-10.7313,-10.7391,-10.7416,-10.7377,-10.7377,-10.7377,-10.7377,-10.7377,-10.7377,-10.7377,-10.7377,-10.7377,-10.7377,-10.7377,-10.7377,-10.7377,-10.7377,-10.7377,-10.7377,-10.7377,-10.7377,-10.7377,-10.7377,-10.7377,-10.7377,-10.7401,-10.7498,-10.7581,-10.7708,-10.7752,-10.7851,-10.7996,-10.802,-10.802,-10.802,-10.802,-10.802,-10.802,-10.802,-10.802,-10.802,-10.802,-10.802,-10.802,-10.802,-10.802,-10.802,-10.802,-10.802,-10.802,-10.802,-10.802,-10.802,-10.7963,-10.7944,-10.7899,-10.7873,-10.7845,-10.78,-10.7783,-10.7783,-10.7783,-10.7783,-10.7783,-10.7767,-10.7539,-10.7222,-10.675,-10.6519,-10.6174,-10.5792,-10.5686,-10.5686,-10.5686,-10.5686,-10.5686,-10.5686,-10.5686,-10.5686,-10.5686,-10.5686,-10.5838,-10.6068,-10.6144,-10.6297,-10.6717,-10.7787,-10.8666,-10.8844,-10.9589,-11.0052,-11.0246,-10.9979,-10.99,-10.9954,-11.0864,-11.2114,-11.2759,-11.3365,-11.4047,-11.4692,-11.4768,-11.4805,-11.4616,-11.4355,-11.4154,-11.384,-11.377,-11.3699,-11.3699,-11.3699,-11.3483,-11.3262,-11.3188,-11.3037,-10.7231,-10.7274,-10.7391,-10.7416,-10.7377,-10.7377,-10.7377,-10.7377,-10.7377,-10.7377,-10.7377,-10.7377,-10.7377,-10.7377,-10.7377,-10.7377,-10.7377,-10.7377,-10.7377,-10.7377,-10.7377,-10.7377,-10.7377,-10.7377,-10.7377,-10.7377,-10.7401,-10.7519,-10.7699,-10.7715,-10.7806,-10.7996,-10.802,-10.802,-10.802,-10.802,-10.802,-10.802,-10.802,-10.802,-10.802,-10.802,-10.802,-10.802,-10.802,-10.802,-10.802,-10.802,-10.802,-10.802,-10.802,-10.802,-10.802,-10.802,-10.7954,-10.7899,-10.7899,-10.7859,-10.78,-10.7783,-10.7783,-10.7783,-10.7783,-10.7783,-10.7783,-10.7711,-10.7416,-10.6782,-10.6653,-10.641,-10.5848,-10.5686,-10.5686,-10.5686,-10.5686,-10.5686,-10.5686,-10.5686,-10.5762,-10.5838,-10.5838,-10.6068,-10.6832,-10.6985,-10.7329,-10.7902,-10.8704,-10.9124,-10.9327,-10.9703,-11.0149,-11.0189,-10.9921,-11.0127,-11.0219,-11.1167,-11.2342,-11.3062,-11.363,-11.4275,-11.473,-11.4705,-11.4679,-11.4486,-11.4288,-11.4048,-11.384,-11.377,-11.3699,-11.3699,-11.3628,-11.3483,-11.3337,-11.3188,-11.2961,-10.7202,-10.7313,-10.734,-10.7327,-10.7377,-10.7377,-10.7377,-10.7377,-10.7377,-10.7377,-10.7377,-10.7377,-10.7377,-10.7377,-10.7377,-10.7377,-10.7377,-10.7377,-10.7377,-10.7377,-10.7377,-10.7377,-10.7377,-10.7377,-10.7377,-10.7377,-10.7401,-10.75,-10.769,-10.7708,-10.7806,-10.7989,-10.802,-10.802,-10.802,-10.802,-10.802,-10.802,-10.802,-10.802,-10.802,-10.802,-10.802,-10.802,-10.802,-10.802,-10.802,-10.802,-10.802,-10.802,-10.802,-10.802,-10.802,-10.802,-10.8002,-10.7911,-10.7899,-10.7873,-10.78,-10.7783,-10.7783,-10.7783,-10.7783,-10.7783,-10.7783,-10.7783,-10.7416,-10.6882,-10.6686,-10.6409,-10.5848,-10.5686,-10.5686,-10.5686,-10.5762,-10.5762,-10.5762,-10.5724,-10.5915,-10.645,-10.6564,-10.7023,-10.7596,-10.7863,-10.7978,-10.8398,-10.8933,-10.9455,-10.9619,-10.9856,-11.0301,-11.0094,-10.9997,-11.0317,-11.075,-11.166,-11.2531,-11.3327,-11.3972,-11.454,-11.4705,-11.4642,-11.4551,-11.4355,-11.4221,-11.3979,-11.384,-11.3699,-11.3699,-11.3699,-11.3628,-11.3483,-11.3262,-11.3113,-11.2884,-10.7144,-10.7259,-10.7313,-10.7366,-10.7377,-10.7377,-10.7377,-10.7377,-10.7377,-10.7377,-10.7377,-10.7377,-10.7377,-10.7377,-10.7377,-10.7377,-10.7377,-10.7377,-10.7377,-10.7377,-10.7377,-10.7377,-10.7377,-10.7377,-10.7377,-10.7377,-10.7377,-10.748,-10.7671,-10.7708,-10.7808,-10.7971,-10.802,-10.802,-10.802,-10.802,-10.802,-10.802,-10.802,-10.802,-10.802,-10.802,-10.802,-10.802,-10.802,-10.802,-10.802,-10.802,-10.802,-10.802,-10.802,-10.802,-10.802,-10.802,-10.7963,-10.7922,-10.7911,-10.7873,-10.783,-10.78,-10.7783,-10.7783,-10.7783,-10.7783,-10.7783,-10.7783,-10.7519,-10.7026,-10.682,-10.6446,-10.5997,-10.5792,-10.5686,-10.5724,-10.5991,-10.6182,-10.622,-10.622,-10.6603,-10.7176,-10.7481,-10.7749,-10.8589,-10.8704,-10.8895,-10.9239,-10.9736,-10.9914,-10.9924,-11.0183,-11.0246,-11.0037,-11.0035,-11.0317,-11.0902,-11.1773,-11.2721,-11.3517,-11.4161,-11.4768,-11.4743,-11.4642,-11.4449,-11.4251,-11.4116,-11.391,-11.377,-11.3699,-11.3699,-11.3699,-11.3628,-11.3483,-11.3262,-11.3037,-11.2807,-10.7114,-10.7202,-10.7286,-10.7301,-10.7391,-10.7377,-10.7377,-10.7377,-10.7377,-10.7377,-10.7377,-10.7377,-10.7377,-10.7377,-10.7377,-10.7377,-10.7377,-10.7377,-10.7377,-10.7377,-10.7377,-10.7377,-10.7377,-10.7377,-10.7377,-10.7377,-10.7377,-10.7537,-10.766,-10.7708,-10.7808,-10.7976,-10.802,-10.802,-10.802,-10.802,-10.802,-10.802,-10.802,-10.802,-10.802,-10.802,-10.802,-10.802,-10.802,-10.802,-10.802,-10.802,-10.802,-10.802,-10.802,-10.802,-10.802,-10.802,-10.7963,-10.7905,-10.7911,-10.7886,-10.7806,-10.78,-10.7783,-10.7783,-10.7783,-10.7783,-10.7783,-10.7783,-10.7617,-10.7197,-10.6873,-10.6519,-10.6088,-10.5848,-10.5849,-10.5953,-10.6526,-10.687,-10.7099,-10.7099,-10.7367,-10.8169,-10.8284,-10.8704,-10.9239,-10.9583,-10.9774,-10.9927,-11.0309,-11.0244,-11.0176,-11.0204,-11.0189,-10.9979,-11.0014,-11.0219,-11.1015,-11.1887,-11.2797,-11.3668,-11.4313,-11.4768,-11.4743,-11.4642,-11.4449,-11.4251,-11.4048,-11.391,-11.377,-11.3699,-11.3699,-11.3628,-11.3628,-11.341,-11.3188,-11.2961,-11.2807,-10.706,-10.7114,-10.7202,-10.7259,-10.7301,-10.7352,-10.7377,-10.7377,-10.7377,-10.7377,-10.7377,-10.7377,-10.7377,-10.7377,-10.7377,-10.7377,-10.7377,-10.7377,-10.7377,-10.7377,-10.7377,-10.7377,-10.7377,-10.7377,-10.7377,-10.7377,-10.7377,-10.75,-10.766,-10.7715,-10.7806,-10.7964,-10.7981,-10.802,-10.802,-10.802,-10.802,-10.802,-10.802,-10.802,-10.802,-10.802,-10.802,-10.802,-10.802,-10.802,-10.802,-10.802,-10.802,-10.802,-10.802,-10.802,-10.802,-10.802,-10.7972,-10.7944,-10.7922,-10.7886,-10.7806,-10.7776,-10.7783,-10.7783,-10.7783,-10.7783,-10.7783,-10.7783,-10.7617,-10.7246,-10.6873,-10.6446,-10.5901,-10.5783,-10.5991,-10.6412,-10.6832,-10.7481,-10.8398,-10.8284,-10.8322,-10.8895,-10.9163,-10.9468,-11.0271,-11.0309,-11.0462,-11.0691,-11.0639,-11.0587,-11.0466,-11.0357,-11.0189,-10.9921,-10.9938,-11.0257,-11.1546,-11.238,-11.3289,-11.3934,-11.4464,-11.4768,-11.4743,-11.4616,-11.4421,-11.4184,-11.3979,-11.384,-11.3699,-11.3699,-11.3699,-11.3628,-11.3556,-11.3337,-11.3113,-11.2961,-11.2729,-10.7021,-10.7084,-10.7144,-10.7202,-10.7274,-10.7366,-10.7391,-10.7377,-10.7377,-10.7377,-10.7377,-10.7377,-10.7377,-10.7377,-10.7377,-10.7377,-10.7377,-10.7377,-10.7377,-10.7377,-10.7377,-10.7377,-10.7377,-10.7377,-10.7377,-10.7377,-10.7377,-10.752,-10.7625,-10.7699,-10.7757,-10.7913,-10.7964,-10.7981,-10.802,-10.802,-10.802,-10.802,-10.802,-10.802,-10.802,-10.802,-10.802,-10.802,-10.802,-10.802,-10.802,-10.802,-10.802,-10.802,-10.802,-10.802,-10.802,-10.802,-10.7972,-10.7963,-10.7894,-10.7911,-10.7834,-10.7791,-10.78,-10.7783,-10.7783,-10.7783,-10.7783,-10.7783,-10.7711,-10.7438,-10.6998,-10.6409,-10.5792,-10.5686,-10.6106,-10.6755,-10.729,-10.8054,-10.901,-10.901,-10.9086,-10.9736,-11.0003,-11.0194,-11.0538,-11.0653,-11.0691,-11.0691,-11.0691,-11.0587,-11.0412,-11.0301,-11.0132,-10.9921,-10.9862,-11.0409,-11.1887,-11.2986,-11.3896,-11.4351,-11.4616,-11.4805,-11.4805,-11.4551,-11.4288,-11.4154,-11.4017,-11.377,-11.3699,-11.3699,-11.3699,-11.3628,-11.3483,-11.3337,-11.3037,-11.2807,-11.265,-10.7028,-10.7091,-10.7084,-10.7174,-10.7286,-10.7313,-10.7366,-10.7377,-10.7377,-10.7377,-10.7377,-10.7377,-10.7377,-10.7377,-10.7377,-10.7377,-10.7377,-10.7377,-10.7377,-10.7377,-10.7377,-10.7377,-10.7377,-10.7377,-10.7377,-10.7377,-10.7377,-10.7498,-10.7597,-10.7671,-10.7757,-10.781,-10.7937,-10.7981,-10.802,-10.802,-10.802,-10.802,-10.802,-10.802,-10.802,-10.802,-10.802,-10.802,-10.802,-10.802,-10.802,-10.802,-10.802,-10.802,-10.802,-10.802,-10.802,-10.802,-10.802,-10.802,-10.7954,-10.7922,-10.7899,-10.782,-10.7791,-10.7783,-10.7783,-10.7783,-10.7783,-10.7783,-10.7783,-10.7539,-10.7146,-10.6409,-10.5792,-10.5686,-10.6182,-10.6985,-10.7825,-10.8589,-10.9354,-10.9583,-10.9965,-11.0385,-11.0462,-11.0538,-11.0614,-11.0691,-11.0691,-11.0691,-11.0691,-11.0587,-11.0412,-11.0246,-11.0132,-10.9921,-10.9802,-11.0522,-11.1963,-11.3479,-11.4389,-11.4578,-11.4805,-11.4805,-11.4743,-11.4551,-11.4288,-11.4221,-11.4086,-11.384,-11.3699,-11.3699,-11.3699,-11.3628,-11.3483,-11.3188,-11.2961,-11.2729,-11.2571,-10.6995,-10.7028,-10.7091,-10.7144,-10.7231,-10.7286,-10.734,-10.7377,-10.7377,-10.7377,-10.7377,-10.7377,-10.7377,-10.7377,-10.7377,-10.7377,-10.7377,-10.7377,-10.7377,-10.7377,-10.7377,-10.7377,-10.7377,-10.7377,-10.7377,-10.7377,-10.7401,-10.75,-10.7652,-10.7708,-10.7761,-10.7948,-10.7989,-10.802,-10.802,-10.802,-10.802,-10.802,-10.802,-10.802,-10.802,-10.802,-10.802,-10.802,-10.802,-10.802,-10.802,-10.802,-10.802,-10.802,-10.802,-10.802,-10.802,-10.802,-10.802,-10.7972,-10.7963,-10.7933,-10.7899,-10.7834,-10.7791,-10.78,-10.7783,-10.7783,-10.7783,-10.7783,-10.7728,-10.7519,-10.7092,-10.6409,-10.5744,-10.5686,-10.6488,-10.7443,-10.8131,-10.8819,-10.9965,-11.0385,-11.0385,-11.0653,-11.0691,-11.0691,-11.0691,-11.0691,-11.0691,-11.0691,-11.0691,-11.0587,-11.0357,-11.0246,-11.0132,-11.0017,-10.9802,-11.0826,-11.2039,-11.3555,-11.473,-11.4692,-11.4805,-11.4705,-11.4578,-11.4421,-11.4288,-11.4154,-11.4017,-11.377,-11.3699,-11.3699,-11.3699,-11.3699,-11.341,-11.3113,-11.2961,-11.2807,-11.2571,-10.6995,-10.6995,-10.706,-10.7053,-10.7144,-10.7231,-10.7286,-10.7366,-10.7391,-10.7377,-10.7377,-10.7377,-10.7377,-10.7377,-10.7377,-10.7377,-10.7377,-10.7377,-10.7377,-10.7377,-10.7377,-10.7377,-10.7377,-10.7377,-10.7377,-10.7377,-10.7401,-10.748,-10.7652,-10.7681,-10.7761,-10.7884,-10.7964,-10.802,-10.802,-10.802,-10.802,-10.802,-10.802,-10.802,-10.802,-10.802,-10.802,-10.802,-10.802,-10.802,-10.802,-10.802,-10.802,-10.802,-10.802,-10.802,-10.802,-10.802,-10.802,-10.802,-10.7972,-10.7944,-10.7911,-10.7834,-10.7845,-10.78,-10.7783,-10.7783,-10.7783,-10.7767,-10.7636,-10.7222,-10.6998,-10.6409,-10.5744,-10.5686,-10.6526,-10.7749,-10.8207,-10.901,-11.0156,-11.0576,-11.0691,-11.0691,-11.0691,-11.0691,-11.0691,-11.0691,-11.0691,-11.0691,-11.0691,-11.0535,-11.0357,-11.0246,-11.0189,-11.0186,-11.0219,-11.1205,-11.2342,-11.363,-11.4768,-11.4805,-11.4805,-11.4642,-11.4513,-11.4383,-11.4221,-11.4154,-11.391,-11.3699,-11.3699,-11.3699,-11.3699,-11.3628,-11.3337,-11.3113,-11.3037,-11.2884,-11.2571,-10.6995,-10.6995,-10.6995,-10.706,-10.7084,-10.7174,-10.7259,-10.7313,-10.7391,-10.7377,-10.7377,-10.7377,-10.7377,-10.7377,-10.7377,-10.7377,-10.7377,-10.7377,-10.7377,-10.7377,-10.7377,-10.7377,-10.7377,-10.7377,-10.7377,-10.7377,-10.7377,-10.7498,-10.7625,-10.7671,-10.7752,-10.7886,-10.7957,-10.802,-10.802,-10.802,-10.802,-10.802,-10.802,-10.802,-10.802,-10.802,-10.802,-10.802,-10.802,-10.802,-10.802,-10.802,-10.802,-10.802,-10.802,-10.802,-10.802,-10.802,-10.802,-10.802,-10.802,-10.7954,-10.7922,-10.7899,-10.7873,-10.7815,-10.78,-10.7783,-10.7783,-10.7711,-10.7519,-10.6882,-10.6653,-10.6409,-10.5839,-10.5686,-10.6564,-10.7711,-10.8284,-10.878,-11.008,-11.0691,-11.0691,-11.0691,-11.0691,-11.0691,-11.0691,-11.0691,-11.0691,-11.0691,-11.0691,-11.0587,-11.0412,-11.0301,-11.0265,-11.0414,-11.0788,-11.1697,-11.2721,-11.3706,-11.454,-11.4805,-11.4805,-11.4705,-11.4513,-11.4355,-11.4184,-11.3979,-11.384,-11.3699,-11.3699,-11.3699,-11.3628,-11.3556,-11.3337,-11.3113,-11.2961,-11.2807,-11.2571,-10.6995,-10.6995,-10.6995,-10.706,-10.7084,-10.7174,-10.7231,-10.7313,-10.7352,-10.7377,-10.7377,-10.7377,-10.7377,-10.7377,-10.7377,-10.7377,-10.7377,-10.7377,-10.7377,-10.7377,-10.7377,-10.7377,-10.7377,-10.7377,-10.7377,-10.7377,-10.7377,-10.7519,-10.7613,-10.769,-10.7803,-10.7909,-10.7964,-10.802,-10.802,-10.802,-10.802,-10.802,-10.802,-10.802,-10.802,-10.802,-10.802,-10.802,-10.802,-10.802,-10.802,-10.802,-10.802,-10.802,-10.802,-10.802,-10.802,-10.802,-10.802,-10.802,-10.802,-10.7972,-10.7944,-10.7911,-10.7886,-10.7845,-10.7776,-10.7783,-10.7783,-10.7767,-10.7519,-10.682,-10.6686,-10.6409,-10.594,-10.5734,-10.6603,-10.7481,-10.8246,-10.9086,-11.0232,-11.0691,-11.0691,-11.0691,-11.0691,-11.0691,-11.0691,-11.0691,-11.0691,-11.0691,-11.0691,-11.0587,-11.0481,-11.0357,-11.0189,-11.0262,-11.1053,-11.2039,-11.2759,-11.382,-11.4464,-11.4805,-11.4743,-11.4679,-11.4486,-11.4288,-11.4048,-11.391,-11.377,-11.3699,-11.3699,-11.3699,-11.3628,-11.3483,-11.3262,-11.3037,-11.2884,-11.265,-11.2492,-10.6995,-10.6995,-10.6995,-10.7028,-10.706,-10.7114,-10.7174,-10.7259,-10.734,-10.7352,-10.7377,-10.7377,-10.7377,-10.7377,-10.7377,-10.7377,-10.7377,-10.7377,-10.7377,-10.7377,-10.7377,-10.7377,-10.7377,-10.7377,-10.7377,-10.7377,-10.7401,-10.7498,-10.7611,-10.769,-10.78,-10.7884,-10.7964,-10.802,-10.802,-10.802,-10.802,-10.802,-10.802,-10.802,-10.802,-10.802,-10.802,-10.802,-10.802,-10.802,-10.802,-10.802,-10.802,-10.802,-10.802,-10.802,-10.802,-10.802,-10.802,-10.802,-10.802,-10.7972,-10.7905,-10.7894,-10.786,-10.782,-10.7791,-10.7776,-10.78,-10.7767,-10.7598,-10.7054,-10.6782,-10.6446,-10.6041,-10.5839,-10.6728,-10.7558,-10.8169,-10.9277,-11.0156,-11.0462,-11.0691,-11.0691,-11.0691,-11.0691,-11.0691,-11.0691,-11.0691,-11.0691,-11.0691,-11.0587,-11.0428,-11.0263,-11.0037,-10.99,-11.1015,-11.2228,-11.2872,-11.3668,-11.4464,-11.4805,-11.4642,-11.4513,-11.4355,-11.4221,-11.3979,-11.384,-11.377,-11.3699,-11.3699,-11.3699,-11.3628,-11.3483,-11.3262,-11.3037,-11.2807,-11.265,-11.2492,-10.6995,-10.6995,-10.6995,-10.6995,-10.6995,-10.7091,-10.7144,-10.7202,-10.7286,-10.7366,-10.7352,-10.7377,-10.7377,-10.7377,-10.7377,-10.7377,-10.7377,-10.7377,-10.7377,-10.7377,-10.7377,-10.7377,-10.7377,-10.7377,-10.7377,-10.7377,-10.7377,-10.7455,-10.7537,-10.7638,-10.7748,-10.7812,-10.7937,-10.7989,-10.802,-10.802,-10.802,-10.802,-10.802,-10.802,-10.802,-10.802,-10.802,-10.802,-10.802,-10.802,-10.802,-10.802,-10.802,-10.802,-10.802,-10.802,-10.802,-10.802,-10.802,-10.802,-10.802,-10.7972,-10.7924,-10.7905,-10.7872,-10.7834,-10.7791,-10.7776,-10.78,-10.7783,-10.7617,-10.7197,-10.6882,-10.6589,-10.6215,-10.5894,-10.6652,-10.7481,-10.8207,-10.9315,-11.0232,-11.05,-11.0691,-11.0691,-11.0691,-11.0691,-11.0691,-11.0691,-11.0691,-11.0691,-11.0639,-11.0587,-11.0428,-11.0208,-11.0265,-11.0203,-11.1167,-11.2418,-11.3138,-11.3744,-11.4426,-11.4743,-11.4578,-11.4449,-11.4355,-11.4154,-11.391,-11.384,-11.3699,-11.3699,-11.3699,-11.3699,-11.3628,-11.341,-11.3113,-11.2961,-11.2807,-11.2571,-11.2449,-10.6995,-10.6995,-10.6995,-10.6995,-10.6995,-10.7053,-10.7114,-10.7202,-10.7286,-10.7301,-10.7377,-10.7377,-10.7377,-10.7377,-10.7377,-10.7377,-10.7377,-10.7377,-10.7377,-10.7377,-10.7377,-10.7377,-10.7377,-10.7377,-10.7377,-10.7377,-10.7377,-10.7401,-10.7498,-10.7625,-10.7736,-10.7812,-10.7943,-10.7989,-10.802,-10.802,-10.802,-10.802,-10.802,-10.802,-10.802,-10.802,-10.802,-10.802,-10.802,-10.802,-10.802,-10.802,-10.802,-10.802,-10.802,-10.802,-10.802,-10.802,-10.802,-10.802,-10.802,-10.7981,-10.7972,-10.7915,-10.7894,-10.7847,-10.7845,-10.78,-10.7783,-10.7783,-10.7578,-10.727,-10.697,-10.6624,-10.6255,-10.6055,-10.6575,-10.7558,-10.836,-10.9201,-11.0041,-11.0538,-11.0691,-11.0691,-11.0691,-11.0691,-11.0691,-11.0691,-11.0691,-11.0691,-11.0691,-11.0639,-11.0466,-11.0284,-11.0569,-11.0869,-11.1584,-11.2569,-11.3403,-11.4047,-11.4616,-11.4743,-11.4578,-11.4449,-11.4355,-11.4154,-11.3878,-11.377,-11.3699,-11.3699,-11.3699,-11.3628,-11.3483,-11.3262,-11.3037,-11.2884,-11.2729,-11.2571,-11.2412,-10.6995,-10.6995,-10.6995,-10.6995,-10.6995,-10.7028,-10.7084,-10.7202,-10.7231,-10.7313,-10.7377,-10.7377,-10.7377,-10.7377,-10.7377,-10.7377,-10.7377,-10.7377,-10.7377,-10.7377,-10.7377,-10.7377,-10.7377,-10.7377,-10.7377,-10.7377,-10.7377,-10.7377,-10.741,-10.76,-10.7699,-10.7764,-10.7913,-10.7996,-10.802,-10.802,-10.802,-10.802,-10.802,-10.802,-10.802,-10.802,-10.802,-10.802,-10.802,-10.802,-10.802,-10.802,-10.802,-10.802,-10.802,-10.802,-10.802,-10.802,-10.802,-10.802,-10.802,-10.802,-10.802,-10.7972,-10.7944,-10.7899,-10.7859,-10.7776,-10.7783,-10.7783,-10.7767,-10.7438,-10.7026,-10.6653,-10.6519,-10.6117,-10.6297,-10.7596,-10.8551,-10.9277,-10.9927,-11.05,-11.0691,-11.0691,-11.0691,-11.0691,-11.0691,-11.0691,-11.0691,-11.0691,-11.0691,-11.0587,-11.0412,-11.0398,-11.0702,-11.1173,-11.1887,-11.2759,-11.3593,-11.4199,-11.4768,-11.4679,-11.4578,-11.4421,-11.4288,-11.3979,-11.377,-11.3699,-11.3699,-11.3699,-11.3628,-11.3556,-11.341,-11.3188,-11.2961,-11.2807,-11.265,-11.2492,-11.2331,-10.6995,-10.6995,-10.6995,-10.6995,-10.6995,-10.6995,-10.7091,-10.7144,-10.7202,-10.7286,-10.7377,-10.7377,-10.7377,-10.7377,-10.7377,-10.7377,-10.7377,-10.7377,-10.7377,-10.7377,-10.7377,-10.7377,-10.7377,-10.7377,-10.7377,-10.7377,-10.7377,-10.7377,-10.7401,-10.76,-10.7651,-10.7752,-10.7886,-10.7996,-10.802,-10.802,-10.802,-10.802,-10.802,-10.802,-10.802,-10.802,-10.802,-10.802,-10.802,-10.802,-10.802,-10.802,-10.802,-10.802,-10.802,-10.802,-10.802,-10.802,-10.802,-10.802,-10.802,-10.802,-10.802,-10.7972,-10.7954,-10.7899,-10.782,-10.7791,-10.78,-10.7783,-10.7767,-10.7711,-10.7197,-10.6782,-10.6796,-10.6521,-10.6796,-10.8001,-10.8628,-10.9315,-11.008,-11.0691,-11.0691,-11.0691,-11.0691,-11.0691,-11.0691,-11.0691,-11.0691,-11.0691,-11.0691,-11.0587,-11.0412,-11.0474,-11.0778,-11.1384,-11.2001,-11.291,-11.3782,-11.4351,-11.4805,-11.4578,-11.4449,-11.4355,-11.4154,-11.384,-11.3699,-11.3699,-11.3699,-11.3699,-11.3556,-11.341,-11.3262,-11.3113,-11.2884,-11.265,-11.2571,-11.2492,-11.2331,-10.6995,-10.6995,-10.6995,-10.6995,-10.6995,-10.6995,-10.706,-10.7114,-10.7174,-10.7286,-10.7416,-10.7377,-10.7377,-10.7377,-10.7377,-10.7377,-10.7377,-10.7377,-10.7377,-10.7377,-10.7377,-10.7377,-10.7377,-10.7377,-10.7377,-10.7377,-10.7377,-10.7377,-10.7377,-10.7586,-10.769,-10.7748,-10.7886,-10.802,-10.802,-10.802,-10.802,-10.802,-10.802,-10.802,-10.802,-10.802,-10.802,-10.802,-10.802,-10.802,-10.802,-10.802,-10.802,-10.802,-10.802,-10.802,-10.802,-10.802,-10.802,-10.802,-10.802,-10.802,-10.802,-10.7963,-10.7933,-10.7899,-10.7834,-10.783,-10.78,-10.7783,-10.7783,-10.7767,-10.7355,-10.7026,-10.6989,-10.7104,-10.762,-10.8136,-10.8716,-10.948,-11.0245,-11.0691,-11.0691,-11.0691,-11.0691,-11.0691,-11.0691,-11.0691,-11.0691,-11.0691,-11.0691,-11.0535,-11.0357,-11.0417,-11.074,-11.1574,-11.2228,-11.31,-11.3972,-11.4464,-11.4743,-11.4578,-11.4383,-11.4288,-11.4086,-11.384,-11.377,-11.3699,-11.3699,-11.3699,-11.3446,-11.3262,-11.3113,-11.2961,-11.2729,-11.2492,-11.2492,-11.2412,-11.225,-10.6995,-10.6995,-10.6995,-10.6995,-10.6995,-10.6995,-10.706,-10.7114,-10.7231,-10.7301,-10.7352,-10.7377,-10.7377,-10.7377,-10.7377,-10.7377,-10.7377,-10.7377,-10.7377,-10.7377,-10.7377,-10.7377,-10.7377,-10.7377,-10.7377,-10.7377,-10.7377,-10.7377,-10.7377,-10.7586,-10.769,-10.7742,-10.7884,-10.7989,-10.802,-10.802,-10.802,-10.802,-10.802,-10.802,-10.802,-10.802,-10.802,-10.802,-10.802,-10.802,-10.802,-10.802,-10.802,-10.802,-10.802,-10.802,-10.802,-10.802,-10.802,-10.802,-10.802,-10.802,-10.802,-10.7972,-10.7944,-10.7911,-10.7886,-10.7845,-10.78,-10.7783,-10.7783,-10.7711,-10.7459,-10.7107,-10.6873,-10.7431,-10.7952,-10.8316,-10.8929,-10.982,-11.0509,-11.0627,-11.0691,-11.0691,-11.0691,-11.0691,-11.0691,-11.0691,-11.0691,-11.0639,-11.0639,-11.0481,-11.0301,-11.0341,-11.0569,-11.159,-11.2455,-11.3327,-11.4123,-11.4578,-11.4642,-11.4513,-11.4383,-11.4221,-11.4048,-11.384,-11.377,-11.3699,-11.3699,-11.3628,-11.341,-11.3113,-11.2884,-11.265,-11.2571,-11.2492,-11.2492,-11.2331,-11.2169,-10.6995,-10.6995,-10.6995,-10.6995,-10.6995,-10.6995,-10.706,-10.7114,-10.7231,-10.7313,-10.7327,-10.7352,-10.7377,-10.7377,-10.7377,-10.7377,-10.7377,-10.7377,-10.7377,-10.7377,-10.7377,-10.7377,-10.7377,-10.7377,-10.7377,-10.7377,-10.7377,-10.7416,-10.7401,-10.7586,-10.7736,-10.7851,-10.7909,-10.7989,-10.802,-10.802,-10.802,-10.802,-10.802,-10.802,-10.802,-10.802,-10.802,-10.802,-10.802,-10.802,-10.802,-10.802,-10.802,-10.802,-10.802,-10.802,-10.802,-10.802,-10.802,-10.802,-10.802,-10.802,-10.802,-10.802,-10.7954,-10.7899,-10.7899,-10.7859,-10.78,-10.7783,-10.7783,-10.7711,-10.7519,-10.7455,-10.7435,-10.8074,-10.8672,-10.9017,-10.9635,-11.0525,-11.0547,-11.0666,-11.0691,-11.0691,-11.0691,-11.0691,-11.0691,-11.0691,-11.0691,-11.0639,-11.0535,-11.0412,-11.0416,-11.0474,-11.07,-11.1682,-11.2683,-11.3593,-11.4199,-11.4553,-11.4578,-11.4449,-11.4317,-11.4154,-11.4017,-11.377,-11.3699,-11.3699,-11.3699,-11.3556,-11.3262,-11.3037,-11.2729,-11.2571,-11.2492,-11.2492,-11.2492,-11.2368,-11.2087,-10.6995,-10.6995,-10.6995,-10.6995,-10.6995,-10.6995,-10.706,-10.7084,-10.7174,-10.7259,-10.7313,-10.7352,-10.7377,-10.7377,-10.7377,-10.7377,-10.7377,-10.7377,-10.7377,-10.7377,-10.7377,-10.7377,-10.7377,-10.7377,-10.7377,-10.7377,-10.7377,-10.7377,-10.7425,-10.76,-10.78,-10.7948,-10.7996,-10.802,-10.802,-10.802,-10.802,-10.802,-10.802,-10.802,-10.802,-10.802,-10.802,-10.802,-10.802,-10.802,-10.802,-10.802,-10.802,-10.802,-10.802,-10.802,-10.802,-10.802,-10.802,-10.802,-10.802,-10.802,-10.802,-10.802,-10.7954,-10.7911,-10.7899,-10.7859,-10.7815,-10.7783,-10.7783,-10.79,-10.7888,-10.812,-10.8373,-10.9099,-10.9839,-11.0221,-11.0644,-11.0929,-11.0788,-11.0754,-11.0691,-11.0691,-11.0691,-11.0691,-11.0691,-11.0691,-11.0691,-11.0639,-11.0611,-11.064,-11.0626,-11.0931,-11.1211,-11.1985,-11.2948,-11.382,-11.4288,-11.4566,-11.4513,-11.4383,-11.4184,-11.4017,-11.3878,-11.3699,-11.3699,-11.3699,-11.3699,-11.3483,-11.3113,-11.2884,-11.2571,-11.2492,-11.2492,-11.2412,-11.2412,-11.2287,-11.2041,-10.6995,-10.6995,-10.6995,-10.6995,-10.6995,-10.6995,-10.706,-10.7084,-10.7174,-10.7231,-10.7274,-10.7391,-10.7377,-10.7377,-10.7377,-10.7377,-10.7377,-10.7377,-10.7377,-10.7377,-10.7377,-10.7377,-10.7377,-10.7377,-10.7377,-10.7377,-10.7377,-10.7377,-10.7455,-10.7586,-10.7806,-10.7971,-10.7981,-10.802,-10.802,-10.802,-10.802,-10.802,-10.802,-10.802,-10.802,-10.802,-10.802,-10.802,-10.802,-10.802,-10.802,-10.802,-10.802,-10.802,-10.802,-10.802,-10.802,-10.802,-10.802,-10.802,-10.802,-10.802,-10.802,-10.802,-10.7963,-10.7911,-10.7899,-10.7859,-10.7815,-10.7861,-10.79,-10.8056,-10.8485,-10.8843,-10.9288,-10.9937,-11.0523,-11.0879,-11.1227,-11.1345,-11.1204,-11.097,-11.0961,-11.0804,-11.0804,-11.0691,-11.0691,-11.0691,-11.0691,-11.0587,-11.0596,-11.0661,-11.0968,-11.1215,-11.1742,-11.2418,-11.3214,-11.4085,-11.4364,-11.4642,-11.4449,-11.4355,-11.4154,-11.3948,-11.377,-11.3699,-11.3699,-11.3628,-11.3556,-11.3262,-11.2961,-11.265,-11.2492,-11.2492,-11.2492,-11.2412,-11.225,-11.2124,-11.1958,-10.6995,-10.6995,-10.6995,-10.6995,-10.6995,-10.6995,-10.7028,-10.7053,-10.7114,-10.7202,-10.7286,-10.734,-10.7391,-10.7377,-10.7377,-10.7377,-10.7377,-10.7377,-10.7377,-10.7377,-10.7377,-10.7377,-10.7377,-10.7377,-10.7377,-10.7377,-10.7377,-10.7416,-10.7438,-10.7586,-10.7803,-10.7913,-10.7964,-10.802,-10.802,-10.802,-10.802,-10.802,-10.802,-10.802,-10.802,-10.802,-10.802,-10.802,-10.802,-10.802,-10.802,-10.802,-10.802,-10.802,-10.802,-10.802,-10.802,-10.802,-10.802,-10.802,-10.802,-10.802,-10.802,-10.802,-10.7954,-10.7961,-10.7938,-10.8132,-10.8283,-10.8446,-10.8407,-10.8524,-10.913,-10.9697,-11.0225,-11.0712,-11.1015,-11.1342,-11.1569,-11.1859,-11.1615,-11.1337,-11.1115,-11.0961,-11.0854,-11.0704,-11.0691,-11.0691,-11.0691,-11.0639,-11.0634,-11.0776,-11.114,-11.1574,-11.2235,-11.291,-11.363,-11.4351,-11.4515,-11.4578,-11.4383,-11.4221,-11.3979,-11.384,-11.3699,-11.3699,-11.3628,-11.3483,-11.3337,-11.3037,-11.2807,-11.265,-11.2492,-11.2492,-11.2412,-11.2368,-11.2206,-11.2041,-11.1789,-10.6995,-10.6995,-10.6995,-10.6995,-10.6995,-10.6995,-10.6995,-10.6995,-10.7053,-10.7114,-10.7202,-10.7286,-10.7301,-10.7391,-10.7416,-10.7377,-10.7377,-10.7377,-10.7377,-10.7377,-10.7377,-10.7377,-10.7377,-10.7377,-10.7377,-10.7377,-10.7377,-10.7425,-10.7459,-10.76,-10.7748,-10.7812,-10.7937,-10.802,-10.802,-10.802,-10.802,-10.802,-10.802,-10.802,-10.802,-10.802,-10.802,-10.802,-10.802,-10.802,-10.802,-10.802,-10.802,-10.802,-10.802,-10.802,-10.802,-10.802,-10.802,-10.802,-10.802,-10.802,-10.802,-10.802,-10.7954,-10.7961,-10.7977,-10.8405,-10.8712,-10.8797,-10.8797,-10.9264,-10.9927,-11.0472,-11.0983,-11.1489,-11.1838,-11.1973,-11.2115,-11.2156,-11.1931,-11.1652,-11.1381,-11.1209,-11.1016,-11.0864,-11.0691,-11.0691,-11.0691,-11.0639,-11.0596,-11.0682,-11.1406,-11.1991,-11.2592,-11.3327,-11.3972,-11.4502,-11.449,-11.4513,-11.4355,-11.4154,-11.391,-11.377,-11.3699,-11.3628,-11.3628,-11.341,-11.3188,-11.2961,-11.2729,-11.2571,-11.2492,-11.2529,-11.2449,-11.2287,-11.2124,-11.1874,-11.1705,-10.6995,-10.6995,-10.6995,-10.6995,-10.6995,-10.6995,-10.6995,-10.6995,-10.7028,-10.7091,-10.7153,-10.7259,-10.7313,-10.734,-10.7391,-10.7416,-10.7377,-10.7377,-10.7377,-10.7377,-10.7377,-10.7377,-10.7377,-10.7377,-10.7377,-10.7377,-10.7401,-10.7433,-10.75,-10.7625,-10.7742,-10.7812,-10.7943,-10.802,-10.802,-10.802,-10.802,-10.802,-10.802,-10.802,-10.802,-10.802,-10.802,-10.802,-10.802,-10.802,-10.802,-10.802,-10.802,-10.802,-10.802,-10.802,-10.802,-10.802,-10.802,-10.802,-10.802,-10.802,-10.802,-10.8011,-10.7993,-10.8234,-10.8393,-10.8781,-10.9024,-10.9086,-10.942,-11.0083,-11.0706,-11.1213,-11.168,-11.2187,-11.2559,-11.2581,-11.2572,-11.2414,-11.2242,-11.1995,-11.1687,-11.1461,-11.1252,-11.1016,-11.0804,-11.0691,-11.0691,-11.0587,-11.0428,-11.072,-11.1748,-11.2447,-11.2896,-11.3555,-11.4237,-11.4629,-11.454,-11.4449,-11.4288,-11.4086,-11.384,-11.377,-11.3699,-11.3628,-11.3483,-11.3262,-11.3037,-11.2807,-11.2729,-11.2571,-11.2492,-11.2529,-11.2368,-11.2206,-11.1958,-11.1789,-11.1533,-10.6995,-10.6995,-10.6995,-10.6995,-10.6995,-10.6995,-10.6995,-10.6995,-10.6995,-10.7028,-10.7053,-10.7174,-10.722,-10.7313,-10.7366,-10.7391,-10.7416,-10.7377,-10.7377,-10.7377,-10.7377,-10.7377,-10.7377,-10.7377,-10.7377,-10.7377,-10.7377,-10.7433,-10.7539,-10.7638,-10.7736,-10.7806,-10.792,-10.802,-10.802,-10.802,-10.802,-10.802,-10.802,-10.802,-10.802,-10.802,-10.802,-10.802,-10.802,-10.802,-10.802,-10.802,-10.802,-10.802,-10.802,-10.802,-10.802,-10.802,-10.802,-10.802,-10.802,-10.802,-10.802,-10.8011,-10.8149,-10.8507,-10.8796,-10.916,-11.0372,-11.0472,-11.0472,-11.1096,-11.1719,-11.2265,-11.2304,-11.2693,-11.2732,-11.2756,-11.2756,-11.2677,-11.2487,-11.2297,-11.2117,-11.1963,-11.1652,-11.1204,-11.1008,-11.0754,-11.0742,-11.0687,-11.0526,-11.1045,-11.2033,-11.2864,-11.3275,-11.3782,-11.4426,-11.4667,-11.4578,-11.4383,-11.4221,-11.4086,-11.384,-11.377,-11.3699,-11.3483,-11.3337,-11.3113,-11.2961,-11.2729,-11.2571,-11.2492,-11.2492,-11.2492,-11.2368,-11.2124,-11.1958,-11.1705,-11.1447,-10.6995,-10.6995,-10.6995,-10.6995,-10.6995,-10.6995,-10.6995,-10.6995,-10.6995,-10.6995,-10.7028,-10.7053,-10.7174,-10.7259,-10.7313,-10.734,-10.7352,-10.7352,-10.7352,-10.7377,-10.7377,-10.7377,-10.7377,-10.7377,-10.7377,-10.7377,-10.7377,-10.7377,-10.741,-10.7572,-10.7715,-10.7742,-10.7851,-10.802,-10.802,-10.802,-10.802,-10.802,-10.802,-10.802,-10.802,-10.802,-10.802,-10.802,-10.802,-10.802,-10.802,-10.802,-10.802,-10.802,-10.802,-10.802,-10.802,-10.802,-10.802,-10.802,-10.802,-10.802,-10.802,-10.802,-10.8461,-10.8937,-10.9159,-10.994,-11.1128,-11.1641,-11.1641,-11.1953,-11.2576,-11.281,-11.2849,-11.2888,-11.2888,-11.2888,-11.2871,-11.2871,-11.2717,-11.2595,-11.2526,-11.2388,-11.1963,-11.1499,-11.1115,-11.0913,-11.0831,-11.0778,-11.1135,-11.1767,-11.2413,-11.3092,-11.3654,-11.3985,-11.4515,-11.4642,-11.4513,-11.4383,-11.4221,-11.3979,-11.377,-11.3699,-11.3628,-11.341,-11.3262,-11.3037,-11.2884,-11.265,-11.2571,-11.2492,-11.2492,-11.2412,-11.2287,-11.2041,-11.1789,-11.1533,-11.1447,-10.6995,-10.6995,-10.6995,-10.6995,-10.6995,-10.6995,-10.6995,-10.6995,-10.6995,-10.6995,-10.6995,-10.7028,-10.7091,-10.7144,-10.7202,-10.7259,-10.7313,-10.734,-10.7391,-10.7416,-10.7377,-10.7377,-10.7377,-10.7377,-10.7377,-10.7377,-10.7377,-10.7377,-10.741,-10.7572,-10.7708,-10.7715,-10.7923,-10.802,-10.802,-10.802,-10.802,-10.802,-10.802,-10.802,-10.802,-10.802,-10.802,-10.802,-10.802,-10.802,-10.802,-10.802,-10.802,-10.802,-10.802,-10.802,-10.802,-10.802,-10.802,-10.802,-10.802,-10.802,-10.802,-10.802,-10.8461,-10.9315,-10.9693,-11.0447,-11.1479,-11.2304,-11.2343,-11.246,-11.2849,-11.2849,-11.2888,-11.2888,-11.2888,-11.2888,-11.2888,-11.2888,-11.2814,-11.2776,-11.2697,-11.255,-11.2309,-11.1796,-11.1333,-11.1108,-11.0913,-11.0971,-11.1288,-11.1881,-11.243,-11.3146,-11.3934,-11.425,-11.4642,-11.4513,-11.4317,-11.4317,-11.4154,-11.391,-11.3699,-11.3628,-11.3483,-11.3262,-11.3113,-11.2961,-11.2729,-11.2571,-11.2492,-11.2492,-11.2412,-11.2331,-11.2124,-11.1874,-11.1619,-11.1447,-11.136]}]]